Date StartTime U_cm/s V_cm/s W_cm/s Ustd_cm/s Vstd_cm/s Wstd_cm/s Uvar_(cm/s)^2 Vvar_(cm/s)^2 Wvar_(cm/s)^2 KE_(m/s)^2 TurbulentKE_(m/s)^2 HorizWindSpeed_cm/s FrictionSpeec_cm/s DragCoef SpeedOfSound_m/s SonicTemperature_C Pressure_mb 
04/26/2013  00:00:00       46.182      103.772       -1.788       21.332       38.564       30.105      455.044     1487.170      906.286        0.788        0.142      113.584       26.292        0.054      340.861       15.174      863.842
04/26/2013  00:01:00       46.491       49.561       -3.232       20.484       23.054       17.964      419.576      531.506      322.717        0.295        0.064       67.954       13.164        0.038      340.761       15.004      863.830
04/26/2013  00:02:00       17.456       -7.439      -11.548       14.680       22.956       11.255      215.494      526.986      126.669        0.068        0.043       18.975       11.032        0.338      340.890       15.222      863.852
04/26/2013  00:03:00      -12.189       -7.329      -12.649       11.408       11.120        8.416      130.153      123.645       70.834        0.034        0.016       14.223        4.397        0.096      340.879       15.206      863.868
04/26/2013  00:04:00       -9.236       11.957        0.974       17.001       15.336        9.030      289.045      235.182       81.543        0.042        0.030       15.109        2.564        0.029      340.906       15.251      863.896
04/26/2013  00:05:00      -13.698       -1.946      -12.225       20.302       15.412       11.210      412.169      237.518      125.659        0.056        0.039       13.835        7.239        0.274      341.010       15.427      863.908
04/26/2013  00:06:00       21.636       24.480       16.644       15.016       10.470       15.281      225.490      109.621      233.516        0.096        0.028       32.671       11.431        0.122      340.977       15.371      863.927
04/26/2013  00:07:00       58.055       37.314       24.333       14.651       13.767       13.100      214.645      189.526      171.615        0.297        0.029       69.013        6.773        0.010      341.021       15.445      863.926
04/26/2013  00:08:00       54.461       25.154       -1.972       19.277       16.647       11.882      371.588      277.130      141.189        0.220        0.039       59.989       13.058        0.047      340.977       15.370      863.937
04/26/2013  00:09:00       51.277       33.913       -0.007       13.641        9.200        8.827      186.072       84.642       77.913        0.206        0.017       61.477        5.232        0.007      340.899       15.237      863.933
04/26/2013  00:10:00       64.103       35.960        7.912       25.081       13.919       14.874      629.072      193.746      221.224        0.325        0.052       73.500       11.373        0.024      340.907       15.251      863.949
04/26/2013  00:11:00       85.141       30.104        9.101       21.764       18.385       17.809      473.650      338.001      317.168        0.468        0.056       90.306        6.519        0.005      340.893       15.228      863.943
04/26/2013  00:12:00       74.846       18.999       23.872       37.267       22.988       24.296     1388.798      528.447      590.308        0.452        0.125       77.219       18.186        0.055      340.902       15.243      863.950
04/26/2013  00:13:00       27.546       34.076       38.138       22.388       21.930       19.744      501.218      480.936      389.839        0.237        0.069       43.818       16.575        0.143      340.877       15.201      863.946
04/26/2013  00:14:00        5.758       30.656       38.092       16.174       16.598       13.521      261.600      275.507      182.817        0.157        0.036       31.192       10.965        0.124      340.787       15.049      863.963
04/26/2013  00:15:00        5.994       24.942       19.463       19.141       16.525       14.478      366.397      273.061      209.619        0.094        0.042       25.652       12.987        0.256      340.785       15.046      863.985
04/26/2013  00:16:00       -5.802       63.585      -11.519       18.119       13.427        7.713      328.290      180.285       59.497        0.239        0.028       63.849        6.506        0.010      341.072       15.532      864.018
04/26/2013  00:17:00        3.256       62.188      -12.357       16.816       17.309       10.536      282.788      299.602      110.999        0.236        0.035       62.273        3.577        0.003      341.093       15.569      864.032
04/26/2013  00:18:00       10.883       80.543       -9.722       10.036       15.464       11.818      100.711      239.130      139.674        0.359        0.024       81.275        6.098        0.006      341.140       15.648      864.042
04/26/2013  00:19:00       25.094       55.539        1.305       22.183       35.993       19.560      492.096     1295.532      382.613        0.294        0.109       60.945       18.166        0.089      340.748       14.983      864.043
04/26/2013  00:20:00       60.653       49.822        0.749       44.271       25.004       19.105     1959.964      625.223      364.985        0.456        0.148       78.492       12.643        0.026      340.830       15.121      864.040
04/26/2013  00:21:00       72.614       34.779       11.246       31.713       23.599       22.656     1005.726      556.902      513.303        0.434        0.104       80.514       18.302        0.052      340.732       14.954      864.033
04/26/2013  00:22:00       13.923       15.662       10.183       17.761       21.006       17.508      315.459      441.255      306.533        0.080        0.053       20.956       14.140        0.455      340.713       14.923      864.044
04/26/2013  00:23:00       -1.089       14.323        9.906        9.019       10.590        9.443       81.334      112.149       89.163        0.029        0.014       14.365        6.505        0.205      340.661       14.837      864.052
04/26/2013  00:24:00      -56.149       45.679      -11.897       35.732       19.732       12.878     1276.761      389.364      165.839        0.361        0.092       72.383       20.238        0.078      340.679       14.866      864.076
04/26/2013  00:25:00      -89.568       19.008      -13.995       17.866       14.416       10.726      319.193      207.814      115.037        0.461        0.032       91.562        5.116        0.003      340.579       14.698      864.089
04/26/2013  00:26:00      -91.916       -6.032      -14.209       28.002       24.206       16.210      784.137      585.950      262.764        0.516        0.082       92.114       13.596        0.022      340.430       14.446      864.102
04/26/2013  00:27:00      -94.224      -13.803       -7.192       45.066       24.323       17.056     2030.969      591.625      290.922        0.602        0.146       95.230       16.313        0.029      340.462       14.499      864.108
04/26/2013  00:28:00      -45.329      -25.196       -6.185       34.446       12.792        8.331     1186.556      163.644       69.402        0.207        0.071       51.861        5.779        0.012      340.602       14.737      864.094
04/26/2013  00:29:00       10.177      -20.985       -0.641       12.950       10.886        7.892      167.699      118.498       62.289        0.045        0.017       23.323        7.253        0.097      340.949       15.323      864.084
04/26/2013  00:30:00       -9.354      -23.727        3.906       28.470       15.088        8.978      810.558      227.645       80.610        0.089        0.056       25.504       14.173        0.309      341.119       15.609      864.068
04/26/2013  00:31:00     -174.551       53.912      -19.813       57.847       51.661       26.978     3346.240     2668.864      727.820        2.025        0.337      182.687       20.723        0.013      340.540       14.629      864.089
04/26/2013  00:32:00     -163.735       20.338      -24.156       69.794       79.638       39.887     4871.150     6342.203     1590.959        2.030        0.640      164.994       33.243        0.041      340.126       13.930      864.123
04/26/2013  00:33:00     -141.986       21.574      -27.686       36.529       42.978       25.301     1334.344     1847.122      640.144        1.261        0.191      143.616       13.018        0.008      340.048       13.800      864.137
04/26/2013  00:34:00     -150.625       -8.009      -16.885       30.734       32.503       19.063      944.597     1056.474      363.409        1.270        0.118      150.838       10.200        0.005      340.068       13.833      864.133
04/26/2013  00:35:00     -133.392        8.219      -23.291       33.006       45.653       22.056     1089.422     2084.152      486.465        1.103        0.183      133.645       16.769        0.016      340.034       13.776      864.145
04/26/2013  00:36:00      -84.919       -4.080      -13.008       41.577       25.928       17.302     1728.630      672.272      299.354        0.505        0.135       85.017       14.493        0.029      339.991       13.704      864.156
04/26/2013  00:37:00      -11.758      -31.465       -1.662       22.256       21.427       15.728      495.315      459.121      247.373        0.117        0.060       33.590        7.192        0.046      340.058       13.818      864.130
04/26/2013  00:38:00      -90.276      -28.788      -12.088       22.322       14.600       10.742      498.255      213.161      115.382        0.498        0.041       94.756        9.932        0.011      339.990       13.702      864.132
04/26/2013  00:39:00      -73.503       -9.774       -5.441       25.536       19.074       15.518      652.086      363.831      240.804        0.339        0.063       74.150       14.002        0.036      339.894       13.540      864.148
04/26/2013  00:40:00     -157.876       37.748      -21.871       82.814       36.532       24.701     6858.234     1334.561      610.147        1.781        0.440      162.326       16.600        0.010      339.992       13.703      864.163
04/26/2013  00:41:00     -193.747       37.208      -16.183       36.514       32.373       23.389     1333.241     1048.017      547.048        2.106        0.146      197.288       19.339        0.010      339.947       13.629      864.191
04/26/2013  00:42:00      -91.179      -35.944      -12.912       60.196       31.133       20.494     3623.612      969.238      420.012        0.739        0.251       98.008       25.907        0.070      339.861       13.485      864.196
04/26/2013  00:43:00      -26.803      -14.724       -5.355       16.302       21.348       10.628      265.758      455.722      112.957        0.090        0.042       30.581       10.166        0.111      340.282       14.195      864.184
04/26/2013  00:44:00      -52.010       -1.540       -6.883       18.898       14.972       10.656      357.143      224.154      113.555        0.172        0.035       52.033        9.738        0.035      340.444       14.469      864.201
04/26/2013  00:45:00     -108.849       -7.428      -14.839       21.919       24.218       11.362      480.429      586.491      129.086        0.666        0.060      109.102        8.172        0.006      339.918       13.581      864.223
04/26/2013  00:46:00     -122.448      -30.044      -16.677       23.902       27.424       13.854      571.304      752.090      191.924        0.884        0.076      126.079       10.312        0.007      339.773       13.338      864.249
04/26/2013  00:47:00     -100.642      -35.333       -3.343       28.937       22.670       15.615      837.351      513.931      243.836        0.649        0.080      106.664       14.389        0.018      339.888       13.529      864.263
04/26/2013  00:48:00     -127.853      -56.629        3.477       52.253       25.357       22.594     2730.331      642.980      510.472        1.172        0.194      139.833       27.689        0.039      339.891       13.534      864.299
04/26/2013  00:49:00     -100.679      -82.100       -3.803       79.999       57.215       36.944     6399.875     3273.530     1364.850        1.396        0.552      129.911       42.621        0.108      339.907       13.560      864.331
04/26/2013  00:50:00      -83.901     -122.120       -8.743       32.030       41.331       23.502     1025.920     1708.255      552.366        1.266        0.164      148.164       17.515        0.014      340.094       13.877      864.354
04/26/2013  00:51:00      -39.585     -107.692        4.504       29.542       30.318       18.512      872.746      919.163      342.679        0.766        0.107      114.737       13.199        0.013      340.310       14.242      864.360
04/26/2013  00:52:00      -16.185      -95.422       -8.703       27.410       19.235       19.857      751.288      369.984      394.285        0.548        0.076       96.785        9.405        0.009      340.412       14.415      864.365
04/26/2013  00:53:00        0.407      -31.857        3.968       14.961       29.951       17.134      223.818      897.073      293.577        0.122        0.071       31.860       19.949        0.392      340.489       14.546      864.376
04/26/2013  00:54:00      -12.479       12.281        0.430       12.580       10.400       13.972      158.261      108.168      195.229        0.038        0.023       17.508       10.471        0.358      340.239       14.120      864.404
04/26/2013  00:55:00      -35.310        7.138        3.005       31.589       23.164       16.352      997.885      536.563      267.404        0.155        0.090       36.024       16.078        0.199      340.232       14.112      864.414
04/26/2013  00:56:00     -117.948      -13.340       -3.648       42.397       38.979       18.850     1797.464     1519.334      355.316        0.889        0.184      118.700       14.344        0.015      339.869       13.498      864.436
04/26/2013  00:57:00     -143.284      -35.705        2.086       62.164       39.932       23.358     3864.301     1594.555      545.577        1.391        0.300      147.665       25.667        0.030      339.762       13.317      864.449
04/26/2013  00:58:00     -108.388      -21.485        2.128       38.328       29.729       22.273     1469.017      883.793      496.085        0.753        0.142      110.497       18.063        0.027      340.002       13.722      864.447
04/26/2013  00:59:00      -34.326      -35.518        6.103       37.060       27.695       19.353     1373.413      767.033      374.521        0.250        0.126       49.395       11.795        0.057      339.959       13.650      864.447
04/26/2013  01:00:00      -91.914      -43.476       -1.960       27.712       27.219       15.094      767.939      740.848      227.838        0.604        0.087      101.677       10.973        0.012      340.140       13.956      864.460
04/26/2013  01:01:00     -116.433      -18.545       -2.545       45.175       33.399       20.051     2040.741     1115.506      402.048        0.873        0.178      117.901       24.713        0.044      339.910       13.567      864.477
04/26/2013  01:02:00     -153.919       31.923       -7.537       66.498       40.038       30.236     4422.038     1603.035      914.193        1.585        0.347      157.195       31.687        0.041      339.593       13.031      864.486
04/26/2013  01:03:00     -167.911       21.718       -8.973       30.367       36.618       18.066      922.151     1340.899      326.397        1.567        0.129      169.309       13.870        0.007      339.606       13.054      864.478
04/26/2013  01:04:00      -99.732      -49.373       -7.159       37.460       26.209       19.197     1403.259      686.906      368.533        0.745        0.123      111.284       20.089        0.033      339.638       13.108      864.459
04/26/2013  01:05:00     -134.636      -51.659       -4.761       26.457       24.164       16.803      699.990      583.894      282.333        1.119        0.078      144.207       13.276        0.008      339.662       13.149      864.446
04/26/2013  01:06:00     -177.638      -64.225       -8.871       46.689       31.429       24.737     2179.836      987.779      611.909        1.977        0.189      188.891       22.408        0.014      339.712       13.231      864.423
04/26/2013  01:07:00     -125.740      -42.243       -1.745       41.837       33.150       24.227     1750.294     1098.919      586.949        1.052        0.172      132.646       18.910        0.020      339.614       13.068      864.422
04/26/2013  01:08:00     -102.189        4.457       -5.079       38.053       26.620       20.381     1448.040      708.631      415.398        0.653        0.129      102.286       20.219        0.039      339.512       12.895      864.418
04/26/2013  01:09:00      -98.104       -9.996       -8.898       33.152       24.872       17.049     1099.085      618.616      290.678        0.591        0.100       98.612       17.928        0.033      339.528       12.924      864.410
04/26/2013  01:10:00     -128.462      -19.346      -11.505       28.462       24.727       19.477      810.074      611.440      379.367        0.940        0.090      129.911       18.260        0.020      339.611       13.063      864.408
04/26/2013  01:11:00     -152.966      -26.567      -18.112       31.002       34.283       16.983      961.150     1175.316      288.439        1.343        0.121      155.256       13.056        0.007      339.592       13.031      864.417
04/26/2013  01:12:00     -165.020      -57.803      -17.208       38.602       32.695       24.248     1490.121     1068.995      587.968        1.701        0.157      174.851       18.389        0.011      339.498       12.871      864.416
04/26/2013  01:13:00      -93.835      -44.494       -5.050       24.754       14.457       16.718      612.771      208.999      279.488        0.596        0.055      103.849       12.832        0.015      339.598       13.042      864.397
04/26/2013  01:14:00     -111.082      -28.906       -4.375       37.697       22.882       15.074     1421.051      523.572      227.217        0.768        0.109      114.782       18.430        0.026      339.715       13.238      864.388
04/26/2013  01:15:00     -176.140      -10.746      -20.335       52.662       33.645       21.188     2773.280     1131.978      448.925        1.795        0.218      176.467       20.156        0.013      339.586       13.019      864.404
04/26/2013  01:16:00     -216.459      -28.193      -25.937       48.537       48.167       29.185     2355.813     2320.029      851.759        2.692        0.276      218.287       21.782        0.010      339.323       12.574      864.437
04/26/2013  01:17:00     -149.221      -57.411       -4.604       50.510       54.222       29.300     2551.267     2940.042      858.491        1.597        0.317      159.885       25.237        0.025      339.336       12.599      864.438
04/26/2013  01:18:00      -19.828      -22.229       13.639       36.106       21.020       20.981     1303.627      441.829      440.201        0.163        0.109       29.788        8.939        0.090      339.462       12.811      864.400
04/26/2013  01:19:00      -95.656      -65.920       -7.920       50.489       42.193       18.923     2549.125     1780.275      358.095        0.912        0.234      116.170       26.237        0.051      339.749       13.295      864.385
04/26/2013  01:20:00     -139.713      -52.919       -2.187       40.390       39.438       23.157     1631.317     1555.381      536.236        1.302        0.186      149.399       20.555        0.019      339.618       13.075      864.415
04/26/2013  01:21:00      -85.395      -36.006        1.746       39.586       25.693       20.313     1567.020      660.119      412.624        0.562        0.132       92.676       20.413        0.049      339.453       12.797      864.429
04/26/2013  01:22:00      -84.263       -4.674       -5.406       36.268       30.757       23.347     1315.364      946.022      545.093        0.498        0.140       84.393       22.978        0.074      339.544       12.949      864.429
04/26/2013  01:23:00      -37.916       -5.923       -3.932       16.015       11.450        8.018      256.487      131.106       64.282        0.097        0.023       38.376        4.753        0.015      339.418       12.736      864.404
04/26/2013  01:24:00      -81.591      -31.649       -7.998       13.580       10.808        9.698      184.426      116.805       94.052        0.406        0.020       87.515        6.935        0.006      339.485       12.852      864.406
04/26/2013  01:25:00      -86.605      -33.018       -9.358       29.633       20.572       15.149      878.100      423.193      229.478        0.510        0.077       92.686        5.723        0.004      339.443       12.779      864.413
04/26/2013  01:26:00      -29.911      -57.570        3.401       44.929       31.728       26.194     2018.615     1006.666      686.119        0.397        0.186       64.877       20.558        0.100      339.412       12.728      864.404
04/26/2013  01:27:00      -35.929      -39.814        5.487       26.294       41.196       17.891      691.352     1697.136      320.095        0.281        0.135       53.629       17.152        0.102      339.482       12.845      864.399
04/26/2013  01:28:00      -90.502      -34.888       -4.380       22.793       27.915       17.103      519.540      779.233      292.507        0.551        0.080       96.993       12.915        0.018      339.415       12.734      864.393
04/26/2013  01:29:00      -93.522      -18.953      -12.443       21.458       20.293       17.063      460.443      411.815      291.134        0.521        0.058       95.423       12.036        0.016      339.275       12.497      864.413
04/26/2013  01:30:00      -84.285      -24.907       -8.820       19.353       18.084       15.061      374.556      327.021      226.822        0.437        0.046       87.888       12.873        0.021      339.170       12.321      864.416
04/26/2013  01:31:00      -32.221      -31.754        5.991       31.217       20.522       12.348      974.512      421.169      152.468        0.181        0.077       45.238        8.193        0.033      339.232       12.425      864.407
04/26/2013  01:32:00      -57.025      -74.017       -6.332       32.442       34.678       19.909     1052.475     1202.573      396.382        0.571        0.133       93.436       18.821        0.041      339.430       12.756      864.391
04/26/2013  01:33:00      -73.921      -79.870        4.019       42.386       39.997       26.337     1796.599     1599.778      693.663        0.797        0.205      108.828       24.961        0.053      339.505       12.885      864.392
04/26/2013  01:34:00      -49.860      -41.671        9.863       50.144       28.518       29.613     2514.380      813.272      876.929        0.426        0.210       64.980       25.539        0.154      339.577       13.006      864.392
04/26/2013  01:35:00      -56.450      -51.797        2.650       57.999       30.585       28.640     3363.904      935.473      820.260        0.550        0.256       76.613       23.144        0.091      339.661       13.147      864.399
04/26/2013  01:36:00      -13.068      -53.250        2.611       33.479       25.504       18.157     1120.837      650.458      329.679        0.256        0.105       54.830       13.234        0.058      339.606       13.057      864.414
04/26/2013  01:37:00      -14.055      -31.547       -0.681       26.085       21.117       19.726      680.418      445.925      389.113        0.135        0.076       34.536       14.579        0.178      339.537       12.940      864.417
04/26/2013  01:38:00       -1.254      -51.844        1.381       26.419       25.546       15.801      697.959      652.620      249.678        0.215        0.080       51.859       13.548        0.068      339.551       12.963      864.434
04/26/2013  01:39:00      -22.970      -36.818       -5.449       16.119       21.789       14.729      259.814      474.773      216.953        0.143        0.048       43.396       12.469        0.083      339.542       12.947      864.436
04/26/2013  01:40:00      -52.257      -27.747        1.047       29.123       24.094       13.655      848.153      580.502      186.448        0.256        0.081       59.167        9.415        0.025      339.475       12.834      864.441
04/26/2013  01:41:00      -29.377      -25.515       -1.295       28.201       17.228       12.030      795.314      296.799      144.724        0.138        0.062       38.910        7.604        0.038      339.380       12.674      864.448
04/26/2013  01:42:00       -3.074      -61.152       -9.444       10.326       13.807        7.253      106.628      190.624       52.606        0.209        0.017       61.229        4.613        0.006      339.444       12.781      864.423
04/26/2013  01:43:00      -11.192      -52.064        2.761       36.212       29.089       20.964     1311.338      846.169      439.470        0.272        0.130       53.253       23.158        0.189      339.552       12.964      864.428
04/26/2013  01:44:00       -7.726      -16.929        8.251       20.229       18.318       13.633      409.197      335.545      185.849        0.067        0.047       18.609        4.773        0.066      339.487       12.854      864.420
04/26/2013  01:45:00       13.564        0.812       12.185       16.081       15.221       12.211      258.595      231.665      149.101        0.049        0.032       13.589        3.917        0.083      339.265       12.480      864.431
04/26/2013  01:46:00       26.680       50.988        5.192       25.750       34.075       21.397      663.041     1161.137      457.835        0.281        0.114       57.546       21.289        0.137      339.033       12.090      864.438
04/26/2013  01:47:00       12.284       58.500       -9.007       14.057       20.616        6.924      197.603      425.005       47.946        0.216        0.034       59.775        3.527        0.003      338.954       11.956      864.432
04/26/2013  01:48:00        8.097       24.403      -10.284       15.389       12.500        5.859      236.811      156.247       34.329        0.060        0.021       25.711        5.821        0.051      338.859       11.798      864.440
04/26/2013  01:49:00       27.912       12.293       -1.118        9.432        9.811       10.755       88.963       96.251      115.661        0.062        0.015       30.499        6.504        0.045      339.019       12.066      864.429
04/26/2013  01:50:00        3.301        3.396        6.694       11.167        8.507        8.046      124.711       72.376       64.731        0.016        0.013        4.736        6.717        2.011      338.938       11.929      864.430
04/26/2013  01:51:00        5.900       12.301       11.524       11.903       13.842       12.304      141.677      191.599      151.376        0.040        0.024       13.643       13.237        0.941      339.015       12.059      864.436
04/26/2013  01:52:00       18.375       20.359        7.638       17.661       10.471       18.295      311.909      109.651      334.693        0.078        0.038       27.425       12.812        0.218      339.067       12.145      864.453
04/26/2013  01:53:00       46.392       38.542       20.588       13.229        8.321       13.218      175.006       69.239      174.726        0.224        0.021       60.313        7.544        0.016      339.207       12.381      864.474
04/26/2013  01:54:00       53.201       41.945       -0.112        9.616       10.048       13.522       92.474      100.971      182.840        0.248        0.019       67.748        4.689        0.005      339.302       12.543      864.488
04/26/2013  01:55:00       22.307       21.902        9.596       13.546       15.693        9.015      183.493      246.260       81.266        0.079        0.026       31.262        4.695        0.023      339.320       12.572      864.492
04/26/2013  01:56:00       -1.816       13.440       20.092       10.152       14.146       12.129      103.055      200.115      147.116        0.052        0.023       13.562        9.091        0.449      339.174       12.328      864.480
04/26/2013  01:57:00       -6.278       15.083       47.250        8.805       18.259       10.146       77.523      333.384      102.935        0.151        0.026       16.337        9.115        0.311      339.224       12.412      864.469
04/26/2013  01:58:00      -23.665      -15.240        7.496       21.893       15.814       12.276      479.314      250.076      150.698        0.086        0.044       28.148       11.411        0.164      339.339       12.606      864.459
04/26/2013  01:59:00      -17.269       -5.132       -2.860       16.906       10.455        8.314      285.819      109.311       69.127        0.040        0.023       18.016        5.467        0.092      339.338       12.602      864.463
04/26/2013  02:00:00       32.003       -0.776        0.645       17.241        6.144        7.364      297.247       37.747       54.221        0.071        0.019       32.012        4.077        0.016      339.399       12.707      864.457
04/26/2013  02:01:00       40.567       22.976       19.178       23.157       17.419       16.676      536.265      303.429      278.096        0.183        0.056       46.621       18.372        0.155      339.269       12.484      864.444
04/26/2013  02:02:00      -20.119       -7.604        4.062       12.722       11.155        9.616      161.850      124.444       92.472        0.043        0.019       21.508        7.317        0.116      339.125       12.245      864.457
04/26/2013  02:03:00        4.710      -20.911       -2.476       14.606       17.733        8.508      213.341      314.459       72.394        0.053        0.030       21.435       11.066        0.267      339.170       12.322      864.451
04/26/2013  02:04:00        9.147       18.975        8.885       13.549       15.196        7.584      183.581      230.932       57.521        0.050        0.024       21.065        8.532        0.164      339.135       12.259      864.457
04/26/2013  02:05:00      -24.442       -2.676       -2.558       16.348       13.333       10.343      267.268      177.770      106.978        0.058        0.028       24.588       10.004        0.166      339.286       12.516      864.486
04/26/2013  02:06:00       16.703       26.737       12.985       14.210       17.748       11.793      201.933      315.007      139.078        0.091        0.033       31.525       11.187        0.126      339.097       12.196      864.487
04/26/2013  02:07:00      -18.957       73.736       -4.779       23.480       29.652       20.190      551.296      879.216      407.629        0.383        0.092       76.134       19.074        0.063      339.002       12.036      864.511
04/26/2013  02:08:00       16.368      134.708      -26.323       15.363       17.597       16.447      236.031      309.657      270.495        0.996        0.041      135.699       13.085        0.009      339.236       12.430      864.509
04/26/2013  02:09:00       12.789       85.749      -20.870       16.402       38.258        8.836      269.018     1463.645       78.067        0.488        0.091       86.697       13.695        0.025      339.287       12.517      864.521
04/26/2013  02:10:00      -25.287       42.595      -12.048       20.276       35.877        8.329      411.104     1287.174       69.373        0.218        0.088       49.536        9.747        0.039      339.280       12.503      864.541
04/26/2013  02:11:00        0.628       19.047        2.130       19.650       14.688        9.048      386.111      215.731       81.864        0.053        0.034       19.057       11.581        0.369      339.125       12.244      864.530
04/26/2013  02:12:00       28.542       37.215       -0.656        8.917       10.857        4.254       79.508      117.868       18.093        0.121        0.011       46.900        3.178        0.005      339.417       12.736      864.524
04/26/2013  02:13:00       13.467        3.486        3.304       10.580        9.265        5.425      111.935       85.842       29.435        0.022        0.011       13.911        5.693        0.167      339.345       12.615      864.519
04/26/2013  02:14:00       15.835       22.550        5.252       12.134       14.597        9.289      147.226      213.081       86.285        0.062        0.022       27.555        6.980        0.064      339.445       12.783      864.508
04/26/2013  02:15:00       12.999       20.752        0.373        6.766       10.743        8.471       45.775      115.410       71.764        0.042        0.012       24.487        6.343        0.067      339.409       12.722      864.516
04/26/2013  02:16:00       16.221       16.154       -1.879        7.591       11.609        3.315       57.622      134.769       10.988        0.037        0.010       22.892        2.383        0.011      339.476       12.838      864.509
04/26/2013  02:17:00       -4.015       37.347       -8.614       15.882        8.626        5.520      252.236       74.408       30.465        0.092        0.018       37.563        5.739        0.023      339.537       12.940      864.522
04/26/2013  02:18:00       20.730       32.205       -2.091        8.980       13.986        8.158       80.646      195.612       66.559        0.091        0.017       38.301        5.850        0.023      339.523       12.914      864.548
04/26/2013  02:19:00       53.663       18.396        8.209       13.640       10.672       11.860      186.057      113.884      140.654        0.186        0.022       56.729        6.354        0.013      339.536       12.937      864.555
04/26/2013  02:20:00        2.049       -2.483       12.686       19.211       20.032       13.603      369.059      401.289      185.055        0.056        0.048        3.219       12.450       14.955      339.086       12.178      864.573
04/26/2013  02:21:00        7.947      -16.804        2.247       12.336       11.304       10.642      152.172      127.777      113.251        0.037        0.020       18.588       11.044        0.353      339.069       12.148      864.594
04/26/2013  02:22:00       29.853      -24.544       15.739       10.309       14.134       18.114      106.273      199.766      328.124        0.119        0.032       38.647        9.673        0.063      339.144       12.275      864.602
04/26/2013  02:23:00       33.144       13.305        7.518       18.204       14.832       13.355      331.380      219.987      178.348        0.103        0.036       35.714        6.106        0.029      339.175       12.327      864.613
04/26/2013  02:24:00        8.288       18.083       19.240       12.456       12.417       14.198      155.140      154.172      201.578        0.064        0.026       19.892       11.630        0.342      339.012       12.055      864.630
04/26/2013  02:25:00       -8.535       37.984       59.510        9.784       21.557       16.600       95.728      464.686      275.553        0.295        0.042       38.932       16.043        0.170      339.146       12.281      864.628
04/26/2013  02:26:00        5.969       42.221       48.609       16.286       21.158       11.275      265.223      447.672      127.122        0.251        0.042       42.641        8.558        0.040      339.279       12.503      864.637
04/26/2013  02:27:00       20.975       38.074       43.172       21.341       19.121       10.234      455.426      365.612      104.742        0.234        0.046       43.469        9.871        0.052      339.276       12.498      864.661
04/26/2013  02:28:00       14.444       28.413       25.782       20.936       17.345       16.446      438.303      300.850      270.469        0.134        0.050       31.874        9.916        0.097      339.302       12.542      864.664
04/26/2013  02:29:00       61.968       38.543       24.430       28.396       16.994       16.449      806.317      288.790      270.563        0.364        0.068       72.977       13.754        0.036      339.313       12.559      864.672
04/26/2013  02:30:00       12.375       18.572       30.965       27.721       24.586       18.629      768.433      604.454      347.034        0.159        0.086       22.317       13.415        0.361      339.293       12.526      864.683
04/26/2013  02:31:00       42.601        7.225       17.444       17.924       21.737       17.947      321.260      472.498      322.098        0.164        0.056       43.210       15.952        0.136      339.279       12.503      864.690
04/26/2013  02:32:00       21.694      -12.957       11.878       15.594        9.962        8.372      243.165       99.240       70.096        0.060        0.021       25.269        6.755        0.071      339.237       12.432      864.692
04/26/2013  02:33:00       12.502        1.309        9.030        9.727       13.745        8.285       94.607      188.914       68.646        0.030        0.018       12.570        4.180        0.111      339.144       12.274      864.693
04/26/2013  02:34:00        6.080        7.546        8.386       14.000       11.127       11.760      196.008      123.816      138.297        0.031        0.023        9.690       10.877        1.260      339.112       12.222      864.710
04/26/2013  02:35:00       12.835        7.135       -0.283        7.189        9.519        5.667       51.675       90.621       32.114        0.020        0.009       14.685        3.415        0.054      339.153       12.290      864.721
04/26/2013  02:36:00       14.067       33.047       -2.577        6.396        6.507        3.546       40.909       42.340       12.572        0.070        0.005       35.916        1.711        0.002      339.263       12.478      864.732
04/26/2013  02:37:00       33.775       36.774       -3.137       10.379       10.349        5.049      107.727      107.099       25.491        0.137        0.012       49.931        4.605        0.009      339.389       12.689      864.739
04/26/2013  02:38:00       41.535       28.905        2.496       13.688       11.920        8.476      187.361      142.075       71.850        0.148        0.020       50.603        8.638        0.029      339.333       12.595      864.741
04/26/2013  02:39:00       19.018       37.525       -1.976       15.339       12.450       11.191      235.278      155.011      125.237        0.114        0.026       42.069        6.586        0.025      339.190       12.355      864.736
04/26/2013  02:40:00       14.980       58.901       -8.766       11.679       17.578        9.438      136.392      308.991       89.082        0.215        0.027       60.776       10.373        0.029      339.131       12.254      864.730
04/26/2013  02:41:00       16.562       35.171       -7.089        8.808       12.274        5.919       77.580      150.647       35.039        0.091        0.013       38.875        4.604        0.014      339.064       12.139      864.734
04/26/2013  02:42:00       12.249       64.885      -13.043       10.499       19.682        6.697      110.236      387.366       44.854        0.254        0.027       66.031        5.526        0.007      339.176       12.330      864.730
04/26/2013  02:43:00       10.584       52.285       -4.254       14.321       12.203       14.886      205.096      148.920      221.602        0.172        0.029       53.346       12.162        0.052      339.200       12.369      864.735
04/26/2013  02:44:00       40.187       63.896       -0.804       24.337       34.256       19.784      592.273     1173.457      391.403        0.393        0.108       75.483       21.804        0.083      339.147       12.281      864.744
04/26/2013  02:45:00       12.540       54.243       -2.871       12.326       17.181       13.905      151.935      295.170      193.336        0.187        0.032       55.674       12.728        0.052      339.126       12.245      864.754
04/26/2013  02:46:00       13.566        9.195        8.575       10.641       12.570       10.487      113.227      158.008      109.978        0.036        0.019       16.389        5.049        0.095      339.038       12.097      864.760
04/26/2013  02:47:00      -19.635        6.449       -1.287       23.725       15.462        6.798      562.878      239.068       46.220        0.064        0.042       20.667        9.281        0.202      339.048       12.114      864.760
04/26/2013  02:48:00      -83.184      -21.681       -5.526       24.334       15.437       10.689      592.125      238.292      114.257        0.418        0.047       85.963       10.403        0.015      338.741       11.599      864.767
04/26/2013  02:49:00      -90.509      -54.100       -2.819       24.772       17.655       13.589      613.659      311.708      184.664        0.612        0.056      105.446       12.051        0.013      338.630       11.412      864.783
04/26/2013  02:50:00      -66.889      -43.894       -9.579       14.811       16.892       10.084      219.364      285.356      101.689        0.355        0.030       80.005        7.004        0.008      338.793       11.686      864.798
04/26/2013  02:51:00      -77.948      -25.649       -5.065       13.019       10.304       10.057      169.484      106.175      101.135        0.357        0.019       82.060        8.717        0.011      338.814       11.720      864.802
04/26/2013  02:52:00      -32.503      -24.565       -2.419       31.116       10.723        9.028      968.183      114.980       81.500        0.141        0.058       40.742        9.383        0.053      338.778       11.661      864.790
04/26/2013  02:53:00       -0.117      -31.086        4.097       19.556       12.188       13.499      382.428      148.539      182.217        0.085        0.036       31.086       13.638        0.192      338.984       12.007      864.785
04/26/2013  02:54:00      -61.093      -33.712       -3.436       29.955       16.131       13.187      897.286      260.213      173.889        0.311        0.067       69.777       11.007        0.025      339.055       12.127      864.797
04/26/2013  02:55:00      -81.349      -37.513        1.059       24.603       22.085       14.085      605.297      487.755      198.388        0.466        0.065       89.581       12.318        0.019      338.943       11.937      864.815
04/26/2013  02:56:00      -93.237      -27.199       -7.123       38.767       23.130       20.330     1502.910      535.018      413.307        0.597        0.123       97.123       20.486        0.044      338.805       11.706      864.835
04/26/2013  02:57:00     -115.678      -35.622       -9.508       17.220       20.945       12.043      296.527      438.688      145.025        0.781        0.044      121.038       10.107        0.007      338.731       11.582      864.838
04/26/2013  02:58:00     -102.333      -29.534        1.429       26.174       16.485       15.793      685.057      271.740      249.414        0.628        0.060      106.510       15.144        0.020      338.653       11.450      864.836
04/26/2013  02:59:00      -70.152      -24.537       -3.325       17.421       15.516       11.301      303.485      240.753      127.705        0.310        0.034       74.319        5.078        0.005      338.663       11.467      864.832
04/26/2013  03:00:00      -80.752      -13.039       -8.675       16.918       14.421       13.176      286.219      207.959      173.603        0.372        0.033       81.798        9.708        0.014      338.694       11.520      864.829
04/26/2013  03:01:00     -122.723      -36.254      -11.630       27.125       22.279       15.087      735.771      496.374      227.625        0.898        0.073      127.966       11.846        0.009      338.520       11.226      864.845
04/26/2013  03:02:00     -106.830      -41.034       -3.835       27.717       34.634       21.038      768.209     1199.545      442.587        0.776        0.121      114.439       14.049        0.015      338.363       10.965      864.858
04/26/2013  03:03:00      -66.899      -37.127       -2.401       34.557       24.374       14.751     1194.172      594.071      217.599        0.393        0.100       76.511       14.712        0.037      338.341       10.926      864.875
04/26/2013  03:04:00      -59.083      -37.030       -5.864       15.394       21.315       11.157      236.980      454.342      124.470        0.286        0.041       69.728        7.622        0.012      338.480       11.160      864.868
04/26/2013  03:05:00      -63.495      -13.074       -1.941       23.041       12.060       12.013      530.900      145.454      144.312        0.251        0.041       64.827       12.067        0.035      338.590       11.345      864.866
04/26/2013  03:06:00      -68.672      -18.950       -9.608       23.681       16.258       11.706      560.812      264.324      137.034        0.306        0.048       71.239       11.141        0.024      338.702       11.532      864.878
04/26/2013  03:07:00      -69.602      -23.562       -2.175       30.380       23.685       16.427      922.955      560.961      269.840        0.358        0.088       73.482       13.691        0.035      338.374       10.981      864.902
04/26/2013  03:08:00      -47.402       -9.741        2.606       34.200       27.102       21.943     1169.612      734.520      481.490        0.237        0.119       48.393       16.564        0.117      338.294       10.848      864.922
04/26/2013  03:09:00      -62.476       -6.968        9.696       45.905       32.000       25.794     2107.228     1023.995      665.348        0.392        0.190       62.864       23.629        0.141      338.336       10.918      864.938
04/26/2013  03:10:00      -71.038      -11.787        1.098       32.753       32.572       20.210     1072.738     1060.904      408.437        0.386        0.127       72.010       18.160        0.064      338.396       11.019      864.949
04/26/2013  03:11:00      -90.173      -32.348       -4.078       24.144       17.049       13.545      582.955      290.673      183.478        0.513        0.053       95.800        7.672        0.006      338.477       11.155      864.946
04/26/2013  03:12:00      -86.687       -8.323       -5.955       27.983       17.373       16.042      783.061      301.809      257.346        0.448        0.067       87.086       14.705        0.029      338.476       11.154      864.959
04/26/2013  03:13:00     -121.356      -19.952       -8.405       24.456       15.278       15.249      598.104      233.428      232.520        0.813        0.053      122.985       13.357        0.012      338.423       11.064      864.978
04/26/2013  03:14:00     -104.473      -11.013       -4.540       29.951       19.868       20.049      897.084      394.730      401.959        0.637        0.085      105.052       18.819        0.032      338.284       10.830      864.968
04/26/2013  03:15:00      -49.703      -18.402       -2.140       25.857       16.217        9.931      668.571      263.007       98.621        0.192        0.052       53.000       11.055        0.044      338.432       11.079      864.949
04/26/2013  03:16:00      -49.091      -10.683       -3.310       33.557       14.180       10.333     1126.057      201.071      106.770        0.198        0.072       50.240       11.224        0.050      338.479       11.158      864.958
04/26/2013  03:17:00      -69.974      -25.544       -7.734       18.713       17.963       15.045      350.159      322.664      226.348        0.325        0.045       74.491       11.475        0.024      338.439       11.090      864.972
04/26/2013  03:18:00      -40.107      -36.197        0.363       37.855       24.664       21.858     1433.000      608.309      477.752        0.272        0.126       54.026       20.960        0.151      338.381       10.995      864.980
04/26/2013  03:19:00      -61.996      -49.523       -1.714       38.540       29.579       20.638     1485.337      874.889      425.931        0.454        0.139       79.348       21.296        0.072      338.335       10.917      864.993
04/26/2013  03:20:00      -34.276      -50.556        0.351       31.131       18.109       16.258      969.116      327.918      264.331        0.265        0.078       61.080       18.477        0.092      338.290       10.841      865.001
04/26/2013  03:21:00      -58.473      -28.818       -8.553       31.258       15.112       12.960      977.074      228.360      167.965        0.285        0.069       65.189       16.701        0.066      338.290       10.842      865.002
04/26/2013  03:22:00      -86.156      -31.425      -11.451       15.778       16.218       10.240      248.943      263.020      104.849        0.458        0.031       91.708        7.700        0.007      338.249       10.772      865.006
04/26/2013  03:23:00      -20.056      -33.337       -2.429       22.408       13.245       10.975      502.111      175.442      120.452        0.116        0.040       38.905        9.844        0.064      338.261       10.793      865.009
04/26/2013  03:24:00       -6.506      -18.835       -5.529       12.985       12.472        9.487      168.612      155.540       89.995        0.042        0.021       19.927        6.508        0.107      338.358       10.954      865.005
04/26/2013  03:25:00      -29.784      -25.166       -5.188       20.974       10.729        7.885      439.923      115.118       62.181        0.108        0.031       38.992        8.378        0.046      338.439       11.090      865.019
04/26/2013  03:26:00      -90.401      -34.648      -13.654       11.021        9.654        8.002      121.472       93.192       64.036        0.492        0.014       96.813        4.499        0.002      338.366       10.967      865.040
04/26/2013  03:27:00      -78.494      -39.787       -9.703       17.210        9.664        8.479      296.188       93.388       71.892        0.415        0.023       88.002        4.972        0.003      338.358       10.956      865.056
04/26/2013  03:28:00      -57.751      -50.483       -8.153       18.461       19.846       10.912      340.796      393.853      119.065        0.340        0.043       76.706        8.722        0.013      338.433       11.083      865.073
04/26/2013  03:29:00      -68.814      -54.648       -2.776       30.079       24.606       15.648      904.722      605.468      244.875        0.474        0.088       87.874       11.645        0.018      338.403       11.030      865.095
04/26/2013  03:30:00      -51.067      -67.079       -3.571       25.545       21.447       14.248      652.543      459.954      203.014        0.422        0.066       84.306       13.767        0.027      338.413       11.046      865.125
04/26/2013  03:31:00      -29.287      -49.558        3.403       30.825       23.663       17.377      950.154      559.943      301.946        0.257        0.091       57.565       19.289        0.112      338.522       11.231      865.124
04/26/2013  03:32:00      -24.461      -44.044       -1.940       14.070       18.992       12.151      197.975      360.711      147.651        0.162        0.035       50.380        3.269        0.004      338.752       11.618      865.126
04/26/2013  03:33:00      -43.359      -33.647        1.247       24.737       26.637       16.173      611.920      709.528      261.555        0.230        0.079       54.883        8.367        0.023      338.740       11.596      865.142
04/26/2013  03:34:00      -93.551      -61.924        3.435       55.499       38.202       24.876     3080.184     1459.398      618.811        0.888        0.258      112.189       25.314        0.051      338.507       11.206      865.161
04/26/2013  03:35:00      -96.536      -73.535        4.634       57.647       35.043       28.631     3323.178     1228.027      819.732        1.006        0.269      121.353       30.327        0.062      338.348       10.938      865.164
04/26/2013  03:36:00      -96.755      -60.905       -7.529       57.043       41.307       25.652     3253.860     1706.280      658.040        0.937        0.281      114.328       28.166        0.061      338.307       10.869      865.164
04/26/2013  03:37:00      -34.035      -47.858       15.253       51.824       34.182       26.020     2685.714     1168.440      677.015        0.411        0.227       58.726       27.426        0.218      338.204       10.697      865.167
04/26/2013  03:38:00      -32.104      -38.711        5.984       36.388       30.363       19.221     1324.091      921.907      369.445        0.259        0.131       50.292       21.691        0.186      338.211       10.708      865.164
04/26/2013  03:39:00      -82.520      -86.420        1.948       53.622       43.918       29.053     2875.325     1928.763      844.081        0.996        0.282      119.490       27.847        0.054      338.367       10.969      865.152
04/26/2013  03:40:00     -100.658      -76.771        1.146       59.026       47.243       29.747     3484.107     2231.911      884.891        1.131        0.330      126.593       25.687        0.041      338.386       11.002      865.161
04/26/2013  03:41:00     -119.669      -69.030       -4.397       34.869       22.780       18.580     1215.852      518.918      345.216        1.059        0.104      138.152       13.624        0.010      338.272       10.811      865.187
04/26/2013  03:42:00     -100.152       -9.121       -0.206       48.412       25.595       21.838     2343.719      655.107      476.900        0.679        0.174      100.566       25.799        0.066      338.183       10.662      865.207
04/26/2013  03:43:00     -136.182       -4.488      -10.990       36.503       39.743       24.774     1332.435     1579.544      613.733        1.111        0.176      136.256       23.307        0.029      338.085       10.497      865.215
04/26/2013  03:44:00     -158.701        3.882      -15.234       38.103       35.442       21.347     1451.838     1256.121      455.685        1.430        0.158      158.748       22.126        0.019      337.947       10.265      865.222
04/26/2013  03:45:00     -130.191      -32.156       -6.242       41.295       37.128       24.733     1705.250     1378.498      611.704        1.086        0.185      134.103       25.951        0.037      338.001       10.355      865.253
04/26/2013  03:46:00     -144.807      -51.884       -7.843       37.897       33.035       19.105     1436.170     1091.330      364.996        1.331        0.145      153.821       15.743        0.010      338.053       10.443      865.259
04/26/2013  03:47:00     -113.283      -21.937      -13.483       28.213       18.290       13.200      795.967      334.530      174.243        0.740        0.065      115.388       12.651        0.012      337.923       10.226      865.262
04/26/2013  03:48:00      -85.748      -26.925       -0.957       25.490       31.866       16.815      649.734     1015.457      282.739        0.501        0.097       89.876       12.501        0.019      338.095       10.514      865.276
04/26/2013  03:49:00      -90.719       -3.140       -7.648       29.479       28.113       16.119      868.988      790.342      259.808        0.511        0.096       90.774       11.436        0.016      338.001       10.357      865.295
04/26/2013  03:50:00     -111.685      -12.352       -9.391       30.861       23.256       15.933      952.387      540.825      253.852        0.723        0.087      112.366       11.317        0.010      338.003       10.359      865.304
04/26/2013  03:51:00      -62.044      -52.078        5.783       32.879       25.410       17.762     1081.015      645.664      315.487        0.432        0.102       81.004       19.328        0.057      338.039       10.420      865.304
04/26/2013  03:52:00     -100.761      -47.087       -0.679       53.125       23.562       18.315     2822.314      555.188      335.432        0.804        0.186      111.221       27.738        0.062      337.838       10.083      865.314
04/26/2013  03:53:00     -141.904      -44.955       -9.120       14.987       13.726       10.593      224.597      188.391      112.204        1.138        0.026      148.855        9.162        0.004      337.735        9.910      865.337
04/26/2013  03:54:00     -138.431      -39.899       -9.881       22.317       22.191       13.903      498.062      492.439      193.306        1.102        0.059      144.066       12.070        0.007      337.780        9.984      865.358
04/26/2013  03:55:00     -101.199      -50.906       -6.446       21.336       23.463       14.988      455.217      550.520      224.634        0.705        0.062      113.281       10.857        0.009      337.756        9.945      865.373
04/26/2013  03:56:00      -88.850      -48.848        2.511       39.954       29.804       19.899     1596.337      888.280      395.980        0.658        0.144      101.393       20.922        0.043      337.876       10.146      865.388
04/26/2013  03:57:00      -56.941      -40.700       11.247       44.489       37.612       25.761     1979.301     1414.699      663.648        0.454        0.203       69.992       16.616        0.056      337.983       10.326      865.400
04/26/2013  03:58:00     -125.222      -67.237       -6.473       32.118       18.620       17.791     1031.597      346.706      316.504        1.097        0.085      142.132       16.380        0.013      338.134       10.580      865.408
04/26/2013  03:59:00     -100.939      -29.110       -5.725       25.006       26.175       14.430      625.287      685.149      208.219        0.629        0.076      105.053       10.097        0.009      337.927       10.232      865.416
04/26/2013  04:00:00      -95.791      -41.712       -9.547       23.039       19.249       16.145      530.788      370.540      260.671        0.608        0.058      104.478       12.415        0.014      338.032       10.408      865.406
04/26/2013  04:01:00      -95.230      -60.863        0.668       32.056       31.354       21.187     1027.615      983.062      448.908        0.762        0.123      113.018       19.150        0.029      338.039       10.420      865.402
04/26/2013  04:02:00     -131.464      -34.981       -7.703       18.835       22.571       15.519      354.769      509.468      240.834        0.984        0.055      136.039        8.672        0.004      337.961       10.290      865.414
04/26/2013  04:03:00     -114.166      -13.691       -1.872       36.938       22.294       21.452     1364.442      497.003      460.194        0.777        0.116      114.984       22.110        0.037      337.833       10.075      865.419
04/26/2013  04:04:00     -106.891      -37.897        3.641       32.195       21.770       15.534     1036.519      473.952      241.294        0.731        0.088      113.410       13.766        0.015      337.951       10.273      865.415
04/26/2013  04:05:00      -86.704      -23.544       -0.852       15.871       15.868       14.958      251.882      251.805      223.740        0.440        0.036       89.843        9.761        0.012      337.900       10.187      865.419
04/26/2013  04:06:00     -128.866      -36.521       -3.775       15.731       12.005        8.798      247.456      144.131       77.404        0.921        0.023      133.941        4.652        0.001      337.891       10.171      865.414
04/26/2013  04:07:00     -135.188      -55.457       -5.088       24.783       25.838       15.898      614.196      667.620      252.759        1.146        0.077      146.121       14.794        0.010      337.833       10.074      865.413
04/26/2013  04:08:00     -118.093      -61.764       -6.430       41.685       23.422       23.747     1737.609      548.595      563.901        1.033        0.143      133.270       20.116        0.023      337.564        9.622      865.427
04/26/2013  04:09:00     -166.227      -57.757      -15.872       27.399       31.782       16.448      750.693     1010.092      270.531        1.662        0.102      175.975       10.032        0.003      337.375        9.307      865.443
04/26/2013  04:10:00     -139.811      -51.833       -6.476       27.562       19.909       16.344      759.682      396.382      267.116        1.185        0.071      149.110       11.049        0.005      337.497        9.513      865.452
04/26/2013  04:11:00     -106.675      -20.750       -7.267       22.078       25.116       14.873      487.447      630.817      221.212        0.660        0.067      108.674       11.590        0.011      337.551        9.601      865.448
04/26/2013  04:12:00      -68.722      -26.268       -3.505       36.767       21.506       12.775     1351.833      462.527      163.211        0.370        0.099       73.571       13.723        0.035      337.562        9.620      865.452
04/26/2013  04:13:00      -95.730      -28.399       -2.916       27.703       20.037       17.059      767.445      401.478      291.017        0.572        0.073       99.854       16.368        0.027      337.472        9.470      865.457
04/26/2013  04:14:00     -120.968      -33.611       -5.946       17.143       16.268       13.276      293.885      264.664      176.249        0.827        0.037      125.551        7.639        0.004      337.551        9.600      865.456
04/26/2013  04:15:00     -115.947      -18.722       -8.143       26.820       21.913       17.572      719.286      480.164      308.764        0.768        0.075      117.449       15.575        0.018      337.465        9.456      865.470
04/26/2013  04:16:00     -129.956      -25.285      -10.382       28.138       28.187       19.885      791.719      794.503      395.415        0.981        0.099      132.393       17.541        0.018      337.443        9.420      865.479
04/26/2013  04:17:00      -90.553      -10.629       -6.241       36.323       36.299       21.811     1319.388     1317.606      475.714        0.573        0.156       91.175        7.301        0.006      337.330        9.231      865.474
04/26/2013  04:18:00      -75.818      -12.490      -12.665       24.249       24.788       16.396      588.018      614.438      268.812        0.377        0.074       76.839       12.216        0.025      337.374        9.305      865.478
04/26/2013  04:19:00      -79.968      -25.572      -11.017       23.374       27.572       11.524      546.359      760.189      132.812        0.430        0.072       83.957        7.701        0.008      337.461        9.450      865.498
04/26/2013  04:20:00      -75.342      -21.148       -0.270       27.555       29.177       15.601      759.274      851.289      243.377        0.399        0.093       78.254       15.340        0.038      337.364        9.287      865.528
04/26/2013  04:21:00      -66.244      -32.314      -12.971       37.293       34.118       16.689     1390.767     1164.064      278.531        0.422        0.142       73.705       14.836        0.041      337.455        9.441      865.553
04/26/2013  04:22:00     -104.822      -15.203       -6.227       35.834       40.470       21.341     1284.088     1637.787      455.428        0.732        0.169      105.919       19.232        0.033      337.415        9.376      865.567
04/26/2013  04:23:00      -77.964      -16.006        0.781       34.573       32.600       20.253     1195.305     1062.762      410.192        0.450        0.133       79.590       19.046        0.057      337.379        9.314      865.578
04/26/2013  04:24:00     -158.212       36.958      -13.162       42.657       34.119       22.803     1819.652     1164.096      519.968        1.504        0.175      162.471       20.552        0.016      337.346        9.258      865.586
04/26/2013  04:25:00     -121.792        8.160      -13.974       36.820       37.310       17.686     1355.745     1392.053      312.795        0.908        0.153      122.065       10.259        0.007      337.454        9.439      865.593
04/26/2013  04:26:00      -79.252      -16.523      -10.200       40.446       28.837       17.028     1635.860      831.574      289.942        0.471        0.138       80.956       14.460        0.032      337.542        9.586      865.600
04/26/2013  04:27:00     -126.040      -59.198       -9.135       32.004       25.533       20.943     1024.282      651.946      438.628        1.079        0.106      139.250       13.227        0.009      337.527        9.560      865.611
04/26/2013  04:28:00     -128.857      -49.838       -6.372       28.230       25.180       21.527      796.949      634.037      463.406        1.051        0.095      138.159       17.876        0.017      337.367        9.293      865.619
04/26/2013  04:29:00     -113.524      -45.610       -7.948       32.670       29.901       18.553     1067.311      894.078      344.209        0.867        0.115      122.344       17.857        0.021      337.469        9.462      865.629
04/26/2013  04:30:00      -88.016      -21.282       -9.120       33.220       26.242       22.411     1103.541      688.668      502.238        0.529        0.115       90.552       18.001        0.040      337.343        9.252      865.626
04/26/2013  04:31:00     -105.711       -3.096       -5.090       37.178       28.248       21.952     1382.171      797.942      481.877        0.694        0.133      105.757       19.340        0.033      337.351        9.267      865.619
04/26/2013  04:32:00      -96.217      -10.823       -8.371       35.895       37.033       25.836     1288.446     1371.454      667.490        0.639        0.166       96.824       25.752        0.071      337.334        9.239      865.620
04/26/2013  04:33:00     -104.078       -4.442       -6.547       43.515       28.818       23.773     1893.563      830.455      565.149        0.709        0.164      104.172       23.967        0.053      337.371        9.300      865.617
04/26/2013  04:34:00     -128.551       13.520       -8.255       46.981       29.556       24.209     2207.200      873.555      586.082        1.022        0.183      129.260       24.047        0.035      337.498        9.512      865.602
04/26/2013  04:35:00     -140.226        7.879      -14.114       52.944       37.399       27.311     2803.100     1398.657      745.890        1.244        0.247      140.447       26.779        0.036      337.469        9.463      865.596
04/26/2013  04:36:00     -141.834       26.167       -7.855       57.007       41.417       28.133     3249.837     1715.400      791.459        1.331        0.288      144.228       22.930        0.025      337.499        9.515      865.599
04/26/2013  04:37:00     -126.709       -0.288       -4.422       44.746       42.850       22.792     2002.219     1836.142      519.473        1.022        0.218      126.709       17.584        0.019      337.439        9.412      865.592
04/26/2013  04:38:00      -79.694       -8.214        4.368       46.596       32.248       26.058     2171.183     1039.958      679.022        0.516        0.195       80.116       27.514        0.118      337.374        9.305      865.587
04/26/2013  04:39:00      -78.169      -33.245        4.762       39.143       34.046       20.503     1532.213     1159.105      420.382        0.517        0.156       84.945       16.288        0.037      337.398        9.346      865.603
04/26/2013  04:40:00     -122.242      -14.255       -5.327       43.511       35.696       27.203     1893.188     1274.211      739.989        0.954        0.195      123.070       27.095        0.048      337.411        9.366      865.603
04/26/2013  04:41:00     -162.478       33.063      -11.724       61.311       32.154       29.644     3759.015     1033.870      878.789        1.665        0.284      165.808       28.011        0.029      337.431        9.399      865.607
04/26/2013  04:42:00     -164.439       41.190      -13.818       45.796       32.387       21.215     2097.313     1048.920      450.059        1.626        0.180      169.520       15.820        0.009      337.424        9.388      865.616
04/26/2013  04:43:00     -105.147       -9.269       -7.510       45.520       48.977       21.386     2072.115     2398.726      457.359        0.806        0.246      105.554       18.328        0.030      337.385        9.323      865.608
04/26/2013  04:44:00     -123.305      -54.440       -6.493       42.115       31.616       20.630     1773.683      999.558      425.606        1.070        0.160      134.788        7.065        0.003      337.277        9.143      865.607
04/26/2013  04:45:00     -145.737      -36.892       -2.700       34.047       43.641       20.318     1159.203     1904.538      412.811        1.304        0.174      150.334       15.224        0.010      337.182        8.984      865.623
04/26/2013  04:46:00     -124.324      -60.430       -5.464       57.236       45.975       26.500     3275.981     2113.695      702.229        1.261        0.305      138.233       26.993        0.038      337.136        8.907      865.621
04/26/2013  04:47:00     -136.541        4.417      -11.635       51.405       29.502       26.157     2642.494      870.366      684.193        1.150        0.210      136.613       25.981        0.036      337.097        8.841      865.621
04/26/2013  04:48:00     -110.442      -20.223       -4.536       51.160       34.781       23.983     2617.331     1209.708      575.181        0.851        0.220      112.279       19.875        0.031      337.106        8.854      865.632
04/26/2013  04:49:00      -95.524      -36.493       -4.456       44.171       36.723       23.127     1951.068     1348.559      534.868        0.715        0.192      102.257       25.456        0.062      337.174        8.970      865.641
04/26/2013  04:50:00     -103.887      -19.831       -3.566       37.699       29.631       18.915     1421.187      877.978      357.782        0.693        0.133      105.762       21.634        0.042      337.169        8.961      865.643
04/26/2013  04:51:00     -129.193      -14.721       -5.042       35.436       26.535       21.047     1255.699      704.089      442.975        0.967        0.120      130.029       23.975        0.034      337.221        9.048      865.649
04/26/2013  04:52:00     -130.679      -25.830       -3.514       44.483       40.821       21.674     1978.757     1666.327      469.742        1.093        0.206      133.207       23.526        0.031      337.302        9.185      865.653
04/26/2013  04:53:00     -175.944      -50.301       -8.063       18.602       20.576       13.997      346.045      423.366      195.922        1.726        0.048      182.993        9.022        0.002      337.384        9.321      865.660
04/26/2013  04:54:00     -136.165      -31.092       -7.323       40.225       25.283       20.159     1618.079      639.228      406.375        1.111        0.133      139.670       19.131        0.019      337.407        9.362      865.682
04/26/2013  04:55:00     -143.837      -56.586       -2.687       34.959       38.965       21.443     1222.166     1518.234      459.783        1.355        0.160      154.567       17.320        0.013      337.373        9.302      865.691
04/26/2013  04:56:00     -152.870      -46.047       -6.410       32.750       35.399       22.871     1072.534     1253.087      523.105        1.419        0.142      159.655       20.116        0.016      337.335        9.240      865.682
04/26/2013  04:57:00     -131.181      -30.437        0.520       52.314       38.102       23.524     2736.769     1451.731      553.388        1.144        0.237      134.666       24.996        0.034      337.133        8.901      865.685
04/26/2013  04:58:00     -136.347      -18.206      -13.256       41.628       28.641       23.619     1732.861      820.284      557.880        1.110        0.156      137.557       23.281        0.029      337.152        8.932      865.683
04/26/2013  04:59:00     -103.512       -7.325       -7.696       46.307       28.665       20.893     2144.341      821.660      436.523        0.711        0.170      103.771       24.866        0.057      337.104        8.852      865.676
04/26/2013  05:00:00     -114.351      -26.785       -8.443       37.349       27.464       19.228     1394.976      754.292      369.726        0.819        0.126      117.446       16.601        0.020      337.062        8.781      865.675
04/26/2013  05:01:00     -126.421      -18.258       -5.629       47.847       31.989       21.887     2289.335     1023.275      479.035        1.007        0.190      127.733       24.681        0.037      337.123        8.884      865.676
04/26/2013  05:02:00     -139.837      -19.240       -9.727       36.861       27.313       19.620     1358.745      746.007      384.929        1.125        0.124      141.155       14.103        0.010      337.116        8.873      865.668
04/26/2013  05:03:00     -142.892       -8.139       -3.848       54.822       35.736       32.043     3005.404     1277.041     1026.782        1.290        0.265      143.124       35.149        0.060      337.218        9.044      865.669
04/26/2013  05:04:00     -153.525        9.192      -10.521       47.516       24.742       22.705     2257.791      612.182      515.511        1.357        0.169      153.800       23.614        0.024      337.227        9.059      865.679
04/26/2013  05:05:00     -127.242        8.705      -11.673       46.103       25.764       21.800     2125.484      663.776      475.239        0.983        0.163      127.540       23.306        0.033      337.146        8.923      865.674
04/26/2013  05:06:00     -105.814       -9.517       -3.899       44.387       24.197       20.153     1970.220      585.482      406.138        0.713        0.148      106.241       21.461        0.041      337.069        8.792      865.676
04/26/2013  05:07:00     -118.854       -8.869      -11.003       14.248       13.473       11.279      203.005      181.528      127.222        0.742        0.026      119.185        6.210        0.003      337.138        8.909      865.693
04/26/2013  05:08:00     -103.289      -14.928       -8.763       24.462       15.791       13.041      598.379      249.359      170.073        0.599        0.051      104.363       12.251        0.014      337.061        8.781      865.692
04/26/2013  05:09:00     -124.908      -17.341       -6.924       26.609       17.316       12.245      708.040      299.832      149.941        0.855        0.058      126.106       12.528        0.010      337.150        8.930      865.693
04/26/2013  05:10:00     -131.585      -20.716       -6.154       29.343       25.852       20.570      860.994      668.308      423.143        0.987        0.098      133.205       16.654        0.016      337.277        9.143      865.690
04/26/2013  05:11:00     -112.035      -19.139       -4.410       39.559       25.100       17.485     1564.931      629.995      305.710        0.772        0.125      113.658       14.998        0.017      337.244        9.088      865.693
04/26/2013  05:12:00     -156.747        0.034       -8.797       39.319       27.908       20.458     1546.005      778.875      418.535        1.369        0.137      156.747       20.048        0.016      337.419        9.379      865.685
04/26/2013  05:13:00     -149.293       10.464      -11.497       35.029       31.763       19.695     1227.024     1008.912      387.881        1.258        0.131      149.659       16.359        0.012      337.398        9.345      865.675
04/26/2013  05:14:00     -100.813       -3.370       -4.312       30.942       29.164       19.528      957.380      850.553      381.350        0.619        0.109      100.870       11.863        0.014      337.346        9.257      865.662
04/26/2013  05:15:00      -87.448      -20.934       -0.779       31.580       31.137       21.205      997.299      969.534      449.648        0.525        0.121       89.919       18.888        0.044      337.327        9.227      865.644
04/26/2013  05:16:00     -135.055      -18.698      -17.254       21.807       24.048       16.198      475.538      578.320      262.391        1.010        0.066      136.343        7.584        0.003      337.326        9.225      865.651
04/26/2013  05:17:00     -135.209      -66.170       -4.214       36.165       33.377       25.349     1307.908     1114.048      642.585        1.287        0.153      150.532       23.084        0.024      337.138        8.909      865.654
04/26/2013  05:18:00      -56.751      -51.305       13.147       59.939       29.393       28.004     3592.633      863.925      784.222        0.563        0.262       76.504       34.082        0.198      337.166        8.958      865.642
04/26/2013  05:19:00      -29.016      -70.144       10.256       41.801       43.809       30.914     1747.333     1919.265      955.692        0.524        0.231       75.908       30.665        0.163      337.406        9.357      865.633
04/26/2013  05:20:00      -71.277      -96.539       -4.302       37.075       24.185       15.679     1374.548      584.918      245.832        0.831        0.110      120.001       11.298        0.009      337.601        9.687      865.645
04/26/2013  05:21:00     -111.163     -109.424       -7.980       36.288       38.578       22.264     1316.824     1488.232      495.682        1.385        0.165      155.983       13.806        0.008      337.477        9.479      865.672
04/26/2013  05:22:00      -91.076      -50.754       -7.976       49.048       23.134       24.553     2405.700      535.197      602.854        0.724        0.177      104.263       24.223        0.054      337.452        9.436      865.698
04/26/2013  05:23:00      -57.119      -37.856        7.720       43.001       29.631       24.185     1849.065      878.001      584.931        0.403        0.166       68.525       18.042        0.069      337.449        9.432      865.720
04/26/2013  05:24:00      -75.004      -87.203       -1.848       38.691       35.793       27.710     1496.997     1281.123      767.838        0.839        0.177      115.022       26.870        0.055      337.394        9.339      865.739
04/26/2013  05:25:00      -13.911      -93.777       -2.566       33.992       26.650       23.030     1155.486      710.222      530.380        0.569        0.120       94.803       17.501        0.034      337.446        9.425      865.740
04/26/2013  05:26:00      -29.042      -75.120       -4.832       38.698       34.592       25.710     1497.512     1196.618      660.988        0.493        0.168       80.538       21.604        0.072      337.538        9.579      865.733
04/26/2013  05:27:00      -76.701      -94.018      -11.669       72.926       42.537       24.580     5318.218     1809.405      604.192        1.129        0.387      121.336       21.039        0.030      337.691        9.836      865.743
04/26/2013  05:28:00     -119.230      -85.053       -2.174       48.919       48.475       27.101     2393.106     2349.820      734.490        1.346        0.274      146.457       29.055        0.039      337.626        9.725      865.760
04/26/2013  05:29:00     -151.560     -100.629      -12.262       41.329       51.006       32.667     1708.107     2601.627     1067.101        1.931        0.269      181.925       25.406        0.020      337.405        9.356      865.771
04/26/2013  05:30:00     -111.485      -92.978       -2.700       51.940       45.857       28.576     2697.770     2102.820      816.574        1.335        0.281      145.168       25.676        0.031      337.275        9.140      865.774
04/26/2013  05:31:00      -83.643      -85.450        2.748       42.388       39.944       26.251     1796.735     1595.555      689.135        0.919        0.204      119.573       23.974        0.040      337.201        9.015      865.777
04/26/2013  05:32:00     -122.306     -111.807       -7.416       46.133       31.768       27.963     2128.223     1009.224      781.923        1.572        0.196      165.709       20.763        0.016      337.277        9.141      865.791
04/26/2013  05:33:00     -103.781      -79.953        1.340       63.523       37.353       30.460     4035.140     1395.276      927.834        1.176        0.318      131.007       26.558        0.041      337.296        9.175      865.824
04/26/2013  05:34:00      -86.434      -60.958        9.317       60.444       43.350       33.436     3653.535     1879.189     1117.985        0.896        0.333      105.767       18.776        0.032      337.284        9.155      865.843
04/26/2013  05:35:00     -115.701      -76.076        1.432       60.892       51.178       26.822     3707.798     2619.183      719.431        1.311        0.352      138.472       26.788        0.037      337.238        9.076      865.863
04/26/2013  05:36:00      -99.380      -57.394       -2.340       52.089       39.678       21.764     2713.269     1574.334      473.663        0.897        0.238      114.762       16.012        0.019      337.158        8.943      865.883
04/26/2013  05:37:00      -61.158      -34.550       -6.258       28.271       35.703       22.514      799.235     1274.736      506.902        0.378        0.129       70.242       17.635        0.063      337.078        8.809      865.906
04/26/2013  05:38:00      -72.388      -14.428      -10.976       25.377       11.961       10.463      643.991      143.069      109.474        0.323        0.045       73.812        4.653        0.004      337.141        8.913      865.911
04/26/2013  05:39:00      -18.142      -41.569       -6.021       15.606       23.356       11.845      243.555      545.507      140.299        0.151        0.046       45.355       11.539        0.065      337.227        9.060      865.907
04/26/2013  05:40:00      -76.034      -36.914       -8.406       31.455       25.830        9.801      989.415      667.177       96.067        0.448        0.088       84.521        4.306        0.003      337.185        8.989      865.932
04/26/2013  05:41:00      -87.412      -21.288       -4.635       27.626       19.959       14.602      763.177      398.364      213.221        0.474        0.069       89.967       15.073        0.028      337.026        8.721      865.954
04/26/2013  05:42:00      -25.987      -35.585       10.741       43.504       21.464       15.534     1892.606      460.685      241.319        0.233        0.130       44.064       21.741        0.243      337.104        8.852      865.978
04/26/2013  05:43:00        3.579      -34.106        5.472        9.301       10.892       10.866       86.518      118.642      118.070        0.076        0.016       34.293        4.964        0.021      337.210        9.030      866.010
04/26/2013  05:44:00      -25.859       -7.578        0.582       28.426        7.367        8.608      808.061       54.275       74.103        0.083        0.047       26.946        8.885        0.109      337.206        9.024      866.044
04/26/2013  05:45:00      -38.177      -18.656        2.120       22.849       19.930       13.241      522.093      397.213      175.332        0.145        0.055       42.491       10.959        0.067      337.088        8.824      866.079
04/26/2013  05:46:00      -43.372      -14.497        0.836       21.259       18.417       14.377      451.933      339.174      206.700        0.154        0.050       45.731        9.518        0.043      336.950        8.595      866.101
04/26/2013  05:47:00      -59.407      -23.981       -1.278       18.972       21.579       14.117      359.954      465.648      199.297        0.257        0.051       64.064       12.398        0.037      336.933        8.565      866.106
04/26/2013  05:48:00      -49.472      -30.332       -4.223       13.868       20.178       11.171      192.324      407.153      124.787        0.205        0.036       58.030        6.774        0.014      337.025        8.719      866.103
04/26/2013  05:49:00      -70.785      -26.078       -7.396       13.570       15.408       10.372      184.132      237.403      107.585        0.314        0.026       75.436        5.136        0.005      337.072        8.797      866.108
04/26/2013  05:50:00      -37.435      -55.525        3.777       25.138       35.399       11.436      631.913     1253.091      130.772        0.326        0.101       66.966        8.437        0.016      337.010        8.693      866.116
04/26/2013  05:51:00      -57.225      -50.703       -0.328       34.918       45.894       24.213     1219.242     2106.292      586.267        0.488        0.196       76.456       20.980        0.075      337.101        8.845      866.116
04/26/2013  05:52:00      -96.230      -67.312        4.910       46.771       30.822       24.477     2187.519      949.995      599.106        0.878        0.187      117.436       18.805        0.026      337.094        8.835      866.131
04/26/2013  05:53:00     -100.585      -98.927       -0.209       47.255       50.524       28.521     2232.990     2552.643      813.427        1.275        0.280      141.081       26.202        0.034      337.045        8.753      866.151
04/26/2013  05:54:00      -77.060      -83.563        6.918       55.870       56.408       27.734     3121.412     3181.876      769.149        1.002        0.354      113.671       20.784        0.033      337.056        8.770      866.178
04/26/2013  05:55:00      -60.945      -60.041       -0.917       53.926       31.501       26.530     2907.978      992.283      703.818        0.596        0.230       85.553       24.587        0.083      337.079        8.808      866.200
04/26/2013  05:56:00      -81.801      -56.393       -7.266       43.146       24.385       16.255     1861.574      594.626      264.235        0.632        0.136       99.356       16.284        0.027      337.017        8.708      866.214
04/26/2013  05:57:00      -86.039      -76.909      -10.791       42.040       38.534       25.911     1767.401     1484.898      671.398        0.868        0.196      115.402       25.568        0.049      336.990        8.661      866.220
04/26/2013  05:58:00      -73.071      -55.880        4.766       49.020       32.181       20.811     2402.921     1035.585      433.088        0.618        0.194       91.989       20.531        0.050      336.948        8.590      866.243
04/26/2013  05:59:00      -57.119      -42.098       -0.754       52.542       35.383       21.645     2760.642     1251.926      468.496        0.476        0.224       70.957       21.636        0.093      336.972        8.630      866.254
04/26/2013  06:00:00      -92.906      -84.521       -0.310       42.733       28.325       21.612     1826.100      802.294      467.099        0.943        0.155      125.599       17.609        0.020      336.974        8.635      866.265
04/26/2013  06:01:00      -68.419      -84.379        3.610       45.580       35.088       26.676     2077.547     1231.138      711.625        0.792        0.201      108.633       25.178        0.054      336.979        8.642      866.269
04/26/2013  06:02:00      -96.360      -52.051        3.215       44.129       45.406       25.334     1947.389     2061.665      641.832        0.833        0.233      109.520       23.412        0.046      336.968        8.625      866.290
04/26/2013  06:03:00     -117.062      -30.745       -4.875       32.814       26.584       19.810     1076.758      706.710      392.449        0.842        0.109      121.032       17.274        0.020      336.897        8.506      866.317
04/26/2013  06:04:00     -147.945      -37.322       -5.572       25.688       24.940       18.785      659.865      621.984      352.866        1.247        0.082      152.580       14.451        0.009      336.892        8.499      866.338
04/26/2013  06:05:00     -123.595      -42.325       -8.470       29.855       35.192       21.530      891.324     1238.507      463.553        0.987        0.130      130.641       13.178        0.010      336.848        8.424      866.354
04/26/2013  06:06:00     -107.551      -36.024        0.692       42.073       42.158       23.274     1770.129     1777.310      541.657        0.848        0.204      113.424       21.448        0.036      336.848        8.424      866.374
04/26/2013  06:07:00     -111.888      -65.163      -10.782       29.797       30.318       18.793      887.890      919.180      353.181        0.952        0.108      129.480       15.351        0.014      336.884        8.483      866.383
04/26/2013  06:08:00      -96.401      -61.998        1.260       39.265       36.330       22.326     1541.722     1319.870      498.432        0.825        0.168      114.616       23.490        0.042      336.872        8.466      866.379
04/26/2013  06:09:00     -148.718      -82.273       -8.355       26.448       25.418       17.914      699.483      646.076      320.922        1.531        0.083      169.958       13.030        0.006      336.864        8.452      866.371
04/26/2013  06:10:00     -117.354      -69.852        0.657       39.094       26.433       21.869     1528.349      698.687      478.232        1.068        0.135      136.569       18.692        0.019      336.815        8.369      866.376
04/26/2013  06:11:00     -162.371      -23.157      -11.799       25.496       23.702       15.211      650.038      561.764      231.382        1.424        0.072      164.014       11.645        0.005      336.828        8.391      866.383
04/26/2013  06:12:00     -181.259      -28.350      -14.439       34.205       37.361       21.538     1169.969     1395.813      463.871        1.845        0.151      183.462       16.516        0.008      336.737        8.240      866.386
04/26/2013  06:13:00     -126.935      -47.554        0.652       59.416       40.966       30.736     3530.271     1678.246      944.721        1.226        0.308      135.550       25.435        0.035      336.710        8.196      866.399
04/26/2013  06:14:00      -70.188      -13.166        5.508       61.766       36.607       25.124     3815.035     1340.070      631.238        0.546        0.289       71.412       30.002        0.177      336.586        7.989      866.403
04/26/2013  06:15:00     -107.571      -16.509       -5.539       51.154       32.859       21.445     2616.773     1079.731      459.867        0.801        0.208      108.831       18.789        0.030      336.697        8.175      866.416
04/26/2013  06:16:00      -90.686      -65.946       -6.759       56.548       29.919       23.779     3197.664      895.161      565.425        0.864        0.233      112.129       22.466        0.040      336.600        8.013      866.443
04/26/2013  06:17:00      -56.410      -80.832        3.290       33.206       32.460       22.428     1102.661     1053.634      503.015        0.619        0.133       98.570       21.189        0.046      336.584        7.986      866.462
04/26/2013  06:18:00      -54.557      -21.109        1.512       32.320       28.585       21.076     1044.580      817.121      444.180        0.286        0.115       58.498       17.802        0.093      336.739        8.243      866.466
04/26/2013  06:19:00     -138.762      -22.121      -19.869       36.713       21.574       18.133     1347.865      465.437      328.798        1.114        0.107      140.514       19.188        0.019      336.689        8.161      866.471
04/26/2013  06:20:00     -118.070      -37.949       -9.852       19.827       20.231       12.159      393.127      409.277      147.842        0.821        0.048      124.019       11.530        0.009      336.595        8.004      866.488
04/26/2013  06:21:00      -82.044      -45.546       -5.190       46.596       30.788       18.404     2171.188      947.873      338.714        0.614        0.173       93.839       18.525        0.039      336.674        8.136      866.505
04/26/2013  06:22:00     -117.652      -62.770       -1.471       42.672       18.663       16.129     1820.902      348.303      260.141        1.011        0.121      133.349       18.018        0.018      336.704        8.185      866.514
04/26/2013  06:23:00      -82.168      -47.525        3.971       32.722       20.884       14.688     1070.722      436.129      215.746        0.537        0.086       94.922       11.149        0.014      336.741        8.247      866.525
04/26/2013  06:24:00      -71.467      -40.847        1.480       43.269       28.484       19.372     1872.232      811.366      375.259        0.492        0.153       82.317       21.377        0.067      336.807        8.357      866.535
04/26/2013  06:25:00      -63.850      -42.461       -6.993       41.242       23.892       19.932     1700.940      570.827      397.287        0.430        0.133       76.680       15.012        0.038      336.861        8.446      866.534
04/26/2013  06:26:00      -98.195      -68.602       -4.192       27.698       17.418       11.862      767.160      303.372      140.708        0.779        0.061      119.785        7.797        0.004      336.851        8.430      866.559
04/26/2013  06:27:00      -38.591      -35.317        5.462       36.097       21.667       17.233     1302.999      469.449      296.979        0.242        0.103       52.312       13.921        0.071      336.891        8.498      866.559
04/26/2013  06:28:00      -40.086      -36.308       -2.211       31.278       20.811       12.938      978.340      433.117      167.396        0.225        0.079       54.085       12.472        0.053      336.930        8.562      866.569
04/26/2013  06:29:00      -49.349      -29.615        3.182       33.448       22.519       16.977     1118.769      507.123      288.220        0.262        0.096       57.553       16.211        0.079      336.985        8.652      866.571
04/26/2013  06:30:00      -68.282      -38.283        1.130       34.473       19.869       15.514     1188.360      394.775      240.678        0.398        0.091       78.282       15.840        0.041      336.961        8.612      866.586
04/26/2013  06:31:00      -87.535      -49.110        3.366       34.498       22.175       17.519     1190.131      491.753      306.912        0.604        0.099      100.370       16.227        0.026      337.033        8.733      866.587
04/26/2013  06:32:00      -58.928      -42.472        9.549       50.063       28.371       22.380     2506.331      804.888      500.849        0.459        0.191       72.639       25.767        0.126      337.004        8.684      866.600
04/26/2013  06:33:00      -32.680      -34.008        6.749       39.546       28.861       21.946     1563.871      832.985      481.613        0.257        0.144       47.165       23.164        0.241      336.962        8.613      866.608
04/26/2013  06:34:00      -77.489      -80.617        3.606       42.246       44.951       25.374     1784.693     2020.605      643.837        0.848        0.222      111.820       23.504        0.044      336.994        8.667      866.620
04/26/2013  06:35:00      -93.052      -92.873        1.369       38.674       39.391       27.333     1495.640     1551.646      747.108        1.054        0.190      131.469       21.382        0.026      337.016        8.703      866.638
04/26/2013  06:36:00     -121.559     -108.565       -7.268       33.927       32.446       26.525     1151.034     1052.759      703.594        1.476        0.145      162.981       17.773        0.012      337.025        8.720      866.648
04/26/2013  06:37:00     -112.869     -109.897      -12.388       43.288       44.137       32.012     1873.885     1948.075     1024.762        1.491        0.242      157.534       21.220        0.018      336.964        8.617      866.663
04/26/2013  06:38:00     -100.329     -128.730       -8.061       55.358       42.594       26.249     3064.465     1814.279      688.998        1.613        0.278      163.210       29.641        0.033      337.001        8.679      866.676
04/26/2013  06:39:00     -145.170     -103.679       -8.240       38.233       35.946       27.470     1461.797     1292.140      754.616        1.770        0.175      178.392       19.477        0.012      336.913        8.531      866.684
04/26/2013  06:40:00      -92.023     -114.233       -7.867       39.992       29.842       22.912     1599.385      890.517      524.947        1.230        0.151      146.689       19.661        0.018      337.010        8.694      866.703
04/26/2013  06:41:00      -70.525      -67.243       -9.426       20.829       19.509       13.369      433.837      380.604      178.718        0.529        0.050       97.444        6.179        0.004      337.103        8.850      866.703
04/26/2013  06:42:00      -43.787      -69.374        4.045       38.860       26.862       20.238     1510.118      721.578      409.577        0.469        0.132       82.037       15.025        0.034      337.140        8.914      866.722
04/26/2013  06:43:00      -71.513     -109.546       -3.706       30.057       41.289       21.351      903.436     1704.764      455.847        1.010        0.153      130.822       16.785        0.016      337.091        8.831      866.730
04/26/2013  06:44:00      -83.182      -69.854       -7.945       60.440       45.708       30.408     3652.974     2089.245      924.624        0.926        0.333      108.622       28.413        0.068      337.025        8.719      866.748
04/26/2013  06:45:00      -63.758      -85.464        4.082       76.667       43.383       36.335     5877.787     1882.076     1320.239        1.023        0.454      106.626       35.907        0.113      337.026        8.720      866.760
04/26/2013  06:46:00      -59.237      -62.314       12.261       64.831       50.695       35.524     4203.027     2570.025     1261.964        0.779        0.402       85.977       32.387        0.142      336.943        8.582      866.775
04/26/2013  06:47:00      -39.706      -42.315       22.571       91.252       50.517       35.718     8326.959     2552.008     1275.794        0.801        0.608       58.027       39.335        0.460      336.928        8.558      866.776
04/26/2013  06:48:00      -92.610      -77.070        9.892       91.861       61.093       38.711     8438.390     3732.341     1498.535        1.414        0.683      120.484       38.055        0.100      336.861        8.445      866.780
04/26/2013  06:49:00      -64.096      -42.157       24.624       92.486       44.583       41.014     8553.712     1987.643     1682.115        0.936        0.611       76.717       39.463        0.265      336.901        8.513      866.787
04/26/2013  06:50:00     -127.655      -67.047       10.927      101.976       70.724       43.976    10399.150     5001.868     1933.880        1.912        0.867      144.191       53.616        0.138      336.904        8.517      866.787
04/26/2013  06:51:00     -144.575     -127.106       -3.285       71.682       59.251       40.511     5138.254     3510.724     1641.175        2.368        0.515      192.504       41.921        0.047      336.864        8.448      866.802
04/26/2013  06:52:00     -121.843      -83.927       -4.050       78.543       61.499       41.883     6169.038     3782.067     1754.175        1.680        0.585      147.951       37.266        0.063      336.882        8.479      866.805
04/26/2013  06:53:00      -76.939      -57.790       16.961       80.746       52.068       38.212     6519.962     2711.124     1460.174        1.012        0.535       96.226       37.617        0.153      336.919        8.542      866.824
04/26/2013  06:54:00     -114.332      -79.524       -6.951       72.554       48.452       28.603     5264.035     2347.643      818.155        1.394        0.421      139.269       34.067        0.060      336.909        8.527      866.834
04/26/2013  06:55:00     -126.500     -104.096       -4.821       40.871       39.201       28.826     1670.412     1536.723      830.965        1.545        0.202      163.824       19.505        0.014      336.959        8.609      866.863
04/26/2013  06:56:00     -133.933     -106.958       -9.664       47.924       39.855       25.113     2296.664     1588.421      630.641        1.699        0.226      171.400       21.965        0.016      336.929        8.559      866.874
04/26/2013  06:57:00     -105.975      -99.944      -12.765       39.873       37.866       28.131     1589.886     1433.846      791.330        1.260        0.191      145.669       20.825        0.020      336.976        8.639      866.901
04/26/2013  06:58:00      -83.836     -115.801       -2.747       46.236       38.860       31.826     2137.784     1510.119     1012.864        1.255        0.233      142.963       29.337        0.042      337.007        8.689      866.914
04/26/2013  06:59:00      -56.719      -62.943        4.246       48.510       41.290       28.628     2353.258     1704.899      819.558        0.604        0.244       84.728       19.063        0.051      337.060        8.778      866.931
04/26/2013  07:00:00      -58.798      -81.141       -3.950       36.915       37.269       25.168     1362.737     1388.978      633.443        0.672        0.169      100.205       17.186        0.029      337.072        8.800      866.957
04/26/2013  07:01:00     -112.610     -123.351      -15.949       41.237       40.453       23.607     1700.495     1636.464      557.300        1.602        0.195      167.022       21.332        0.016      337.020        8.710      866.964
04/26/2013  07:02:00     -107.740     -118.226      -11.639       43.750       50.136       22.978     1914.099     2513.601      527.972        1.534        0.248      159.954       19.134        0.014      337.011        8.697      866.987
04/26/2013  07:03:00      -95.044     -115.961      -12.554       25.224       44.410       19.962      636.270     1972.242      398.465        1.282        0.150      149.935       12.228        0.007      337.009        8.693      867.006
04/26/2013  07:04:00     -109.700      -94.512      -13.281       37.341       39.881       22.997     1394.361     1590.534      528.876        1.233        0.176      144.799       21.581        0.022      337.028        8.726      867.016
04/26/2013  07:05:00      -79.921      -75.749        2.641       25.701       30.034       21.715      660.523      902.057      471.561        0.708        0.102      110.115       13.689        0.015      337.057        8.772      867.031
04/26/2013  07:06:00      -73.279      -65.314       -7.102       13.720       21.342       11.177      188.232      455.487      124.927        0.523        0.038       98.161        6.205        0.004      337.175        8.971      867.045
04/26/2013  07:07:00      -48.812      -26.717       -7.257       15.567       19.918        8.733      242.326      396.726       76.258        0.193        0.036       55.646        6.358        0.013      337.233        9.069      867.056
04/26/2013  07:08:00      -58.989       -3.193       -0.992       18.026       14.400       10.376      324.923      207.356      107.665        0.207        0.032       59.076        9.236        0.024      337.333        9.237      867.071
04/26/2013  07:09:00       -7.479      -29.801       -3.135       16.451       25.700       11.663      270.628      660.494      136.031        0.101        0.053       30.725        6.636        0.047      337.425        9.389      867.091
04/26/2013  07:10:00      -12.913      -23.521        4.870       20.902       19.029       12.681      436.888      362.098      160.814        0.085        0.048       26.833       13.587        0.256      337.548        9.595      867.121
04/26/2013  07:11:00      -22.312      -34.499        0.384       21.580       19.129       19.660      465.711      365.926      386.529        0.145        0.061       41.085       15.765        0.147      337.424        9.389      867.141
04/26/2013  07:12:00      -37.344        1.970        5.059       18.471       13.295       13.918      341.173      176.748      193.698        0.107        0.036       37.396        8.639        0.053      337.416        9.376      867.169
04/26/2013  07:13:00      -40.122      -34.887      -13.530       17.509       21.066       12.018      306.573      443.791      144.443        0.195        0.045       53.168        6.935        0.017      337.314        9.205      867.192
04/26/2013  07:14:00      -38.708      -49.023       -3.285       15.117       16.765       13.722      228.527      281.067      188.292        0.230        0.035       62.462        4.853        0.006      337.356        9.274      867.218
04/26/2013  07:15:00      -67.808      -51.125      -13.699       20.568       18.070       15.735      423.046      326.540      247.582        0.420        0.050       84.922       10.007        0.014      337.349        9.262      867.230
04/26/2013  07:16:00      -68.856      -21.995       -4.512       16.606       17.137       12.289      275.762      293.661      151.028        0.298        0.036       72.284        6.888        0.009      337.346        9.258      867.241
04/26/2013  07:17:00      -64.160      -27.469       -9.195       16.576       14.277       13.511      274.770      203.833      182.550        0.281        0.033       69.792        8.995        0.017      337.427        9.393      867.240
04/26/2013  07:18:00      -48.937      -34.955       -6.021       24.331       22.741        9.705      592.021      517.133       94.194        0.243        0.060       60.139        6.959        0.013      337.447        9.427      867.237
04/26/2013  07:19:00      -40.408      -67.065        0.476       24.076       20.222       14.459      579.656      408.934      209.073        0.366        0.060       78.297       15.215        0.038      337.475        9.474      867.236
04/26/2013  07:20:00      -47.031      -71.526      -10.613       11.222       15.529       11.370      125.943      241.157      129.280        0.397        0.025       85.603        8.972        0.011      337.544        9.589      867.238
04/26/2013  07:21:00      -16.296      -26.706        8.415       29.497       18.773       18.535      870.094      352.416      343.556        0.131        0.078       31.285       17.426        0.310      337.851       10.105      867.240
04/26/2013  07:22:00      -23.325      -16.489       15.395       37.429       25.621       20.121     1400.919      656.434      404.861        0.176        0.123       28.565       18.796        0.433      337.978       10.318      867.258
04/26/2013  07:23:00      -21.301      -22.813        6.463       20.320       20.445       16.615      412.894      417.985      276.047        0.106        0.055       31.212       11.575        0.138      337.931       10.239      867.271
04/26/2013  07:24:00      -32.140      -37.496       -0.286       31.433       29.447       18.393      988.016      867.133      338.302        0.232        0.110       49.385       16.129        0.107      337.857       10.114      867.298
04/26/2013  07:25:00      -30.399      -55.184       -4.051       30.876       30.007       13.052      953.326      900.413      170.367        0.300        0.101       63.003       12.947        0.042      337.817       10.048      867.317
04/26/2013  07:26:00      -23.889      -20.677       15.462       33.851       20.028       22.811     1145.886      401.140      520.332        0.165        0.103       31.595       17.586        0.310      338.097       10.516      867.334
04/26/2013  07:27:00      -55.326      -67.358       -7.463       27.688       25.269       15.816      766.605      638.540      250.136        0.465        0.083       87.167       17.488        0.040      337.770        9.969      867.354
04/26/2013  07:28:00      -73.309      -43.110       -6.646       19.716       21.954        8.573      388.724      481.979       73.499        0.411        0.047       85.045       10.353        0.015      337.772        9.970      867.379
04/26/2013  07:29:00      -25.346      -43.850        2.076       20.966       25.496       14.269      439.568      650.041      203.597        0.193        0.065       50.648       10.209        0.041      337.912       10.206      867.397
04/26/2013  07:30:00      -32.044      -70.112       -8.489       24.478       11.810       12.237      599.171      139.486      149.745        0.345        0.044       77.088        9.456        0.015      337.901       10.188      867.413
04/26/2013  07:31:00      -62.506      -15.481       -4.211       41.917       28.292       22.521     1757.038      800.409      507.218        0.361        0.153       64.394       24.433        0.144      338.060       10.455      867.433
04/26/2013  07:32:00      -94.282      -24.072      -11.876       30.493       23.548       16.359      929.822      554.515      267.605        0.568        0.088       97.307       11.436        0.014      338.027       10.402      867.447
04/26/2013  07:33:00      -77.282       -9.513       -5.481       33.649       25.507       19.342     1132.259      650.620      374.112        0.412        0.108       77.865       18.537        0.057      338.212       10.710      867.452
04/26/2013  07:34:00      -22.406      -37.424       14.833       45.586       32.669       23.665     2078.085     1067.273      560.027        0.291        0.185       43.619       31.661        0.527      338.301       10.859      867.465
04/26/2013  07:35:00      -27.705      -15.794       13.190       40.822       28.226       20.968     1666.467      796.726      439.658        0.205        0.145       31.890       14.383        0.203      338.465       11.135      867.476
04/26/2013  07:36:00     -123.423       -3.691       -5.524       43.291       28.150       26.669     1874.076      792.432      711.238        0.933        0.169      123.478       25.015        0.041      338.132       10.576      867.483
04/26/2013  07:37:00     -114.515      -20.244       -6.436       30.091       32.684       19.661      905.485     1068.253      386.567        0.796        0.118      116.291       14.542        0.016      338.106       10.533      867.488
04/26/2013  07:38:00      -76.250      -63.108       -6.261       17.439       27.622       12.024      304.102      762.976      144.581        0.552        0.061       98.978       10.388        0.011      338.045       10.430      867.502
04/26/2013  07:39:00      -12.097      -52.376        4.008       42.608       35.417       28.440     1815.411     1254.330      808.853        0.339        0.194       53.755       32.872        0.374      338.094       10.513      867.512
04/26/2013  07:40:00      -28.298       -9.294       11.392       46.970       23.810       22.768     2206.170      566.933      518.392        0.215        0.165       29.785       26.738        0.806      338.616       11.389      867.519
04/26/2013  07:41:00      -73.269      -24.356      -13.582       23.939        9.342       10.668      573.067       87.277      113.815        0.346        0.039       77.211        9.680        0.016      338.144       10.596      867.544
04/26/2013  07:42:00       -7.056      -26.414       -8.302       26.523       11.876       11.026      703.455      141.037      121.576        0.089        0.048       27.341       12.033        0.194      338.255       10.783      867.560
04/26/2013  07:43:00      -30.482        6.840       -3.076       18.450       27.676       15.192      340.404      765.984      230.793        0.116        0.067       31.240        8.046        0.066      338.507       11.205      867.572
04/26/2013  07:44:00      -46.790       -5.049       -5.808       21.460       31.093       16.031      460.542      966.744      256.991        0.197        0.084       47.061       11.700        0.062      338.524       11.235      867.576
04/26/2013  07:45:00      -33.105      -33.601       -8.002       26.567       22.396       12.301      705.805      501.601      151.321        0.182        0.068       47.169        9.649        0.042      338.349       10.939      867.587
04/26/2013  07:46:00      -26.258      -74.278        4.526       24.124       27.704       18.844      581.945      767.497      355.099        0.397        0.085       78.782       16.161        0.042      338.317       10.888      867.594
04/26/2013  07:47:00      -35.166      -60.933        0.392       25.355       25.642       17.088      642.861      657.487      292.007        0.327        0.080       70.353       12.005        0.029      338.325       10.900      867.605
04/26/2013  07:48:00      -59.292      -73.627       -9.316       16.428       17.648       13.411      269.895      311.466      179.850        0.489        0.038       94.533        5.628        0.004      338.275       10.815      867.627
04/26/2013  07:49:00      -58.629      -68.777       -8.921       10.004       11.102        8.480      100.080      123.258       71.917        0.427        0.015       90.375        4.661        0.003      338.289       10.840      867.647
04/26/2013  07:50:00      -58.776      -59.583       -6.538       14.490       14.057       10.862      209.958      197.602      117.977        0.379        0.026       83.694        6.644        0.006      338.361       10.962      867.658
04/26/2013  07:51:00      -52.141      -40.020       -6.023       13.795       10.209       10.530      190.304      104.218      110.883        0.238        0.020       65.729        6.679        0.010      338.360       10.957      867.675
04/26/2013  07:52:00      -38.682      -74.080       -2.394       26.595       32.852       15.789      707.276     1079.268      249.299        0.451        0.102       83.571       14.646        0.031      338.487       11.171      867.694
04/26/2013  07:53:00      -38.324      -87.351       -1.416       11.569       19.947       16.003      133.850      397.890      256.100        0.494        0.039       95.389       10.055        0.011      338.442       11.097      867.707
04/26/2013  07:54:00      -29.667      -67.502       -1.318       16.220       15.045       12.169      263.094      226.355      148.084        0.304        0.032       73.734        9.168        0.015      338.504       11.202      867.715
04/26/2013  07:55:00       11.063      -27.557        5.040       18.100       20.792       12.183      327.625      432.328      148.427        0.091        0.045       29.695        8.352        0.079      338.633       11.417      867.730
04/26/2013  07:56:00        2.189      -12.129       -3.773        8.793       14.305       12.168       77.322      204.634      148.053        0.030        0.022       12.325        4.943        0.161      338.849       11.780      867.744
04/26/2013  07:57:00      -37.487      -30.195       -6.214       12.933       14.417       15.391      167.268      207.859      236.882        0.148        0.031       48.135        7.770        0.026      338.750       11.614      867.754
04/26/2013  07:58:00      -23.050      -18.491       -7.959       19.522       13.951        9.502      381.111      194.634       90.293        0.080        0.033       29.550        7.598        0.066      338.870       11.815      867.764
04/26/2013  07:59:00      -21.456      -24.919       -6.007       16.337       14.044        9.368      266.901      197.222       87.761        0.083        0.028       32.883        6.962        0.045      338.914       11.888      867.763
04/26/2013  08:00:00      -33.141      -19.917      -10.503       14.265       16.840       17.064      203.495      283.596      291.185        0.119        0.039       38.665       10.745        0.077      338.877       11.827      867.765
04/26/2013  08:01:00      -30.760      -19.566      -15.102       16.945       16.136       10.674      287.141      260.370      113.942        0.111        0.033       36.455       10.721        0.086      338.925       11.906      867.767
04/26/2013  08:02:00      -38.777      -26.806       -9.137        7.533       10.953        9.577       56.749      119.958       91.725        0.129        0.013       47.140        4.046        0.007      338.950       11.949      867.769
04/26/2013  08:03:00      -43.887      -27.570      -15.952       12.486       14.233        7.549      155.890      202.592       56.989        0.168        0.021       51.829        4.216        0.007      338.926       11.909      867.775
04/26/2013  08:04:00      -52.003      -39.007       -7.025       13.050       24.398       10.810      170.303      595.273      116.867        0.258        0.044       65.006        6.545        0.010      338.984       12.008      867.774
04/26/2013  08:05:00      -37.598      -92.421        4.141       16.595       25.635       15.147      275.397      657.140      229.429        0.557        0.058       99.776        3.764        0.001      338.957       11.962      867.777
04/26/2013  08:06:00      -33.981      -59.527        3.779       17.018       19.425       19.113      289.603      377.342      365.321        0.287        0.052       68.543       16.464        0.058      338.998       12.031      867.784
04/26/2013  08:07:00      -52.199      -33.419       -3.013       16.485       17.345       16.276      271.745      300.864      264.920        0.234        0.042       61.980       13.652        0.049      339.075       12.158      867.782
04/26/2013  08:08:00      -66.749      -26.826       -4.489       20.157       12.162        8.593      406.289      147.913       73.840        0.291        0.031       71.938        8.227        0.013      339.103       12.206      867.780
04/26/2013  08:09:00      -31.135      -38.996       -6.891        8.735       12.785        6.939       76.297      163.452       48.149        0.141        0.014       49.901        1.835        0.001      339.073       12.155      867.784
04/26/2013  08:10:00      -35.970      -50.018        5.097       30.370       30.972       22.917      922.347      959.294      525.180        0.311        0.120       61.609       22.929        0.139      339.268       12.487      867.782
04/26/2013  08:11:00      -45.195      -61.125        3.470       31.364       33.973       19.249      983.714     1154.166      370.536        0.415        0.125       76.019       17.004        0.050      339.354       12.629      867.789
04/26/2013  08:12:00      -69.624     -107.582       -3.376       36.305       31.760       20.568     1318.085     1008.708      423.049        0.959        0.137      128.146       18.915        0.022      339.204       12.377      867.795
04/26/2013  08:13:00      -45.581      -74.718       -1.779       31.018       27.315       21.582      962.093      746.110      465.792        0.492        0.109       87.524       20.635        0.056      339.315       12.564      867.810
04/26/2013  08:14:00      -29.013      -80.739        2.041       26.068       34.527       19.419      679.546     1192.102      377.112        0.481        0.112       85.794       17.206        0.040      339.244       12.444      867.822
04/26/2013  08:15:00     -119.201      -55.198       -6.535       32.648       26.700       17.926     1065.900      712.870      321.346        0.970        0.105      131.361       18.023        0.019      339.262       12.474      867.827
04/26/2013  08:16:00     -100.297      -27.776       -3.750       48.907       21.507       17.579     2391.924      462.540      309.008        0.700        0.158      104.072       20.285        0.038      339.328       12.585      867.821
04/26/2013  08:17:00     -104.301      -34.434       -3.494       24.035       31.422       18.170      577.676      987.323      330.149        0.699        0.095      109.839       14.823        0.018      339.408       12.722      867.824
04/26/2013  08:18:00      -61.184      -80.158      -12.839       20.204       26.614       11.633      408.191      708.326      135.327        0.579        0.063      100.840        6.114        0.004      339.279       12.503      867.821
04/26/2013  08:19:00      -48.409      -26.023      -15.861       31.705       22.624       17.932     1005.213      511.849      321.573        0.256        0.092       54.960       17.121        0.097      339.665       13.153      867.829
04/26/2013  08:20:00      -65.856      -75.160      -12.666       30.136       27.498       11.982      908.207      756.161      143.566        0.598        0.090       99.930       12.759        0.016      339.376       12.667      867.837
04/26/2013  08:21:00      -40.883      -83.113       -5.439       22.145        9.850        8.857      490.414       97.014       78.446        0.464        0.033       92.624        6.596        0.005      339.334       12.595      867.845
04/26/2013  08:22:00      -38.805      -45.831       -8.902       29.258       15.532       19.441      856.009      241.258      377.938        0.258        0.074       60.053       17.528        0.085      339.489       12.858      867.848
04/26/2013  08:23:00        3.671      -16.616       24.790       24.731       18.823       18.282      611.642      354.324      334.225        0.110        0.065       17.017       18.463        1.177      340.032       13.773      867.852
04/26/2013  08:24:00       -9.807        1.040       23.814       30.527       29.499       18.307      931.885      870.193      335.141        0.140        0.107        9.862       12.653        1.646      340.396       14.388      867.852
04/26/2013  08:25:00      -90.672      -25.024        2.075       48.879       32.701       26.303     2389.115     1069.354      691.829        0.650        0.208       94.062       27.601        0.086      339.989       13.701      867.864
04/26/2013  08:26:00      -43.261      -27.280       -4.249       34.507       19.336       14.587     1190.718      373.864      212.774        0.221        0.089       51.144       10.775        0.044      339.758       13.312      867.873
04/26/2013  08:27:00       -1.105      -20.625       -5.953       18.853       23.031       14.094      355.417      530.437      198.630        0.077        0.054       20.654        9.732        0.222      339.971       13.671      867.880
04/26/2013  08:28:00       11.957      -50.392       13.232       20.122       21.777       20.597      404.882      474.232      424.227        0.208        0.065       51.791       13.783        0.071      339.844       13.456      867.889
04/26/2013  08:29:00      -12.279      -41.373        7.661       15.936       30.453       17.709      253.948      927.384      313.607        0.171        0.075       43.157       18.209        0.178      339.713       13.234      867.901
04/26/2013  08:30:00      -31.501      -84.938       -8.342       36.005       39.827       20.303     1296.366     1586.195      412.193        0.578        0.165       90.591       22.329        0.061      339.675       13.172      867.903
04/26/2013  08:31:00     -108.546      -89.720        3.327       64.562       43.647       24.185     4168.239     1905.060      584.912        1.325        0.333      140.826       25.890        0.034      339.647       13.123      867.910
04/26/2013  08:32:00      -90.551      -79.295       -1.692       36.779       39.709       22.882     1352.680     1576.844      523.572        0.897        0.173      120.362       26.760        0.049      339.631       13.097      867.928
04/26/2013  08:33:00     -100.237      -46.593       -4.672       40.903       42.423       18.428     1673.040     1799.694      339.573        0.803        0.191      110.537       19.159        0.030      339.651       13.131      867.933
04/26/2013  08:34:00      -75.949      -71.022        3.642       34.777       38.046       26.042     1209.406     1447.497      678.196        0.708        0.167      103.983       24.807        0.057      339.745       13.289      867.933
04/26/2013  08:35:00      -95.789      -40.362       -9.984       20.290       17.477       15.858      411.670      305.441      251.477        0.594        0.048      103.946       10.676        0.011      339.723       13.253      867.935
04/26/2013  08:36:00      -98.516      -29.816       -4.138       55.358       42.862       22.376     3064.454     1837.127      500.672        0.801        0.270      102.929       24.876        0.058      339.911       13.571      867.928
04/26/2013  08:37:00     -103.977      -51.572       -0.595       50.985       36.107       18.323     2599.466     1303.719      335.724        0.885        0.212      116.064       16.224        0.020      339.802       13.385      867.937
04/26/2013  08:38:00     -108.297      -34.228       -7.411       42.623       23.397       21.198     1816.762      547.440      449.355        0.788        0.141      113.578       16.389        0.021      339.817       13.411      867.942
04/26/2013  08:39:00      -64.808       -3.428       -4.403       36.533       27.696       19.280     1334.658      767.072      371.708        0.335        0.124       64.898       12.624        0.038      339.838       13.446      867.945
04/26/2013  08:40:00      -12.819      -15.108       17.220       20.482       32.412       19.822      419.533     1050.557      392.916        0.128        0.093       19.813        9.153        0.213      340.449       14.478      867.950
04/26/2013  08:41:00      -28.720      -43.360      -17.997       22.903       21.395       21.086      524.549      457.753      444.613        0.223        0.071       52.009       14.024        0.073      339.956       13.643      867.953
04/26/2013  08:42:00      -18.468      -37.140       -3.635       23.337       12.038       16.348      544.617      144.910      267.273        0.135        0.048       41.478       13.347        0.104      339.980       13.686      867.951
04/26/2013  08:43:00      -54.761      -40.025       -8.020       24.455       17.803       17.314      598.043      316.941      299.771        0.294        0.061       67.829        7.655        0.013      340.060       13.821      867.948
04/26/2013  08:44:00      -40.451      -52.051       -3.913       54.138       31.239       23.693     2930.901      975.873      561.353        0.441        0.223       65.921       17.972        0.074      340.107       13.897      867.951
04/26/2013  08:45:00      -16.632      -20.172       10.926       36.464       31.757       31.912     1329.642     1008.497     1018.358        0.208        0.168       26.145       23.136        0.783      340.540       14.632      867.946
04/26/2013  08:46:00        0.986      -15.441       23.894       26.611       27.574       23.010      708.135      760.317      529.449        0.140        0.100       15.473       16.114        1.085      340.786       15.047      867.949
04/26/2013  08:47:00      -44.892      -25.248        4.046       28.518       34.425       18.293      813.299     1185.072      334.622        0.250        0.117       51.505       15.231        0.087      340.349       14.310      867.954
04/26/2013  08:48:00      -47.797      -33.437       11.336       40.259       31.479       20.761     1620.791      990.935      430.999        0.329        0.152       58.332       24.082        0.170      340.426       14.438      867.958
04/26/2013  08:49:00      -73.585      -28.878        3.088       35.134       36.795       22.370     1234.415     1353.881      500.416        0.467        0.154       79.049       18.596        0.055      340.202       14.059      867.968
04/26/2013  08:50:00      -44.843        6.914       -7.966       21.343       17.386       11.448      455.537      302.284      131.061        0.151        0.044       45.372        7.139        0.025      340.102       13.889      867.982
04/26/2013  08:51:00       -7.772       -3.664        7.573       13.677       21.830       15.131      187.058      476.541      228.962        0.051        0.045        8.592        5.328        0.385      340.959       15.340      867.999
04/26/2013  08:52:00       -5.939      -17.293       18.668       15.986       18.057       21.593      255.553      326.049      466.259        0.087        0.052       18.284        9.918        0.294      340.964       15.347      868.012
04/26/2013  08:53:00       -4.656        8.506       34.079       21.978       19.855       23.744      483.028      394.207      563.780        0.135        0.072        9.697       10.179        1.102      341.202       15.751      868.030
04/26/2013  08:54:00        6.185       34.255       70.276       48.151       39.916       29.388     2318.564     1593.255      863.669        0.546        0.239       34.809       26.631        0.585      340.889       15.222      868.043
04/26/2013  08:55:00        4.196       46.722       68.732       31.253       35.605       23.417      976.763     1267.743      548.343        0.486        0.140       46.910       22.282        0.226      340.767       15.015      868.045
04/26/2013  08:56:00      -11.503      -22.502       35.469       19.901       26.871       18.959      396.032      722.067      359.459        0.169        0.074       25.271        8.041        0.101      340.892       15.227      868.060
04/26/2013  08:57:00      -67.659      -40.885       -5.895       33.616       20.468       26.070     1130.056      418.937      679.624        0.426        0.111       79.053       22.061        0.078      340.353       14.315      868.072
04/26/2013  08:58:00      -11.651      -11.240      -14.624       31.961       15.191       16.466     1021.515      230.780      271.142        0.100        0.076       16.190       14.781        0.834      340.594       14.723      868.073
04/26/2013  08:59:00       -3.317       -5.620       27.084       40.866       59.044       34.581     1670.032     3486.239     1195.878        0.356        0.318        6.526       26.967       17.076      340.966       15.351      868.071
04/26/2013  09:00:00       75.478      -75.563      -14.328       55.605       82.107       46.519     3091.885     6741.603     2163.971        1.180        0.600      106.802       56.607        0.281      340.698       14.897      868.072
04/26/2013  09:01:00       60.283      -65.889       22.149       67.493       74.354       52.502     4555.244     5528.586     2756.488        1.065        0.642       89.305       53.427        0.358      340.939       15.306      868.074
04/26/2013  09:02:00       38.916      -74.285       -0.429       65.246       48.593       38.838     4257.027     2361.288     1508.416        0.758        0.406       83.862       42.467        0.256      340.642       14.803      868.077
04/26/2013  09:03:00        1.013       21.142       47.331       23.831       40.060       25.466      567.896     1604.826      648.530        0.275        0.141       21.167       27.482        1.686      341.239       15.814      868.075
04/26/2013  09:04:00      -35.749      -14.786       13.445       24.510       29.157       19.822      600.730      850.149      392.930        0.176        0.092       38.686       16.932        0.192      340.887       15.218      868.083
04/26/2013  09:05:00       25.280        1.460       34.419       43.190       32.013       25.875     1865.418     1024.854      669.502        0.269        0.178       25.322       23.503        0.861      341.104       15.585      868.087
04/26/2013  09:06:00       56.050       63.312       39.270       48.790       35.721       30.681     2380.427     1275.967      941.322        0.664        0.230       84.558       31.198        0.136      340.605       14.741      868.090
04/26/2013  09:07:00       26.669       -1.950       33.971       27.510       44.116       26.700      756.807     1946.235      712.909        0.264        0.171       26.740       11.781        0.194      340.871       15.190      868.108
04/26/2013  09:08:00       37.069       18.452       33.917       31.184       28.925       28.073      972.430      836.682      788.079        0.273        0.130       41.407       22.112        0.285      340.727       14.948      868.119
04/26/2013  09:09:00       22.660       36.100       36.294       32.668       36.476       25.189     1067.212     1330.493      634.493        0.308        0.152       42.623       15.857        0.138      340.491       14.549      868.121
04/26/2013  09:10:00       14.750       14.468       37.203       29.105       32.270       20.888      847.109     1041.323      436.299        0.207        0.116       20.661       21.460        1.079      341.051       15.495      868.126
04/26/2013  09:11:00       -4.713       29.985       43.934       24.178       41.124       37.263      584.567     1691.217     1388.550        0.326        0.183       30.353       27.866        0.843      341.024       15.450      868.131
04/26/2013  09:12:00       -6.295        8.651       51.778       34.919       57.143       25.171     1219.339     3265.277      633.566        0.396        0.256       10.698       31.696        8.778      341.039       15.476      868.139
04/26/2013  09:13:00       -6.489        2.030       40.926       23.160       24.623       24.593      536.382      606.306      604.838        0.173        0.087        6.799       17.084        6.314      341.507       16.269      868.139
04/26/2013  09:14:00        2.986      -14.437       40.070       53.362       64.194       36.827     2847.474     4120.904     1356.197        0.507        0.416       14.742       39.315        7.112      341.261       15.850      868.141
04/26/2013  09:15:00       -9.967      -70.711       -0.420       36.729       44.014       20.106     1349.007     1937.192      404.267        0.439        0.185       71.410       18.754        0.069      340.869       15.188      868.141
04/26/2013  09:16:00        2.843      -48.609        6.965       25.205       44.990       38.614      635.297     2024.113     1491.051        0.328        0.208       48.692       25.805        0.281      341.154       15.670      868.140
04/26/2013  09:17:00       -5.215      -91.661       -2.540       52.886       46.443       45.387     2796.945     2156.931     2060.015        0.772        0.351       91.809       29.810        0.105      340.990       15.392      868.149
04/26/2013  09:18:00        7.580       22.534       49.702       36.684       39.903       32.848     1345.694     1592.239     1078.995        0.353        0.201       23.775       26.161        1.211      341.462       16.192      868.151
04/26/2013  09:19:00       25.973      -22.542        6.288       32.402       24.632       25.845     1049.908      606.758      667.976        0.177        0.116       34.391       14.500        0.178      340.763       15.008      868.164
04/26/2013  09:20:00       30.387      -17.570       -2.798       27.272       43.886       29.223      743.784     1925.993      853.981        0.238        0.176       35.101       23.145        0.435      340.577       14.694      868.167
04/26/2013  09:21:00      -15.819       28.304      -17.293       30.497       15.214       13.069      930.062      231.467      170.804        0.134        0.067       32.424        8.660        0.071      340.593       14.720      868.158
04/26/2013  09:22:00      -79.473      -27.076      -11.425       27.966       25.246       20.126      782.086      637.349      405.056        0.450        0.091       83.959       13.846        0.027      340.708       14.916      868.162
04/26/2013  09:23:00      -73.464      -60.306        1.668       41.881       31.110       28.302     1754.040      967.854      800.991        0.628        0.176       95.046       26.309        0.077      340.770       15.020      868.166
04/26/2013  09:24:00      -71.658      -49.193       -2.646       28.846       25.665       20.598      832.089      658.713      424.292        0.474        0.096       86.919       18.768        0.047      340.747       14.981      868.160
04/26/2013  09:25:00      -65.287      -38.871       -6.712       11.429        9.066       12.380      130.627       82.197      153.274        0.309        0.018       75.982        9.405        0.015      340.693       14.891      868.156
04/26/2013  09:26:00      -56.127      -24.317       -0.195       18.460       13.921       10.956      340.755      193.805      120.039        0.220        0.033       61.169       10.521        0.030      340.722       14.938      868.146
04/26/2013  09:27:00      -56.728       -8.500       -6.897       32.367       19.696       17.837     1047.645      387.952      318.160        0.255        0.088       57.361       18.217        0.101      340.884       15.212      868.151
04/26/2013  09:28:00      -69.861        0.615      -12.880       18.923       17.191       17.048      358.083      295.520      290.650        0.300        0.047       69.864        3.188        0.002      340.833       15.125      868.138
04/26/2013  09:29:00      -57.119      -31.445       -2.956       29.218       25.587       20.744      853.669      654.706      430.310        0.310        0.097       65.203       17.208        0.070      341.052       15.499      868.141
04/26/2013  09:30:00      -86.571      -27.037      -10.207       30.140       21.036       13.893      908.394      442.505      193.019        0.494        0.077       90.694        8.146        0.008      340.808       15.085      868.139
04/26/2013  09:31:00      -79.160      -38.138       -7.701       51.054       18.718       19.902     2606.468      350.373      396.093        0.557        0.168       87.868       25.185        0.082      340.848       15.152      868.138
04/26/2013  09:32:00     -119.803      -46.802      -16.493       28.798       24.366       16.721      829.299      593.720      279.585        0.926        0.085      128.620        9.365        0.005      340.887       15.218      868.144
04/26/2013  09:33:00      -79.329      -40.005       -9.679       23.712       27.426       19.117      562.269      752.194      365.450        0.483        0.084       88.845       14.844        0.028      340.878       15.201      868.143
04/26/2013  09:34:00     -103.445       55.553        2.975       91.820       37.855       37.746     8430.923     1432.972     1424.758        1.254        0.564      117.418       28.687        0.060      341.178       15.710      868.143
04/26/2013  09:35:00      -82.609       28.597       -6.578       34.062       31.327       28.387     1160.186      981.389      805.824        0.532        0.147       87.418       13.203        0.023      341.091       15.563      868.153
04/26/2013  09:36:00      -35.694       32.908       11.922       39.532       27.738       30.574     1562.790      769.399      934.790        0.288        0.163       48.549       29.328        0.365      341.678       16.559      868.161
04/26/2013  09:37:00       -9.402       64.219       -9.009       31.706       35.311       28.694     1005.284     1246.844      823.369        0.368        0.154       64.904       20.477        0.100      341.241       15.818      868.161
04/26/2013  09:38:00      -14.942       40.183        3.620       25.672       35.917       24.245      659.040     1290.016      587.796        0.219        0.127       42.871       19.859        0.215      341.518       16.286      868.159
04/26/2013  09:39:00      -58.023       50.595      -11.084       33.849       29.879       19.688     1145.742      892.752      387.602        0.424        0.121       76.984       16.727        0.047      341.297       15.911      868.165
04/26/2013  09:40:00      -59.352       33.464      -18.459       34.133       22.115       16.616     1165.066      489.075      276.080        0.346        0.097       68.135       21.500        0.100      341.103       15.584      868.162
04/26/2013  09:41:00       -1.681       28.912      -13.264       25.524       26.641       28.338      651.490      709.723      803.061        0.159        0.108       28.961       18.574        0.411      341.246       15.826      868.160
04/26/2013  09:42:00      -15.615      109.796      -12.795       24.051       23.268       18.129      578.434      541.401      328.671        0.696        0.072      110.901       10.316        0.009      341.198       15.746      868.157
04/26/2013  09:43:00      -22.376       40.525       -3.047       26.089       32.333       26.448      680.638     1045.437      699.486        0.229        0.121       46.292       17.048        0.136      341.461       16.190      868.159
04/26/2013  09:44:00      -33.096       42.462        5.236       21.954       24.718       24.654      481.966      610.974      607.821        0.231        0.085       53.836       18.118        0.113      341.953       17.024      868.167
04/26/2013  09:45:00      -43.945       27.397      -20.200       19.489       28.911       19.877      379.838      835.855      395.092        0.235        0.081       51.786       12.724        0.060      341.373       16.040      868.170
04/26/2013  09:46:00        1.759       -0.284       16.794       24.048       18.288       22.419      578.284      334.459      502.633        0.085        0.071        1.782        9.588       28.953      342.101       17.276      868.175
04/26/2013  09:47:00        0.234       13.647       32.385       24.937       40.850       22.874      621.856     1668.763      523.231        0.202        0.141       13.649       17.283        1.604      342.159       17.375      868.165
04/26/2013  09:48:00       -1.470       21.395       17.176       63.464       34.230       32.671     4027.655     1171.724     1067.409        0.351        0.313       21.445       38.445        3.214      341.849       16.848      868.173
04/26/2013  09:49:00      -20.109        5.840        0.918       36.348       34.247       29.051     1321.196     1172.886      843.942        0.189        0.167       20.940       21.290        1.034      341.918       16.965      868.176
04/26/2013  09:50:00      -78.045       31.943       -9.885       44.407       52.996       26.375     1971.943     2808.530      695.619        0.634        0.274       84.329       24.142        0.082      341.900       16.933      868.165
04/26/2013  09:51:00      -36.871       44.555        1.688       30.774       57.902       27.248      947.055     3352.692      742.427        0.419        0.252       57.833       31.219        0.291      341.879       16.899      868.159
04/26/2013  09:52:00      -12.507       47.060        2.796       28.615       41.921       24.616      818.836     1757.369      605.963        0.278        0.159       48.694       21.163        0.189      342.104       17.281      868.151
04/26/2013  09:53:00       -1.040       16.480        0.444       18.338       26.313       23.781      336.267      692.379      565.527        0.093        0.080       16.513       18.633        1.273      342.223       17.482      868.140
04/26/2013  09:54:00       41.238       31.067      -10.579       44.950       35.758       16.006     2020.531     1278.651      256.185        0.317        0.178       51.631       12.924        0.063      341.615       16.452      868.134
04/26/2013  09:55:00       84.946       21.068        3.654       28.009       28.371       36.358      784.521      804.923     1321.928        0.529        0.146       87.520       18.162        0.043      341.499       16.254      868.124
04/26/2013  09:56:00       70.194       42.945       26.012       55.110       34.405       31.573     3037.104     1183.704      996.843        0.633        0.261       82.290       22.693        0.076      341.789       16.745      868.116
04/26/2013  09:57:00       72.199       43.882       30.021       62.896       50.032       50.185     3955.887     2503.204     2518.511        0.851        0.449       84.488       40.359        0.228      341.689       16.576      868.103
04/26/2013  09:58:00      -55.740       42.348       -6.083       57.196       41.422       44.324     3271.330     1715.771     1964.580        0.594        0.348       70.002       44.882        0.411      341.742       16.666      868.110
04/26/2013  09:59:00      -61.635       32.615      -11.110       36.685       50.479       28.594     1345.786     2548.101      817.641        0.485        0.236       69.732       25.782        0.137      341.817       16.793      868.105
04/26/2013  10:00:00       11.114       21.668      -31.670       42.389       36.921       22.421     1796.792     1363.140      502.721        0.263        0.183       24.352       28.171        1.338      341.767       16.708      868.104
04/26/2013  10:01:00       11.445      -20.826        3.370       21.378       24.207       24.333      456.999      585.991      592.089        0.111        0.082       23.763       13.609        0.328      342.013       17.126      868.103
04/26/2013  10:02:00      -56.019      -22.633        3.439       33.551       36.344       24.681     1125.684     1320.884      609.146        0.336        0.153       60.418       22.469        0.138      342.104       17.282      868.104
04/26/2013  10:03:00      -40.470      -18.237        8.135       35.062       36.056       23.552     1229.344     1300.039      554.681        0.256        0.154       44.389       19.586        0.195      342.205       17.451      868.106
04/26/2013  10:04:00      -80.250      -28.347       -3.845       43.934       27.662       17.643     1930.233      765.211      311.275        0.513        0.150       85.109       16.819        0.039      341.928       16.982      868.103
04/26/2013  10:05:00      -65.778       -7.558      -25.414       36.234       29.393       18.511     1312.917      863.935      342.648        0.377        0.126       66.210       22.133        0.112      341.691       16.580      868.122
04/26/2013  10:06:00       19.238      -21.383      -11.674       27.879       25.827       17.381      777.265      667.055      302.095        0.135        0.087       28.763       10.890        0.143      341.929       16.984      868.126
04/26/2013  10:07:00      -28.346      -35.817       -7.829       30.405       35.336       33.574      924.455     1248.648     1127.183        0.272        0.165       45.677       17.220        0.142      342.243       17.516      868.128
04/26/2013  10:08:00      -12.883      -15.286       21.933       34.055       42.689       29.804     1159.724     1822.352      888.265        0.237        0.194       19.991       30.983        2.402      342.543       18.028      868.136
04/26/2013  10:09:00       27.544      -81.145        3.286       42.023       93.585       40.566     1765.926     8758.173     1645.579        0.976        0.608       85.692       51.591        0.362      342.247       17.523      868.141
04/26/2013  10:10:00       36.688      -61.652        2.562       36.248       33.207       30.288     1313.893     1102.726      917.361        0.424        0.167       71.742       26.915        0.141      342.374       17.739      868.137
04/26/2013  10:11:00       25.090      -21.354       23.089       36.554       53.138       33.941     1336.231     2823.671     1151.963        0.346        0.266       32.947       34.062        1.069      342.568       18.070      868.125
04/26/2013  10:12:00       99.180      -94.494      -14.803       54.101       81.503       37.301     2926.945     6642.820     1391.374        1.497        0.548      136.988       45.651        0.111      342.095       17.265      868.125
04/26/2013  10:13:00        0.369      -74.343       -5.326       31.403       61.089       50.184      986.125     3731.894     2518.421        0.639        0.362       74.344       39.170        0.278      342.181       17.411      868.126
04/26/2013  10:14:00      -81.626      -38.929      -13.865       45.758       28.338       25.129     2093.776      803.059      631.480        0.595        0.176       90.434       11.245        0.015      342.170       17.393      868.120
04/26/2013  10:15:00      -11.724       11.349        6.564       39.106       30.231       23.237     1529.308      913.893      539.940        0.165        0.149       16.317       16.308        0.999      342.735       18.353      868.124
04/26/2013  10:16:00        1.106      -11.159       32.731       57.341       51.571       37.246     3288.036     2659.534     1387.238        0.426        0.367       11.214       27.437        5.986      342.566       18.065      868.132
04/26/2013  10:17:00      157.667      102.241       29.601       93.237       59.546       50.147     8693.142     3545.678     2514.738        2.547        0.738      187.915       25.056        0.018      342.237       17.503      868.127
04/26/2013  10:18:00       98.816       88.405       12.523       54.171       31.211       31.078     2934.528      974.147      965.859        1.130        0.244      132.590       18.568        0.020      342.332       17.668      868.152
04/26/2013  10:19:00      116.387      124.664       15.031       52.369       32.993       45.178     2742.474     1088.546     2041.045        1.759        0.294      170.549       25.218        0.022      342.197       17.438      868.152
04/26/2013  10:20:00       52.167       53.966       -0.899       41.108       36.413       29.662     1689.836     1325.933      879.847        0.476        0.195       75.058        9.899        0.017      342.372       17.735      868.164
04/26/2013  10:21:00       43.135       56.315        3.947       70.536       30.565       30.391     4975.340      934.210      923.597        0.594        0.342       70.937       25.233        0.127      342.136       17.333      868.155
04/26/2013  10:22:00       50.488       59.559       53.027       72.165       44.086       26.921     5207.858     1943.602      724.732        0.839        0.394       78.079       24.996        0.102      342.749       18.379      868.154
04/26/2013  10:23:00       53.264       46.874       -5.309       31.920       35.603       33.299     1018.882     1267.578     1108.792        0.423        0.170       70.953       31.219        0.194      342.013       17.125      868.173
04/26/2013  10:24:00       18.791       28.069        1.996       50.941       26.271       25.365     2595.001      690.189      643.374        0.254        0.196       33.778       29.892        0.783      342.356       17.708      868.191
04/26/2013  10:25:00      -10.862       42.132      -20.752       35.403       35.490       17.052     1253.377     1259.536      290.787        0.256        0.140       43.509        6.910        0.025      342.118       17.303      868.185
04/26/2013  10:26:00       42.225       46.244       14.418       87.528       77.426       43.840     7661.073     5994.803     1921.915        0.985        0.779       62.622       26.066        0.173      342.521       17.988      868.194
04/26/2013  10:27:00      111.512       53.044       44.675       60.570       41.541       46.323     3668.757     1725.632     2145.843        1.239        0.377      123.485       31.467        0.065      342.686       18.269      868.203
04/26/2013  10:28:00       76.177       86.650       70.545       68.912       46.378       42.352     4748.903     2150.907     1793.722        1.349        0.435      115.374       24.065        0.044      342.827       18.509      868.212
04/26/2013  10:29:00       35.423       50.061       65.949       55.574       67.266       46.129     3088.427     4524.781     2127.909        0.892        0.487       61.326       40.873        0.444      342.682       18.263      868.206
04/26/2013  10:30:00       48.667       67.271       69.583       58.373       46.928       38.977     3407.387     2202.194     1519.177        0.943        0.356       83.029       27.800        0.112      342.623       18.163      868.192
04/26/2013  10:31:00        7.178       22.961       36.704       24.181       39.143       29.372      584.701     1532.183      862.731        0.245        0.149       24.057       14.718        0.374      342.863       18.573      868.187
04/26/2013  10:32:00       58.647      -53.718       -1.050       40.072       49.891       42.230     1605.759     2489.067     1783.363        0.610        0.294       79.530       37.327        0.220      342.385       17.759      868.189
04/26/2013  10:33:00       38.707     -101.582       -5.632       28.944       34.488       28.296      837.728     1189.392      800.690        0.734        0.141      108.707       21.653        0.040      342.477       17.913      868.168
04/26/2013  10:34:00      -36.943      -42.423       -5.186       44.853       42.385       25.152     2011.820     1796.470      632.623        0.382        0.222       56.254       24.424        0.189      342.517       17.982      868.149
04/26/2013  10:35:00       15.945       22.174       21.759       43.594       33.053       25.522     1900.424     1092.502      651.356        0.243        0.182       27.312       20.538        0.565      343.259       19.245      868.136
04/26/2013  10:36:00        2.875       24.931       15.216       24.230       37.128       23.432      587.114     1378.502      549.079        0.169        0.126       25.097       15.881        0.400      343.059       18.903      868.138
04/26/2013  10:37:00        1.395      -25.207       37.784       39.209       53.091       24.246     1537.343     2818.660      587.873        0.350        0.247       25.245       11.160        0.195      343.282       19.283      868.115
04/26/2013  10:38:00       77.002       73.355       82.282       91.903       79.504       66.406     8446.200     6320.953     4409.741        1.862        0.959      106.350       59.486        0.313      342.913       18.655      868.116
04/26/2013  10:39:00      104.009       92.230        7.235       60.298       44.625       38.077     3635.847     1991.387     1449.887        1.323        0.354      139.011       28.312        0.041      342.412       17.803      868.112
04/26/2013  10:40:00       50.714       67.222       17.391       35.546       36.339       37.935     1263.493     1320.534     1439.095        0.571        0.201       84.206       25.941        0.095      342.768       18.410      868.106
04/26/2013  10:41:00       94.136       75.404        1.811       47.368       39.584       35.021     2243.710     1566.922     1226.496        0.979        0.252      120.612       22.939        0.036      342.864       18.571      868.106
04/26/2013  10:42:00       52.901      113.377       -6.397       47.520       49.464       32.013     2258.138     2446.662     1024.851        1.071        0.286      125.111       26.171        0.044      342.882       18.603      868.090
04/26/2013  10:43:00      -13.967       95.095       13.062       36.068       56.937       36.056     1300.902     3241.773     1300.026        0.762        0.292       96.115       32.218        0.112      343.240       19.214      868.099
04/26/2013  10:44:00       17.208       19.033        6.253       31.210       31.323       25.766      974.045      981.124      663.903        0.166        0.131       25.659       21.286        0.688      343.389       19.465      868.098
04/26/2013  10:45:00       11.345       -2.013       -1.989       36.314       19.981       34.488     1318.709      399.260     1189.443        0.152        0.145       11.522       15.979        1.923      343.319       19.349      868.101
04/26/2013  10:46:00        7.758       -6.287       12.437       27.409       45.607       33.158      751.263     2080.006     1099.475        0.209        0.197        9.985       27.929        7.824      343.291       19.301      868.107
04/26/2013  10:47:00       72.572       48.230       52.759       65.749       31.860       39.139     4322.928     1015.063     1531.887        0.862        0.343       87.136       35.498        0.166      343.321       19.351      868.102
04/26/2013  10:48:00      145.579       84.815        8.193       63.488       41.518       46.367     4030.746     1723.753     2149.916        1.818        0.395      168.484       29.029        0.030      342.693       18.279      868.113
04/26/2013  10:49:00       87.100       92.345       16.056       54.029       34.510       32.126     2919.172     1190.967     1032.086        1.076        0.257      126.941       21.310        0.028      342.875       18.591      868.093
04/26/2013  10:50:00      -15.620       90.149        4.396       29.654       59.157       32.704      879.387     3499.523     1069.524        0.692        0.272       91.492       33.038        0.130      343.221       19.180      868.094
04/26/2013  10:51:00       24.411       57.783       16.025       37.870       50.387       34.489     1434.163     2538.831     1189.518        0.468        0.258       62.728       27.684        0.195      343.563       19.764      868.084
04/26/2013  10:52:00       50.841       40.766        5.575       22.559       26.054       31.167      508.913      678.798      971.353        0.322        0.108       65.166       19.374        0.088      343.072       18.927      868.087
04/26/2013  10:53:00       56.223       28.335       -1.454       21.151       21.985       21.680      447.370      483.326      470.037        0.268        0.070       62.959       14.927        0.056      342.990       18.788      868.073
04/26/2013  10:54:00      132.308       72.294        5.137       50.595       45.964       39.756     2559.902     2112.648     1580.577        1.450        0.313      150.771       20.339        0.018      343.378       19.446      868.077
04/26/2013  10:55:00      100.402       69.162        4.470       64.247       59.648       45.301     4127.729     3557.877     2052.191        1.231        0.487      121.918       30.986        0.065      343.448       19.567      868.067
04/26/2013  10:56:00       72.026      -67.899       23.321       66.743       51.717       37.846     4454.631     2674.601     1432.283        0.945        0.428       98.985       24.033        0.059      342.629       18.173      868.077
04/26/2013  10:57:00       26.241        0.287       34.585       32.195       22.317       16.563     1036.490      498.036      274.346        0.185        0.090       26.243       10.159        0.150      343.333       19.371      868.066
04/26/2013  10:58:00        6.981        1.584       30.859       14.788       25.642       13.995      218.683      657.520      195.867        0.104        0.054        7.159       13.333        3.469      343.879       20.303      868.060
04/26/2013  10:59:00      110.003       79.771       22.921       59.697       54.486       37.872     3563.735     2968.688     1434.310        1.348        0.398      135.883       36.873        0.074      343.161       19.078      868.056
04/26/2013  11:00:00       29.848       78.813        2.136       44.519       58.857       38.260     1981.900     3464.139     1463.846        0.701        0.345       84.276       36.387        0.186      343.509       19.672      868.048
04/26/2013  11:01:00      101.418       73.575       58.482       61.636       44.105       40.254     3798.993     1945.215     1620.359        1.324        0.368      125.295       18.468        0.022      343.583       19.795      868.038
04/26/2013  11:02:00       11.899        3.270       46.812       43.818       71.012       43.106     1920.044     5042.743     1858.170        0.558        0.441       12.340       34.548        7.838      343.877       20.299      868.043
04/26/2013  11:03:00        7.675       -2.857       38.643       28.944       41.350       31.576      837.768     1709.820      997.072        0.255        0.177        8.190       20.018        5.974      343.702       20.001      868.053
04/26/2013  11:04:00      100.871       73.959        5.920       79.049       56.997       40.952     6248.695     3248.601     1677.083        1.342        0.559      125.080       21.621        0.030      343.257       19.241      868.053
04/26/2013  11:05:00       97.856       86.924        7.132       48.584       39.330       43.714     2360.377     1546.869     1910.899        1.150        0.291      130.888       15.782        0.015      343.264       19.251      868.049
04/26/2013  11:06:00       69.350       75.316       17.391       72.363       51.338       30.366     5236.333     2635.603      922.113        0.979        0.440      102.381       28.402        0.077      343.419       19.518      868.032
04/26/2013  11:07:00       60.238       59.390       37.437       57.921       66.037       57.608     3354.833     4360.856     3318.685        0.979        0.552       84.592       29.579        0.122      343.545       19.731      868.024
04/26/2013  11:08:00       36.915      -25.924       65.888       79.980       99.761       74.023     6396.828     9952.248     5479.350        1.410        1.091       45.108       59.049        1.714      343.803       20.172      868.043
04/26/2013  11:09:00       64.159       -9.261       43.502       70.599      102.782       77.148     4984.149    10564.231     5951.773        1.379        1.075       64.824       79.666        1.510      342.820       18.498      868.053
04/26/2013  11:10:00       41.678      -97.015       -0.730       39.369       45.247       37.436     1549.915     2047.260     1401.433        0.807        0.250      105.588       25.360        0.058      342.857       18.560      868.033
04/26/2013  11:11:00       17.989      -30.272        3.556       44.245       46.801       31.047     1957.654     2190.344      963.928        0.318        0.256       35.213       29.540        0.704      342.870       18.583      868.031
04/26/2013  11:12:00       46.180       30.466       16.377       37.902       57.683       31.517     1436.535     3327.346      993.344        0.454        0.288       55.325       12.994        0.055      343.513       19.678      868.018
04/26/2013  11:13:00       24.715       29.575       61.928       43.571       51.913       35.746     1898.442     2694.912     1277.758        0.559        0.294       38.542       31.940        0.687      343.745       20.073      868.020
04/26/2013  11:14:00      141.672       83.072       37.955       89.368       55.557       56.008     7986.627     3086.604     3136.869        2.131        0.711      164.232       27.402        0.028      343.603       19.829      868.029
04/26/2013  11:15:00      140.626       83.519       17.471       79.004       66.533       39.954     6241.621     4426.642     1596.295        1.966        0.613      163.557       35.364        0.047      343.149       19.055      868.016
04/26/2013  11:16:00      156.031      105.288       21.509       75.592       63.478       57.519     5714.191     4029.426     3308.410        2.447        0.653      188.232       27.847        0.022      343.277       19.272      868.011
04/26/2013  11:17:00       18.135       77.980        3.812       45.394       74.295       30.052     2060.577     5519.709      903.129        0.745        0.424       80.061       36.112        0.203      343.630       19.879      867.989
04/26/2013  11:18:00      154.697      142.649       -0.341      104.091       71.523       47.703    10834.896     5115.490     2275.557        3.125        0.911      210.428       42.039        0.040      343.568       19.769      867.993
04/26/2013  11:19:00      265.705      151.104       28.835       82.641       75.361       58.608     6829.605     5679.352     3434.939        5.510        0.797      305.666       34.719        0.013      343.355       19.405      867.996
04/26/2013  11:20:00      256.639      165.378       24.202       79.856       65.022       54.332     6377.005     4227.866     2951.959        5.368        0.678      305.309       35.082        0.013      343.368       19.427      868.001
04/26/2013  11:21:00      145.068       80.358       48.964      113.240       90.866       52.440    12823.374     8256.700     2749.953        2.686        1.192      165.838       37.749        0.052      343.406       19.494      868.015
04/26/2013  11:22:00      115.501       69.978       34.885       72.833       63.500       55.833     5304.684     4032.254     3117.365        1.595        0.623      135.046       35.069        0.067      343.424       19.524      868.018
04/26/2013  11:23:00       40.464       34.318       16.515       33.776       41.068       30.733     1140.832     1686.562      944.539        0.343        0.189       53.058       19.744        0.138      343.653       19.917      868.004
04/26/2013  11:24:00      124.145       59.510       29.855       92.299       69.651       49.717     8519.065     4851.271     2471.773        1.784        0.792      137.671       32.932        0.057      343.545       19.730      867.994
04/26/2013  11:25:00      154.544      100.007       43.376       46.198       44.694       40.704     2134.293     1997.563     1656.838        2.078        0.289      184.080       25.157        0.019      343.458       19.583      867.998
04/26/2013  11:26:00      107.996       76.928       17.090       43.533       45.574       49.888     1895.126     2076.986     2488.803        1.217        0.323      132.593       39.193        0.087      343.335       19.374      867.978
04/26/2013  11:27:00       22.817       18.483       19.106       27.733       26.708       27.499      769.121      713.304      756.217        0.173        0.112       29.364       19.658        0.448      344.179       20.815      867.965
04/26/2013  11:28:00       47.539      -84.860       21.980       52.948       76.925       44.886     2803.479     5917.397     2014.761        1.034        0.537       97.269       48.673        0.250      343.404       19.492      867.947
04/26/2013  11:29:00       70.138       34.398       71.007       64.000       79.231       47.800     4096.027     6277.564     2284.821        1.190        0.633       78.119       47.974        0.377      343.371       19.434      867.938
04/26/2013  11:30:00       56.945       -7.182       76.166       65.081      127.559       66.472     4235.509    16271.335     4418.566        1.701        1.246       57.396       74.110        1.667      343.869       20.285      867.947
04/26/2013  11:31:00      -11.540       10.651       -0.542       47.305       56.828       37.961     2237.789     3229.407     1441.045        0.358        0.345       15.704       17.523        1.245      343.732       20.053      867.939
04/26/2013  11:32:00       52.647       69.145       81.082       88.412       65.658       60.258     7816.730     4311.008     3631.086        1.494        0.788       86.906       55.973        0.415      344.251       20.935      867.922
04/26/2013  11:33:00       63.294       64.983      112.279       82.795       85.693       57.921     6855.063     7343.292     3354.852        1.919        0.878       90.714       29.488        0.106      344.072       20.631      867.937
04/26/2013  11:34:00       96.037      105.850       56.987       76.442       44.028       53.712     5843.394     1938.482     2884.999        1.717        0.533      142.924       48.426        0.115      343.573       19.780      867.935
04/26/2013  11:35:00       61.481       56.903       34.227       65.395       62.521       36.954     4276.474     3908.934     1365.564        0.887        0.478       83.772       26.305        0.099      344.180       20.817      867.926
04/26/2013  11:36:00      120.778       84.057       71.286       77.840       63.416       64.648     6058.993     4021.601     4179.373        2.049        0.713      147.149       36.396        0.061      344.024       20.546      867.933
04/26/2013  11:37:00      187.270       73.685       12.945      103.631       91.124       62.012    10739.394     8303.538     3845.511        3.177        1.144      201.245       31.327        0.024      343.832       20.219      867.916
04/26/2013  11:38:00      219.830      154.898       46.445       77.608       52.407       62.296     6022.957     2746.451     3880.831        4.356        0.633      268.921       33.729        0.016      343.562       19.758      867.916
04/26/2013  11:39:00      134.756       75.771       37.860       89.622       58.041       46.884     8032.135     3368.779     2198.080        1.946        0.680      154.597       43.039        0.078      343.401       19.486      867.925
04/26/2013  11:40:00       41.600      -47.353       -1.319       46.668       59.187       32.457     2177.895     3503.125     1053.468        0.535        0.337       63.031       28.025        0.198      343.488       19.635      867.898
04/26/2013  11:41:00       48.466       13.245       20.575       60.655       58.023       30.400     3678.992     3366.645      924.160        0.546        0.398       50.244       29.930        0.355      343.845       20.245      867.892
04/26/2013  11:42:00      134.053       71.553       41.242       57.369       42.530       49.047     3291.191     1808.771     2405.612        1.615        0.375      151.954       36.749        0.058      343.674       19.952      867.890
04/26/2013  11:43:00       62.414        8.309        7.160       53.913       78.034       37.956     2906.652     6089.310     1440.640        0.722        0.522       62.965       28.498        0.205      344.023       20.547      867.884
04/26/2013  11:44:00       86.319      -58.730       58.707       75.102      141.371       85.034     5640.290    19985.878     7230.748        2.360        1.643      104.404      105.532        1.022      343.990       20.491      867.878
04/26/2013  11:45:00       65.588      -12.754       48.601       90.815       91.738       77.014     8247.321     8415.911     5931.170        1.471        1.130       66.817       73.453        1.209      344.194       20.840      867.878
04/26/2013  11:46:00      101.988     -160.996       -1.793       77.280       98.712       59.285     5972.203     9744.119     3514.662        2.777        0.962      190.581       57.789        0.092      343.942       20.408      867.864
04/26/2013  11:47:00       95.092      -89.572       16.147       64.802       85.330       53.686     4199.242     7281.288     2882.191        1.584        0.718      130.635       58.339        0.199      343.973       20.461      867.849
04/26/2013  11:48:00       41.889      -47.051       24.961       53.657       74.915       59.434     2879.040     5612.278     3532.435        0.831        0.601       62.996       39.289        0.389      344.185       20.824      867.843
04/26/2013  11:49:00       71.442      -62.373       29.733       67.832       85.519       62.133     4601.142     7313.446     3860.529        1.282        0.789       94.838       49.166        0.269      344.037       20.572      867.831
04/26/2013  11:50:00       12.820      -16.358       35.323       17.108       46.930       22.299      292.694     2202.413      497.231        0.234        0.150       20.783       24.740        1.417      343.876       20.299      867.819
04/26/2013  11:51:00       24.032      -74.809        3.144       53.160       38.882       32.156     2825.995     1511.821     1034.039        0.578        0.269       78.575       12.682        0.026      343.744       20.073      867.809
04/26/2013  11:52:00      -39.920       22.886       -2.791       29.692       40.757       27.233      881.627     1661.112      741.630        0.270        0.164       46.015       22.304        0.235      343.834       20.227      867.788
04/26/2013  11:53:00       22.941        9.274       32.182       47.950       34.715       31.669     2299.245     1205.147     1002.940        0.308        0.225       24.745       19.509        0.622      344.289       21.004      867.773
04/26/2013  11:54:00       31.137       40.768       15.743       35.271       28.767       29.238     1244.078      827.515      854.886        0.290        0.146       51.298       12.329        0.058      343.724       20.037      867.761
04/26/2013  11:55:00       14.577      -28.690       26.376       32.026       33.944       25.542     1025.674     1152.180      652.417        0.228        0.142       32.181       18.346        0.325      344.085       20.653      867.739
04/26/2013  11:56:00      -17.109      -92.321      -11.580       29.476       25.181       20.050      868.838      634.070      402.004        0.543        0.095       93.893       11.565        0.015      343.539       19.723      867.736
04/26/2013  11:57:00      -53.166       -9.798       -7.201       53.509       48.944       17.357     2863.173     2395.562      301.279        0.427        0.278       54.062       16.156        0.089      343.734       20.054      867.719
04/26/2013  11:58:00     -119.249       53.774      -19.348       18.907       29.728       15.824      357.470      883.775      250.388        0.949        0.075      130.813        7.287        0.003      343.570       19.774      867.684
04/26/2013  11:59:00      -74.161       49.620       -3.440       39.209       37.200       25.286     1537.339     1383.808      639.398        0.577        0.178       89.230       16.588        0.035      343.898       20.334      867.671
04/26/2013  12:00:00      -33.464       12.097       21.684       37.837       17.125       19.825     1431.625      293.281      393.026        0.193        0.106       35.583       18.474        0.270      344.587       21.515      867.672
04/26/2013  12:01:00        4.601       -5.253       34.953       38.861       31.037       22.172     1510.157      963.289      491.578        0.212        0.148        6.983       16.286        5.439      344.733       21.763      867.670
04/26/2013  12:02:00      -11.142       -3.867       20.364       55.184       39.342       29.647     3045.299     1547.774      878.948        0.301        0.274       11.794       18.097        2.354      344.276       20.979      867.665
04/26/2013  12:03:00       81.266      -54.579       23.348       61.713       86.339       66.991     3808.543     7454.439     4487.738        1.294        0.788       97.893       56.339        0.331      344.177       20.811      867.639
04/26/2013  12:04:00     -101.187      -73.036        8.578       80.204       81.606       46.499     6432.729     6659.461     2162.192        1.545        0.763      124.792       38.336        0.094      344.012       20.530      867.638
04/26/2013  12:05:00      -75.478      -69.421       12.396       91.868       68.901       40.952     8439.697     4747.395     1677.030        1.276        0.743      102.549       42.068        0.168      344.230       20.901      867.626
04/26/2013  12:06:00      -77.382      -81.825       13.313       76.393       63.939       37.225     5835.905     4088.147     1385.725        1.208        0.565      112.620       38.207        0.115      344.255       20.943      867.625
04/26/2013  12:07:00      -35.621      -36.426       10.441       53.696       87.941       45.045     2883.245     7733.559     2029.022        0.767        0.632       50.948       30.416        0.356      344.587       21.512      867.629
04/26/2013  12:08:00       53.644     -128.318       17.113       89.627      104.738       55.078     8032.911    10970.095     3033.589        2.083        1.102      139.080       72.717        0.273      344.382       21.160      867.623
04/26/2013  12:09:00       34.439      -42.728       39.266       73.975       92.699       70.038     5472.287     8593.141     4905.314        1.176        0.949       54.879       59.030        1.157      344.773       21.830      867.621
04/26/2013  12:10:00       54.819      -44.860       39.728       50.448       93.507       65.899     2544.981     8743.577     4342.695        1.111        0.782       70.835       64.932        0.840      344.276       20.980      867.613
04/26/2013  12:11:00       62.915     -118.793       -8.930       56.364       89.656       41.161     3176.951     8038.177     1694.260        1.553        0.645      134.425       42.440        0.100      344.287       20.997      867.602
04/26/2013  12:12:00       51.972      -70.032       15.301       48.808       68.800       51.412     2382.266     4733.431     2643.234        0.880        0.488       87.210       43.753        0.252      344.444       21.267      867.590
04/26/2013  12:13:00       14.159      -68.791       13.163       42.935       52.665       39.363     1843.406     2773.574     1549.470        0.563        0.308       70.233       22.208        0.100      344.246       20.928      867.569
04/26/2013  12:14:00       60.119     -117.636      -20.320       68.339       83.890       53.800     4670.266     7037.571     2894.434        1.623        0.730      132.108       44.608        0.114      344.299       21.017      867.566
04/26/2013  12:15:00       36.301      -86.283       20.548       62.351      131.741       69.557     3887.660    17355.637     4838.151        1.763        1.304       93.608       75.358        0.648      344.464       21.298      867.549
04/26/2013  12:16:00       20.547       52.690       52.216       47.240       43.001       36.593     2231.625     1849.084     1339.046        0.567        0.271       56.554       15.972        0.080      344.288       21.001      867.549
04/26/2013  12:17:00     -130.237      -74.605       -8.818       51.197       44.104       31.834     2621.111     1945.174     1013.377        1.409        0.279      150.092       25.506        0.029      344.156       20.775      867.528
04/26/2013  12:18:00     -122.354       -8.622        4.775       48.725       56.906       27.942     2374.109     3238.248      780.737        1.073        0.320      122.658       27.958        0.052      344.138       20.743      867.525
04/26/2013  12:19:00      -25.205       20.902       20.430       36.036       32.506       23.333     1298.579     1056.611      544.448        0.219        0.145       32.744       19.542        0.356      344.843       21.950      867.511
04/26/2013  12:20:00       -4.758       31.945       27.178       40.442       29.714       25.364     1635.551      882.945      643.318        0.247        0.158       32.297       11.975        0.137      344.855       21.971      867.516
04/26/2013  12:21:00       15.310        8.157       19.052       30.976       26.378       24.005      959.527      695.778      576.220        0.145        0.112       17.347       14.847        0.732      345.247       22.641      867.506
04/26/2013  12:22:00       89.060       51.558       61.541       42.400       35.738       34.173     1797.760     1277.202     1167.824        0.931        0.212      102.907       13.101        0.016      344.547       21.445      867.500
04/26/2013  12:23:00       38.316       35.084       -9.686       40.672       50.050       36.396     1654.242     2505.000     1324.637        0.414        0.274       51.952       16.755        0.104      344.274       20.977      867.473
04/26/2013  12:24:00        2.890      -66.171      -11.294       30.518       33.837       19.828      931.325     1144.974      393.147        0.349        0.123       66.234       11.924        0.032      344.086       20.655      867.467
04/26/2013  12:25:00      -20.698      -38.547       18.061       38.787       53.626       30.358     1504.406     2875.701      921.627        0.377        0.265       43.753       32.354        0.547      344.500       21.363      867.448
04/26/2013  12:26:00       27.336      -55.459       -0.869       82.691       83.081       36.438     6837.761     6902.471     1327.757        0.944        0.753       61.830       38.683        0.391      344.205       20.859      867.454
04/26/2013  12:27:00       35.359      -37.068       13.492       46.680       38.892       37.799     2179.054     1512.561     1428.749        0.396        0.256       51.228       24.322        0.225      344.205       20.860      867.433
04/26/2013  12:28:00       80.817      -78.521      -12.721       61.900       43.875       38.089     3831.646     1925.033     1450.809        1.003        0.360      112.681       16.978        0.023      343.997       20.502      867.431
04/26/2013  12:29:00       -0.467       -7.459       24.801       25.205       36.659       32.994      635.292     1343.851     1088.611        0.187        0.153        7.474       21.079        7.955      344.720       21.740      867.417
04/26/2013  12:30:00       29.839      -64.680       12.768       54.092       76.772       46.848     2925.954     5893.955     2194.721        0.812        0.551       71.231       36.274        0.259      344.518       21.393      867.409
04/26/2013  12:31:00       54.793      -43.449       58.710       90.086       79.445       72.142     8115.577     6311.506     5204.536        1.398        0.982       69.929       50.804        0.528      344.903       22.052      867.401
04/26/2013  12:32:00      106.877      -73.139       26.173       85.657       83.933       57.258     7337.052     7044.691     3278.494        1.756        0.883      129.507       48.616        0.141      344.556       21.457      867.393
04/26/2013  12:33:00       99.874     -140.188        5.716       90.847      126.919       56.882     8253.231    16108.325     3235.599        2.862        1.380      172.127       74.605        0.188      344.513       21.384      867.384
04/26/2013  12:34:00       70.729      -71.587       12.695       78.386       97.635       78.030     6144.417     9532.554     6088.700        1.602        1.088      100.634       68.512        0.463      344.565       21.473      867.371
04/26/2013  12:35:00      112.568       32.511       44.382       83.317       97.955       63.740     6941.750     9595.267     4062.846        1.815        1.030      117.169       48.785        0.173      344.403       21.196      867.376
04/26/2013  12:36:00       69.584      -17.843       53.315       58.628       86.736       51.806     3437.203     7523.110     2683.829        1.082        0.682       71.835       55.109        0.589      344.437       21.256      867.377
04/26/2013  12:37:00       29.413       21.645       55.765       50.670       71.778       45.831     2567.448     5152.121     2100.499        0.713        0.491       36.519       41.552        1.295      344.790       21.859      867.365
04/26/2013  12:38:00       63.772      -40.534       42.750       65.559      110.926       68.065     4298.000    12304.555     4632.909        1.438        1.062       75.564       60.726        0.646      344.994       22.208      867.365
04/26/2013  12:39:00       75.110     -103.029       -4.440       76.166      140.081       54.957     5801.203    19622.657     3020.323        2.235        1.422      127.501       59.943        0.221      344.561       21.465      867.359
04/26/2013  12:40:00       79.843       69.921       47.209       93.892       55.908       54.400     8815.640     3125.692     2959.337        1.419        0.745      106.131       37.459        0.125      344.664       21.643      867.359
04/26/2013  12:41:00       64.982      101.360        4.339       91.300       87.672       44.170     8335.659     7686.441     1950.948        1.624        0.899      120.402       43.821        0.132      344.554       21.453      867.359
04/26/2013  12:42:00       41.863      150.894      -13.472       37.931       77.273       40.090     1438.765     5971.194     1607.171        1.686        0.451      156.594       37.214        0.056      344.304       21.027      867.358
04/26/2013  12:43:00       36.288      117.401      -22.486       39.296       51.838       30.028     1544.184     2687.169      901.696        1.037        0.257      122.881       26.108        0.045      344.368       21.137      867.346
04/26/2013  12:44:00       60.721       43.659       19.107       38.752       38.994       34.938     1501.739     1520.567     1220.680        0.510        0.212       74.787       16.183        0.047      344.597       21.529      867.337
04/26/2013  12:45:00       68.347       36.787       40.551       71.054       60.948       38.173     5048.736     3714.704     1457.215        0.894        0.511       77.618       34.779        0.201      344.618       21.564      867.330
04/26/2013  12:46:00       66.038      -13.741       39.801       49.336       96.387       41.216     2434.008     9290.483     1698.746        0.978        0.671       67.452       27.779        0.170      344.005       20.517      867.320
04/26/2013  12:47:00       27.262       65.649       -0.265       39.940       29.710       28.979     1595.217      882.684      839.763        0.418        0.166       71.084       21.341        0.090      344.449       21.276      867.313
04/26/2013  12:48:00       -6.727       33.532        2.566       27.690       41.638       24.801      766.742     1733.702      615.108        0.215        0.156       34.200       25.160        0.541      344.976       22.178      867.319
04/26/2013  12:49:00       -3.440      -10.824        9.094       24.123       39.932       26.483      581.906     1594.556      701.337        0.154        0.144       11.357       20.126        3.140      345.067       22.333      867.311
04/26/2013  12:50:00       20.945      -14.075       27.186       85.617       46.018       39.087     7330.208     2117.696     1527.784        0.617        0.549       25.235       36.719        2.117      344.680       21.672      867.306
04/26/2013  12:51:00     -157.797     -139.358      -23.867       44.128       53.940       24.210     1947.267     2909.533      586.118        2.517        0.272      210.524       13.266        0.004      344.275       20.976      867.296
04/26/2013  12:52:00     -107.738      -95.201       -5.124       51.859       36.207       31.195     2689.330     1310.939      973.111        1.283        0.249      143.773       28.296        0.039      344.410       21.211      867.286
04/26/2013  12:53:00      -73.952      -77.408       -6.593       33.642       36.511       24.101     1131.795     1333.036      580.869        0.727        0.152      107.056       18.860        0.031      344.368       21.138      867.280
04/26/2013  12:54:00      -68.775      -35.991      -11.013       13.309       26.488       12.635      177.139      701.602      159.644        0.359        0.052       77.623        9.188        0.014      344.132       20.734      867.268
04/26/2013  12:55:00     -137.746       -1.045      -14.220       51.129       40.904       25.018     2614.215     1673.170      625.925        1.204        0.246      137.750       27.977        0.041      344.116       20.707      867.233
04/26/2013  12:56:00      -27.163      -81.444       -3.242       40.697       72.387       32.450     1656.282     5239.920     1053.002        0.766        0.397       85.854       33.881        0.156      344.656       21.629      867.234
04/26/2013  12:57:00      -13.731      -14.618       10.494       38.712       69.172       34.939     1498.617     4784.733     1220.736        0.401        0.375       20.056       20.693        1.065      344.675       21.662      867.217
04/26/2013  12:58:00      -28.267       -7.621        9.523       39.307       32.738       28.597     1545.046     1071.751      817.776        0.219        0.172       29.277       20.309        0.481      345.074       22.345      867.207
04/26/2013  12:59:00       -2.074      -73.238      -19.332       50.973       56.869       46.333     2598.278     3234.096     2146.716        0.686        0.399       73.267       22.393        0.093      344.848       21.957      867.202
04/26/2013  13:00:00        4.369      -10.710       32.040       59.950       52.401       35.299     3594.019     2745.879     1246.053        0.437        0.379       11.567       36.165        9.776      345.264       22.671      867.187
04/26/2013  13:01:00      -21.078      -58.286       54.579       49.558       49.472       34.242     2455.967     2447.468     1172.547        0.645        0.304       61.980       15.898        0.066      345.123       22.429      867.184
04/26/2013  13:02:00       32.475        5.627       43.819       52.137       52.511       41.826     2718.289     2757.361     1749.375        0.511        0.361       32.959       28.725        0.760      344.935       22.107      867.169
04/26/2013  13:03:00      -10.852        1.639       25.257       31.701       41.805       33.393     1004.976     1747.621     1115.122        0.231        0.193       10.975       20.087        3.350      344.892       22.034      867.165
04/26/2013  13:04:00      -19.107      -76.683       -3.494       53.989       66.496       41.515     2914.849     4421.719     1723.480        0.766        0.453       79.028       28.705        0.132      345.014       22.243      867.152
04/26/2013  13:05:00       37.751      -88.061       -3.452       59.589       92.668       59.780     3550.865     8587.430     3573.663        1.245        0.786       95.812       41.574        0.188      344.946       22.123      867.150
04/26/2013  13:06:00       75.262     -110.899       -1.759       67.820       93.953       60.862     4599.555     8827.168     3704.131        1.755        0.857      134.026       52.567        0.154      344.819       21.907      867.141
04/26/2013  13:07:00      119.586     -181.546      -32.187       86.818      128.221       81.105     7537.397    16440.661     6578.063        3.942        1.528      217.393       80.536        0.137      344.802       21.877      867.134
04/26/2013  13:08:00       53.214       -4.549       52.876       87.791      136.411       95.272     7707.334    18607.879     9076.713        2.051        1.770       53.408      107.193        4.028      344.892       22.033      867.140
04/26/2013  13:09:00       68.316      -64.423       19.884       94.478      131.709       78.760     8925.999    17347.213     6203.145        2.084        1.624       93.901       87.779        0.874      344.926       22.090      867.129
04/26/2013  13:10:00      -22.032        3.990       57.315       51.744       49.686       37.123     2677.454     2468.685     1378.084        0.515        0.326       22.390       25.151        1.262      345.009       22.235      867.130
04/26/2013  13:11:00        7.756       54.691       81.260       48.731       45.035       34.003     2374.691     2028.113     1156.230        0.761        0.278       55.239       31.532        0.326      344.736       21.768      867.118
04/26/2013  13:12:00       88.772       47.215       14.893       30.337       50.323       34.074      920.342     2532.361     1161.005        0.747        0.231      100.547       21.262        0.045      344.222       20.888      867.107
04/26/2013  13:13:00       34.669      -24.640       13.482       37.881       44.781       22.932     1434.978     2005.375      525.860        0.298        0.198       42.533       19.575        0.212      344.617       21.562      867.099
04/26/2013  13:14:00      -28.825      -10.026       20.253       40.518       34.772       23.991     1641.674     1209.059      575.558        0.238        0.171       30.519       28.578        0.877      344.930       22.100      867.097
04/26/2013  13:15:00      111.283       84.713       25.564       73.022       49.285       51.619     5332.225     2429.018     2664.470        1.532        0.521      139.858       24.955        0.032      344.854       21.967      867.100
04/26/2013  13:16:00       18.976       20.533       25.872       71.253       56.830       44.577     5077.025     3229.627     1987.121        0.587        0.515       27.958       46.862        2.809      345.138       22.455      867.093
04/26/2013  13:17:00       35.264       80.189       91.843       91.164       84.382       63.136     8310.933     7120.278     3986.116        1.776        0.971       87.600       59.665        0.464      344.936       22.107      867.085
04/26/2013  13:18:00       82.084       82.650       78.280       87.630       51.307       43.121     7679.028     2632.436     1859.403        1.593        0.609      116.485       34.313        0.087      344.644       21.608      867.074
04/26/2013  13:19:00      117.874       66.809       27.577       46.990       36.576       51.554     2208.033     1337.808     2657.819        1.266        0.310      135.490       20.482        0.023      344.734       21.762      867.068
04/26/2013  13:20:00        7.627       53.629       82.140       66.255       70.692       62.548     4389.733     4997.400     3912.296        1.149        0.665       54.169       57.874        1.141      345.092       22.375      867.052
04/26/2013  13:21:00       87.831       95.573       75.125      105.647       80.422       69.317    11161.358     6467.772     4804.853        2.246        1.122      129.802       52.368        0.163      344.654       21.624      867.044
04/26/2013  13:22:00      116.047       88.470       13.883       49.877       44.829       45.257     2487.712     2009.666     2048.215        1.401        0.327      145.924       24.566        0.028      344.560       21.465      867.046
04/26/2013  13:23:00       94.961       46.993        0.930       30.004       27.798       36.297      900.241      772.713     1317.466        0.711        0.150      105.952       15.791        0.022      344.588       21.513      867.036
04/26/2013  13:24:00       59.790       44.946       16.650       41.053       38.976       43.777     1685.346     1519.111     1916.394        0.550        0.256       74.799       21.885        0.086      344.721       21.741      867.021
04/26/2013  13:25:00       42.870      113.378        4.741       65.049      106.450       48.318     4231.426    11331.686     2334.651        1.630        0.895      121.212       55.702        0.211      345.210       22.577      867.009
04/26/2013  13:26:00       72.648      119.082       24.088       98.925       83.763       68.364     9786.113     7016.253     4673.620        2.075        1.074      139.493       53.348        0.146      345.396       22.893      866.990
04/26/2013  13:27:00      101.438      121.469       33.324      114.063       79.664       61.604    13010.290     6346.410     3794.999        2.465        1.158      158.255       29.749        0.035      345.775       23.545      866.997
04/26/2013  13:28:00      273.422      163.564       36.142       94.002       63.781       72.689     8836.416     4067.957     5283.714        6.050        0.909      318.611       47.565        0.022      344.810       21.891      867.023
04/26/2013  13:29:00      204.289      112.997        8.225       66.116       55.661       43.407     4371.312     3098.175     1884.171        3.196        0.468      233.457       33.270        0.020      344.458       21.288      867.036
04/26/2013  13:30:00      117.365       78.909       27.413       85.411       60.992       51.796     7295.071     3719.965     2682.850        1.722        0.685      141.426       32.195        0.052      344.831       21.928      867.038
04/26/2013  13:31:00      131.732      123.145       16.563       83.486       66.642       46.221     6969.869     4441.198     2136.401        2.317        0.677      180.328       25.963        0.021      344.818       21.904      867.042
04/26/2013  13:32:00       41.180      175.292      -13.615       55.448       72.322       40.825     3074.473     5230.509     1666.666        2.129        0.499      180.064       40.325        0.050      344.636       21.594      867.049
04/26/2013  13:33:00       -1.340       73.925      -15.174       84.199       87.671       33.321     7089.423     7686.288     1110.308        1.079        0.794       73.937       31.975        0.187      344.596       21.526      867.028
04/26/2013  13:34:00      -47.410       -1.828      -29.168       65.274       86.436       27.782     4260.688     7471.181      771.813        0.780        0.625       47.446       26.009        0.301      344.690       21.689      867.000
04/26/2013  13:35:00       51.506      -13.484        9.260       70.721       74.680       50.544     5001.520     5577.133     2554.724        0.802        0.657       53.241       48.561        0.832      344.780       21.841      866.981
04/26/2013  13:36:00      130.417      108.047       58.062      112.513       99.332       65.893    12659.102     9866.819     4341.898        2.946        1.343      169.360       61.244        0.131      344.958       22.145      866.989
04/26/2013  13:37:00      144.562      113.851       44.329       96.446       84.469       77.497     9301.835     7135.091     6005.725        2.913        1.122      184.012       44.840        0.059      344.897       22.041      866.988
04/26/2013  13:38:00      177.351      120.094       49.347       58.751       46.259       58.065     3451.680     2139.872     3371.523        2.864        0.448      214.187       26.995        0.016      344.522       21.398      866.996
04/26/2013  13:39:00      203.269      140.024       47.989       67.586       53.627       50.880     4567.842     2875.884     2588.780        3.663        0.502      246.830       29.963        0.015      344.528       21.407      866.996
04/26/2013  13:40:00      147.038       74.948       24.284       58.558       51.586       46.473     3429.049     2661.157     2159.714        1.804        0.412      165.037       20.669        0.016      344.604       21.540      866.984
04/26/2013  13:41:00      135.007      170.388        0.754      126.559       96.177       54.151    16017.146     9250.092     2932.298        3.772        1.410      217.391       26.842        0.015      344.785       21.848      866.978
04/26/2013  13:42:00       94.090       97.136       49.734      111.634       66.654       76.697    12462.138     4442.705     5882.464        2.177        1.139      135.234       60.759        0.202      345.062       22.323      866.972
04/26/2013  13:43:00      181.511      122.707       63.598       79.388       72.634       61.117     6302.514     5275.711     3735.278        3.368        0.766      219.097       29.580        0.018      345.168       22.503      866.971
04/26/2013  13:44:00       85.043       88.411       36.525       81.722       48.006       59.418     6678.411     2304.561     3530.486        1.445        0.626      122.674       37.830        0.095      344.839       21.942      866.972
04/26/2013  13:45:00      130.902       90.783       18.841       69.953       50.822       41.745     4893.405     2582.921     1742.648        1.747        0.461      159.301       20.098        0.016      345.126       22.432      866.967
04/26/2013  13:46:00      163.822       78.767       20.216      103.148       80.271       61.948    10639.545     6443.440     3837.574        2.718        1.046      181.775       59.578        0.107      345.221       22.595      866.971
04/26/2013  13:47:00      121.302       95.577       17.455       49.797       41.106       35.819     2479.729     1689.714     1283.009        1.480        0.273      154.432       30.363        0.039      344.471       21.314      866.970
04/26/2013  13:48:00       57.616       44.230       27.290       41.608       30.819       23.449     1731.241      949.833      549.836        0.463        0.162       72.635       16.162        0.050      344.752       21.794      866.942
04/26/2013  13:49:00      132.896       77.729       35.264       90.787       62.421       57.229     8242.203     3896.354     3275.176        2.018        0.771      153.958       41.841        0.074      344.978       22.180      866.938
04/26/2013  13:50:00      250.461      100.698       37.775      139.466       97.720       73.640    19450.807     9549.105     5422.898        5.435        1.721      269.946       49.841        0.034      344.928       22.092      866.928
04/26/2013  13:51:00      159.506      122.692       65.455      102.626       72.766       68.775    10532.117     5294.883     4729.946        3.266        1.028      201.235       58.268        0.084      344.997       22.210      866.915
04/26/2013  13:52:00       86.427      154.858        9.236      103.735       81.730       75.639    10760.904     6679.779     5721.190        2.734        1.158      177.343       60.795        0.118      345.274       22.685      866.916
04/26/2013  13:53:00       42.304      203.549      -19.582       60.282      115.233       65.150     3633.876    13278.577     4244.504        3.238        1.058      207.899       70.649        0.115      344.915       22.068      866.917
04/26/2013  13:54:00      -58.617      217.828      -31.618       44.291       69.311       31.191     1961.709     4804.016      972.864        2.981        0.387      225.576       27.581        0.015      344.679       21.665      866.913
04/26/2013  13:55:00      -47.833      149.418      -12.954       36.422       73.554       35.252     1326.583     5410.207     1242.695        1.638        0.399      156.888       40.679        0.067      345.144       22.465      866.887
04/26/2013  13:56:00      105.201      139.136        2.553      103.375       78.315       53.979    10686.297     6133.183     2913.749        2.508        0.987      174.430       47.285        0.073      345.107       22.401      866.882
04/26/2013  13:57:00      221.377      139.608        2.023       72.485       59.041       53.461     5254.024     3485.790     2858.100        4.005        0.580      261.722       33.463        0.016      344.818       21.901      866.877
04/26/2013  13:58:00      129.530      134.164       -3.035       89.267       68.485       43.601     7968.549     4690.220     1901.005        2.467        0.728      186.488       34.722        0.035      344.797       21.868      866.882
04/26/2013  13:59:00      168.052      107.153       14.528       73.926       51.857       50.393     5464.983     2689.136     2539.500        2.531        0.535      199.307       26.430        0.018      345.000       22.216      866.873
04/26/2013  14:00:00       85.603      106.106       69.752       67.333       67.150       43.388     4533.763     4509.171     1882.498        1.719        0.546      136.332       37.973        0.078      345.100       22.389      866.893
04/26/2013  14:01:00      -15.309       14.706       14.397       32.042       31.318       27.615     1026.708      980.823      762.572        0.171        0.139       21.228       21.164        0.994      345.200       22.561      866.904
04/26/2013  14:02:00        3.245       11.038        5.510       26.436       23.115       27.299      698.844      534.305      745.237        0.107        0.099       11.505       10.546        0.840      345.494       23.065      866.890
04/26/2013  14:03:00       -2.581        0.924       -0.397       22.387       20.555       16.963      501.175      422.499      287.739        0.061        0.061        2.741       11.289       16.960      345.015       22.244      866.878
04/26/2013  14:04:00       11.464       12.508       -9.398       18.592       15.100       17.028      345.657      228.000      289.965        0.062        0.043       16.966       11.990        0.499      345.013       22.240      866.873
04/26/2013  14:05:00       49.186       65.222      -15.876       20.065       30.059       20.759      402.585      903.564      430.920        0.433        0.087       81.690       17.629        0.047      344.651       21.621      866.851
04/26/2013  14:06:00      -21.510       15.140       27.544       50.823       22.911       26.237     2583.016      524.926      688.367        0.262        0.190       26.304       27.948        1.129      345.245       22.638      866.837
04/26/2013  14:07:00      -77.111       23.175      -12.939       37.990       25.802       25.351     1443.259      665.755      642.690        0.470        0.138       80.518       16.715        0.043      344.926       22.091      866.831
04/26/2013  14:08:00     -106.631      -22.472       -3.632       64.414       36.415       22.421     4149.163     1326.027      502.699        0.893        0.299      108.973       28.336        0.068      344.943       22.121      866.815
04/26/2013  14:09:00     -162.274       -2.595      -13.651       30.246       64.785       28.424      914.809     4197.145      807.914        1.622        0.296      162.294       12.826        0.006      345.136       22.452      866.802
04/26/2013  14:10:00      -91.840       58.448      -12.430       55.470       38.150       28.614     3076.929     1455.456      818.777        0.868        0.268      108.861       32.960        0.092      345.226       22.606      866.789
04/26/2013  14:11:00       11.648       40.411       22.538       35.019       28.819       26.801     1226.360      830.515      718.282        0.253        0.139       42.056       22.622        0.289      345.569       23.193      866.789
04/26/2013  14:12:00       35.017       21.067       20.904       20.569       20.648       23.336      423.102      426.330      544.558        0.175        0.070       40.866       12.141        0.088      345.213       22.584      866.777
04/26/2013  14:13:00      -92.740        3.333        7.248       78.635       45.271       31.163     6183.399     2049.442      971.108        0.893        0.460       92.800       28.660        0.095      345.363       22.840      866.758
04/26/2013  14:14:00     -197.366      -46.247       -4.338       83.017       67.056       28.979     6891.795     4496.524      839.795        2.667        0.611      202.712       18.743        0.009      345.095       22.380      866.748
04/26/2013  14:15:00     -156.310      -60.581       -8.203       65.097       63.646       24.248     4237.612     4050.755      587.965        1.852        0.444      167.639       27.149        0.026      344.852       21.962      866.738
04/26/2013  14:16:00     -218.193      -78.943      -16.008       51.830       34.638       23.528     2686.320     1199.779      553.572        2.927        0.222      232.034       19.452        0.007      344.856       21.969      866.738
04/26/2013  14:17:00      -32.773      -32.838        4.188       58.361       47.905       32.563     3406.054     2294.873     1060.345        0.446        0.338       46.395       37.275        0.646      345.213       22.585      866.724
04/26/2013  14:18:00     -124.432      -32.058       -7.493       54.976       49.627       29.346     3022.347     2462.874      861.181        1.146        0.317      128.495       27.571        0.046      345.357       22.829      866.711
04/26/2013  14:19:00     -297.080     -109.785       -1.664       88.720       75.681       45.296     7871.171     5727.582     2051.736        5.798        0.783      316.716       33.686        0.011      345.071       22.335      866.695
04/26/2013  14:20:00     -230.244     -112.220      -15.040      114.631       60.656       32.424    13140.188     3679.194     1051.320        4.185        0.894      256.136       41.199        0.026      344.878       22.006      866.686
04/26/2013  14:21:00      -53.371      -18.313       36.934       84.103       83.769       51.320     7073.300     7017.230     2633.716        1.063        0.836       56.425       45.487        0.650      345.546       23.151      866.672
04/26/2013  14:22:00     -119.262       88.553       -0.739       74.124       55.141       35.956     5494.393     3040.569     1292.816        1.594        0.491      148.543       33.241        0.050      345.333       22.787      866.655
04/26/2013  14:23:00     -104.240       26.517       -3.518       67.932       51.957       39.272     4614.744     2699.486     1542.318        1.022        0.443      107.560       32.746        0.093      345.666       23.359      866.656
04/26/2013  14:24:00     -101.966       -8.134        9.158       70.666       48.486       38.511     4993.716     2350.933     1483.088        0.969        0.441      102.290       38.945        0.145      345.657       23.344      866.655
04/26/2013  14:25:00      -77.921      -32.634       10.117       58.294       51.310       30.710     3398.162     2632.699      943.123        0.711        0.349       84.479       31.640        0.140      345.464       23.013      866.645
04/26/2013  14:26:00      -68.048       13.345       -8.348       43.521       30.510       31.259     1894.106      930.837      977.111        0.434        0.190       69.345       24.229        0.122      345.204       22.568      866.640
04/26/2013  14:27:00      -46.562       25.102      -18.507       23.750       22.691       20.468      564.078      514.888      418.943        0.232        0.075       52.898       12.726        0.058      345.235       22.621      866.646
04/26/2013  14:28:00       50.037       63.526        7.442       53.271       67.233       34.035     2837.757     4520.210     1158.401        0.755        0.426       80.866       36.772        0.207      345.591       23.230      866.637
04/26/2013  14:29:00       80.177       77.655        5.975       43.056       50.967       39.089     1853.791     2597.609     1527.987        0.924        0.299      111.618       30.984        0.077      345.229       22.610      866.627
04/26/2013  14:30:00       89.099       60.773       21.099       68.798       53.785       46.263     4733.135     2892.854     2140.255        1.092        0.488      107.851       22.148        0.042      345.439       22.971      866.615
04/26/2013  14:31:00       42.877       25.871       10.986       60.701       45.677       27.964     3684.628     2086.403      781.978        0.459        0.328       50.077       25.629        0.262      345.546       23.153      866.609
04/26/2013  14:32:00       54.534       93.900        8.363       60.206       54.251       46.112     3624.710     2943.195     2126.282        1.028        0.435      108.587       37.004        0.116      345.553       23.165      866.616
04/26/2013  14:33:00       88.574      161.495        2.096       85.361      126.511       63.066     7286.444    16005.054     3977.266        3.059        1.363      184.190       70.013        0.144      345.379       22.863      866.604
04/26/2013  14:34:00       93.524      109.313        5.630       92.663       75.311       48.079     8586.497     5671.777     2311.619        1.865        0.828      143.861       36.791        0.065      345.477       23.034      866.621
04/26/2013  14:35:00       77.513       71.622       16.766       90.949       81.438       48.734     8271.798     6632.162     2375.013        1.435        0.864      105.537       23.471        0.049      345.333       22.787      866.632
04/26/2013  14:36:00      -60.872       31.668        5.537       44.033       35.959       32.530     1938.914     1293.043     1058.231        0.451        0.215       68.617        5.782        0.007      345.411       22.922      866.597
04/26/2013  14:37:00       18.654      139.347        9.942       34.890       68.746       49.589     1217.278     4726.033     2459.105        1.413        0.420      140.590       49.546        0.124      345.375       22.861      866.590
04/26/2013  14:38:00     -110.568      152.041      -32.750       71.871       60.224       45.378     5165.488     3626.944     2059.170        2.363        0.543      187.994       36.029        0.037      345.111       22.406      866.570
04/26/2013  14:39:00        3.974      140.683      -21.509      172.748       92.169       71.073    29841.964     8495.124     5051.385        3.182        2.169      140.739       77.965        0.307      345.344       22.805      866.539
04/26/2013  14:40:00       12.381      281.663      -38.260       73.175      100.855       42.376     5354.524    10171.721     1795.740        4.913        0.866      281.935       51.036        0.033      345.125       22.427      866.537
04/26/2013  14:41:00       -7.037      177.480      -14.459       59.804       87.112       44.795     3576.507     7588.491     2006.605        2.246        0.659      177.619       38.639        0.047      345.357       22.827      866.522
04/26/2013  14:42:00        0.826      232.710      -26.345       60.172       77.179       42.133     3620.621     5956.634     1775.209        3.310        0.568      232.711       37.034        0.025      345.405       22.907      866.516
04/26/2013  14:43:00       13.333       69.418        4.833       29.897       87.768       34.912      893.841     7703.145     1218.837        0.742        0.491       70.687       48.555        0.472      345.737       23.481      866.513
04/26/2013  14:44:00      -43.841       39.792        7.612       53.902       58.534       33.594     2905.471     3426.278     1128.524        0.551        0.373       59.207       42.444        0.514      345.662       23.351      866.495
04/26/2013  14:45:00     -118.438       85.240      -35.160       34.041       55.940       28.580     1158.788     3129.271      816.803        1.382        0.255      145.923       28.186        0.037      345.234       22.618      866.468
04/26/2013  14:46:00     -153.742       17.097      -31.398       69.800       40.850       28.606     4871.991     1668.719      818.286        1.614        0.368      154.690       31.210        0.041      345.074       22.343      866.443
04/26/2013  14:47:00       32.787       21.078       21.304       50.022       37.921       34.610     2502.219     1437.976     1197.826        0.355        0.257       38.978       30.412        0.609      345.659       23.348      866.430
04/26/2013  14:48:00        8.306       32.842       16.749       55.475       75.273       52.528     3077.461     5666.040     2759.168        0.646        0.575       33.876       34.296        1.025      345.902       23.765      866.415
04/26/2013  14:49:00       71.326       56.798       61.685       75.990       70.540       61.745     5774.531     4975.837     3812.476        1.334        0.728       91.178       45.702        0.251      345.682       23.388      866.398
04/26/2013  14:50:00       12.028      171.432      -11.403      107.488       72.531       45.287    11553.573     5260.763     2050.899        2.426        0.943      171.854       31.396        0.033      345.377       22.862      866.387
04/26/2013  14:51:00      -54.689      163.185      -32.775       61.615       71.776       32.982     3796.368     5151.847     1087.837        2.036        0.502      172.105       34.886        0.041      345.500       23.073      866.359
04/26/2013  14:52:00        1.953       66.559       13.818       30.299       54.247       34.370      918.016     2942.728     1181.301        0.483        0.252       66.587       33.411        0.252      345.955       23.857      866.353
04/26/2013  14:53:00      -44.113      117.106       -8.887       47.519       58.339       36.003     2258.049     3403.490     1296.182        1.135        0.348      125.139       36.166        0.084      345.796       23.582      866.350
04/26/2013  14:54:00       80.251      -30.302        8.646       60.526       66.109       37.803     3663.370     4370.406     1429.103        0.845        0.473       85.781       13.739        0.026      345.642       23.320      866.355
04/26/2013  14:55:00       31.206       -9.182       45.467       54.264       60.833       52.608     2944.534     3700.631     2767.588        0.627        0.471       32.529       45.755        1.978      345.564       23.184      866.345
04/26/2013  14:56:00       40.497      -53.754       17.882       54.729      107.516       41.669     2995.293    11559.754     1736.316        1.057        0.815       67.301       42.714        0.403      345.837       23.652      866.322
04/26/2013  14:57:00      194.068      119.836       63.855      104.401       70.510       54.689    10899.533     4971.675     2990.908        3.748        0.943      228.086       35.441        0.024      345.478       23.034      866.313
04/26/2013  14:58:00      150.510       90.305       46.023      130.814       68.539       51.575    17112.424     4697.654     2660.006        2.869        1.224      175.523       45.751        0.068      345.741       23.485      866.313
04/26/2013  14:59:00      204.884      115.540       37.542      112.420       65.751       57.219    12638.244     4323.228     3273.979        3.848        1.012      235.216       40.320        0.029      345.443       22.974      866.322
04/26/2013  15:00:00       66.739       42.483       30.670       73.206       62.787       52.620     5359.077     3942.165     2768.904        0.963        0.604       79.114       26.022        0.108      346.073       24.059      866.320
04/26/2013  15:01:00        6.425       69.933        7.149       79.262       66.346       46.698     6282.443     4401.732     2180.750        0.892        0.643       70.227       48.596        0.479      346.065       24.043      866.298
04/26/2013  15:02:00      -80.624      230.661      -30.727      129.923      103.858       55.850    16879.973    10786.571     3119.250        4.571        1.539      244.346       59.644        0.060      345.662       23.351      866.283
04/26/2013  15:03:00       -6.847      278.731      -17.404      111.093      134.311       80.275    12341.614    18039.464     6444.032        5.743        1.841      278.815       83.182        0.089      345.774       23.542      866.277
04/26/2013  15:04:00       42.344      221.083      -11.278       93.650      144.724       68.980     8770.398    20945.065     4758.295        4.263        1.724      225.101       76.747        0.116      345.771       23.537      866.303
04/26/2013  15:05:00      -15.481      195.892      -21.444       49.245       68.307       45.685     2425.029     4665.791     2087.162        2.412        0.459      196.503       32.127        0.027      345.520       23.107      866.295
04/26/2013  15:06:00       59.032      212.335      -15.935       67.219      136.751       50.902     4518.367    18700.857     2591.015        3.731        1.291      220.388       65.403        0.088      345.799       23.586      866.284
04/26/2013  15:07:00       37.174      227.763      -20.776       69.382      124.108       67.034     4813.814    15402.795     4493.546        3.920        1.236      230.777       64.655        0.078      345.594       23.233      866.280
04/26/2013  15:08:00       31.071      105.108       -9.053       85.262       79.288       58.042     7269.606     6286.560     3368.885        1.451        0.846      109.604       53.255        0.236      345.726       23.463      866.284
04/26/2013  15:09:00       51.667      146.678       -5.161       77.878       72.209       46.159     6064.935     5214.196     2130.612        1.881        0.670      155.512       40.740        0.069      345.715       23.441      866.290
04/26/2013  15:10:00       86.537       53.912        2.977       39.154       48.868       35.883     1533.064     2388.036     1287.603        0.781        0.260      101.956       11.625        0.013      345.397       22.897      866.265
04/26/2013  15:11:00      146.079       88.455       13.583       48.154       41.630       38.507     2318.808     1733.077     1482.773        1.744        0.277      170.773       14.743        0.007      345.591       23.231      866.250
04/26/2013  15:12:00      103.849      123.777       -7.239       84.510       76.721       50.275     7141.894     5886.174     2527.619        2.085        0.778      161.571       50.961        0.099      345.610       23.261      866.257
04/26/2013  15:13:00       32.398       93.723       19.564       90.222       67.233       49.102     8140.095     4520.332     2410.965        1.264        0.754       99.164       43.568        0.193      345.633       23.302      866.225
04/26/2013  15:14:00      -63.143       55.284        7.956       74.930       46.231       39.921     5614.526     2137.335     1593.676        0.822        0.467       83.924       31.143        0.138      345.830       23.640      866.219
04/26/2013  15:15:00       65.094       57.587       26.355       68.027       53.929       46.672     4627.698     2908.371     2178.297        0.898        0.486       86.911       31.585        0.132      345.969       23.880      866.217
04/26/2013  15:16:00      -21.374      161.511       -9.347       70.011       99.539       47.591     4901.529     9907.913     2264.879        2.185        0.854      162.919       51.284        0.099      346.015       23.955      866.212
04/26/2013  15:17:00      -71.556      144.760      -20.495       62.218       83.335       44.449     3871.124     6944.647     1975.703        1.964        0.640      161.480       46.097        0.081      345.920       23.793      866.209
04/26/2013  15:18:00      -12.146      159.732      -22.589       39.564       98.586       37.654     1565.281     9719.297     1417.831        1.943        0.635      160.193       50.060        0.098      345.534       23.132      866.196
04/26/2013  15:19:00      -25.099      132.189       10.615       33.639      100.484       39.984     1131.585    10097.106     1598.731        1.552        0.641      134.550       42.902        0.102      345.897       23.756      866.192
04/26/2013  15:20:00       77.619      116.792       29.501       98.837       71.723       46.288     9768.849     5144.217     2142.598        1.879        0.853      140.232       32.360        0.053      345.912       23.779      866.174
04/26/2013  15:21:00      123.821      140.862       11.486      106.256      104.848       92.912    11290.441    10993.045     8632.592        3.310        1.546      187.547       76.759        0.168      345.655       23.338      866.146
04/26/2013  15:22:00      229.318      174.827        6.059      116.154       95.349       60.341    13491.794     9091.452     3641.090        5.470        1.311      288.360       45.598        0.025      345.462       23.006      866.132
04/26/2013  15:23:00      102.495      163.046        9.632      131.801       91.135       61.102    17371.617     8305.607     3733.414        3.329        1.471      192.586       56.553        0.086      345.494       23.062      866.114
04/26/2013  15:24:00      164.124      119.290       15.262       79.358       59.131       55.074     6297.757     3496.450     3033.189        2.711        0.641      202.896       40.332        0.040      345.479       23.035      866.098
04/26/2013  15:25:00      178.427      156.357       -2.456       90.895       73.793       60.802     8261.913     5445.392     3696.867        3.684        0.870      237.242       55.539        0.055      345.468       23.015      866.056
04/26/2013  15:26:00      250.898      127.401       53.002      132.680      111.804       79.243    17604.031    12500.035     6279.460        5.918        1.819      281.391       45.548        0.026      345.611       23.262      866.041
04/26/2013  15:27:00      133.849      127.115       18.375       94.964       69.155       80.209     9018.166     4782.399     6433.552        2.732        1.012      184.590       49.906        0.073      345.608       23.258      866.059
04/26/2013  15:28:00      152.817      120.695        8.220       95.337       55.569       58.189     9089.203     3087.961     3385.920        2.677        0.778      194.731       43.048        0.049      345.442       22.972      866.040
04/26/2013  15:29:00      153.252       71.384       15.333       74.880       70.338       48.530     5607.052     4947.434     2355.123        2.086        0.645      169.061       31.849        0.035      345.667       23.359      866.032
04/26/2013  15:30:00       59.849      -80.128        4.065       60.332       78.069       26.563     3639.994     6094.809      705.609        1.023        0.522      100.012       34.327        0.118      345.464       23.013      866.031
04/26/2013  15:31:00       44.141      -49.321       12.683       44.592       52.384       25.659     1988.477     2744.132      658.387        0.497        0.270       66.189       28.782        0.189      345.600       23.246      865.986
04/26/2013  15:32:00      -22.640      -91.582      -18.716       47.236       62.788       26.223     2231.270     3942.300      687.663        0.805        0.343       94.339       18.670        0.039      345.653       23.338      865.967
04/26/2013  15:33:00      -10.739       -1.556       13.726       70.802       29.432       30.177     5012.938      866.267      910.624        0.355        0.339       10.851       20.159        3.451      345.894       23.751      865.956
04/26/2013  15:34:00       60.392      -83.402       16.864       34.014       87.114       37.305     1156.949     7588.930     1391.641        1.051        0.507      102.971       45.282        0.193      345.662       23.352      865.950
04/26/2013  15:35:00        9.273      -35.651       18.887       27.939       69.654       32.761      780.562     4851.650     1073.279        0.421        0.335       36.837       43.066        1.367      345.746       23.496      865.928
04/26/2013  15:36:00       24.781        0.419       28.368       42.427       53.129       32.185     1800.068     2822.666     1035.894        0.354        0.283       24.785       26.756        1.165      345.422       22.942      865.930
04/26/2013  15:37:00       38.690      -61.766       14.892       73.153       70.584       54.167     5351.353     4982.134     2934.116        0.940        0.663       72.883       35.538        0.238      345.748       23.500      865.894
04/26/2013  15:38:00       70.388       42.809       53.468      115.193      120.181       78.803    13269.478    14443.376     6209.928        2.178        1.696       82.383       60.842        0.545      345.944       23.835      865.872
04/26/2013  15:39:00      128.179       78.745       27.514      112.022       89.700       59.415    12548.996     8046.062     3530.133        2.375        1.206      150.435       43.184        0.082      346.297       24.442      865.892
04/26/2013  15:40:00       45.860      123.602        7.124       63.726       82.938       60.331     4061.008     6878.747     3639.888        1.600        0.729      131.836       51.955        0.155      345.879       23.724      865.887
04/26/2013  15:41:00       67.648      123.361       -4.206       75.864       91.854       52.590     5755.320     8437.209     2765.683        1.838        0.848      140.692       50.621        0.129      345.923       23.800      865.871
04/26/2013  15:42:00      104.622      108.572       -5.696       93.009       63.954       46.911     8650.663     4090.095     2200.677        1.885        0.747      150.777       37.898        0.063      346.191       24.259      865.860
04/26/2013  15:43:00       24.293       32.599       20.451       55.156       44.248       32.567     3042.188     1957.854     1060.594        0.406        0.303       40.656       25.986        0.409      346.118       24.136      865.853
04/26/2013  15:44:00      113.637      107.298       26.733       89.490       65.900       73.423     8008.524     4342.872     5390.985        2.144        0.887      156.289       45.827        0.086      345.853       23.679      865.840
04/26/2013  15:45:00       62.798       18.159       36.028       66.217       71.801       35.678     4384.704     5155.389     1272.905        0.819        0.541       65.371       21.562        0.109      345.530       23.126      865.833
04/26/2013  15:46:00       58.616       54.473       22.890       44.464       49.349       37.380     1977.042     2435.291     1397.261        0.637        0.290       80.020       28.237        0.125      345.484       23.047      865.810
04/26/2013  15:47:00        7.751       39.301       -0.980       22.367       25.440       20.898      500.287      647.183      436.707        0.159        0.079       40.058       17.325        0.187      345.649       23.332      865.782
04/26/2013  15:48:00       34.185       26.324        8.497       27.539       21.793       26.356      758.394      474.943      694.663        0.193        0.096       43.146       13.124        0.093      345.300       22.731      865.774
04/26/2013  15:49:00       65.406       45.605       38.844       42.631       43.081       48.817     1817.442     1855.941     2383.106        0.696        0.303       79.736       37.980        0.227      344.989       22.199      865.766
04/26/2013  15:50:00      114.312      111.948       67.788       83.114       53.940       64.642     6908.013     2909.472     4178.622        2.209        0.700      159.999       57.040        0.127      345.241       22.629      865.755
04/26/2013  15:51:00       73.860       72.382       17.549       58.572       37.543       36.564     3430.626     1409.503     1336.936        0.859        0.309      103.414       12.204        0.014      345.660       23.348      865.758
04/26/2013  15:52:00       59.769      -14.806       -2.225       40.859       63.519       31.726     1669.463     4034.601     1006.538        0.525        0.336       61.575       23.327        0.144      345.779       23.553      865.742
04/26/2013  15:53:00       37.305      -76.455      -13.123       33.675       37.609       25.443     1134.019     1414.439      647.366        0.530        0.160       85.071       13.703        0.026      345.563       23.181      865.736
04/26/2013  15:54:00       76.066      -41.234       36.045       96.446       70.936       45.412     9301.778     5031.953     2062.280        1.259        0.820       86.524       33.212        0.147      345.589       23.227      865.729
04/26/2013  15:55:00       68.770       59.155       58.139      108.096       74.482       59.525    11684.658     5547.584     3543.246        1.619        1.039       90.712       37.776        0.173      345.872       23.712      865.728
04/26/2013  15:56:00       57.331       -7.209       38.095       56.348       91.257       52.771     3175.081     8327.929     2784.801        0.954        0.714       57.782       54.919        0.903      345.299       22.730      865.735
04/26/2013  15:57:00      167.800       88.614       38.893       92.159       63.187       45.684     8493.316     3992.644     2087.021        2.604        0.729      189.762       22.205        0.014      345.603       23.250      865.730
04/26/2013  15:58:00      185.322       90.993       42.538       59.923       44.526       46.835     3590.781     1982.597     2193.551        2.610        0.388      206.456       37.545        0.033      345.446       22.977      865.737
04/26/2013  15:59:00      143.507       78.450       41.110       54.572       52.487       37.364     2978.138     2754.916     1396.057        1.778        0.356      163.550       16.323        0.010      345.465       23.014      865.736
04/26/2013  16:00:00       18.445       40.729       62.213       43.373       50.150       43.019     1881.199     2514.986     1850.606        0.606        0.312       44.711       29.284        0.429      345.737       23.482      865.735
04/26/2013  16:01:00       27.252      -22.154       22.131       24.741       37.850       33.182      612.094     1432.633     1101.073        0.243        0.157       35.121       23.609        0.452      345.257       22.660      865.729
04/26/2013  16:02:00       13.416       12.462        3.506       55.705       32.600       31.664     3103.002     1062.734     1002.585        0.276        0.258       18.311       23.195        1.605      345.625       23.289      865.716
04/26/2013  16:03:00        3.070       20.791        5.230       38.617       19.837       24.041     1491.288      393.490      577.979        0.147        0.123       21.017       14.502        0.476      345.952       23.852      865.703
04/26/2013  16:04:00       11.215      -17.753        4.942       60.027       43.263       19.212     3603.279     1871.701      369.112        0.315        0.292       20.999       20.356        0.940      345.913       23.785      865.687
04/26/2013  16:05:00       89.568      -88.864        4.150       44.419       40.066       34.796     1973.048     1605.262     1210.744        1.036        0.239      126.171       28.004        0.049      345.630       23.297      865.683
04/26/2013  16:06:00       18.333      -47.786       22.465       39.668       38.061       32.894     1573.589     1448.628     1082.022        0.361        0.205       51.182       21.370        0.174      345.818       23.620      865.664
04/26/2013  16:07:00      -30.618      -18.753       12.242       22.393       44.934       25.295      501.468     2019.101      639.817        0.230        0.158       35.905       11.704        0.106      345.983       23.905      865.652
04/26/2013  16:08:00       29.702      -37.632       13.729       37.579       34.899       38.917     1412.202     1217.930     1514.544        0.331        0.207       47.941       26.579        0.307      345.776       23.548      865.645
04/26/2013  16:09:00       36.312      -21.232       20.940       33.940       29.025       26.637     1151.935      842.431      709.549        0.246        0.135       42.064       17.278        0.169      345.602       23.249      865.644
04/26/2013  16:10:00       32.231      -27.685       12.481       29.659       28.710       24.369      879.647      824.288      593.861        0.213        0.115       42.489       12.179        0.082      345.484       23.047      865.629
04/26/2013  16:11:00      -54.268       61.633      -14.635       45.616       41.651       32.162     2080.799     1734.773     1034.424        0.590        0.242       82.120       17.571        0.046      345.808       23.604      865.624
04/26/2013  16:12:00      -21.861       44.502       10.422       39.969       36.117       21.200     1597.495     1304.410      449.448        0.296        0.168       49.581       22.845        0.212      346.113       24.128      865.612
04/26/2013  16:13:00       -6.710       35.503        9.154       34.018       27.604       30.492     1157.192      761.973      929.756        0.212        0.142       36.132       12.172        0.113      345.796       23.582      865.594
04/26/2013  16:14:00      -66.678        4.713        4.296       64.036       31.493       35.397     4100.568      991.835     1252.971        0.541        0.317       66.844       43.329        0.420      346.100       24.105      865.581
04/26/2013  16:15:00       19.760      -45.132       16.658       34.816       35.821       21.938     1212.164     1283.120      481.267        0.284        0.149       49.268       15.569        0.100      346.036       23.996      865.569
04/26/2013  16:16:00       -5.640      -55.386       12.488       38.378       84.152       32.555     1472.853     7081.588     1059.800        0.643        0.481       55.672       41.331        0.551      345.885       23.735      865.552
04/26/2013  16:17:00       38.120      -15.126      -10.058       43.608       48.465       32.804     1901.642     2348.881     1076.081        0.355        0.266       41.011       34.380        0.703      345.080       22.355      865.550
04/26/2013  16:18:00      -30.759        7.126       18.196       36.829       24.294       22.703     1356.365      590.216      515.419        0.189        0.123       31.573       19.378        0.377      346.084       24.078      865.535
04/26/2013  16:19:00     -110.529       15.690       -3.920       40.243       27.901       22.159     1619.484      778.449      491.018        0.768        0.144      111.637       20.989        0.035      346.104       24.112      865.513
04/26/2013  16:20:00      -37.632       17.178        8.836       53.403       30.788       27.990     2851.838      947.872      783.452        0.319        0.229       41.367       31.035        0.563      346.312       24.469      865.510
04/26/2013  16:21:00       53.951       28.922       25.086       26.094       28.405       27.793      680.878      806.846      772.466        0.332        0.113       61.214       15.566        0.065      346.002       23.936      865.529
04/26/2013  16:22:00       56.957       -7.733       34.902       63.241       68.988       52.584     3999.370     4759.350     2765.029        0.802        0.576       57.480       53.017        0.851      345.033       22.275      865.517
04/26/2013  16:23:00       88.302      115.084      136.437      103.455       98.670       79.126    10702.898     9735.703     6260.956        3.317        1.335      145.057       65.842        0.206      345.510       23.090      865.484
04/26/2013  16:24:00      123.552       71.235       43.067       61.354       55.874       49.524     3764.301     3121.886     2452.670        1.576        0.467      142.617       29.749        0.044      345.762       23.524      865.487
04/26/2013  16:25:00       63.585      167.433       -7.986       80.671       82.648       67.933     6507.867     6830.672     4614.894        2.504        0.898      179.100       52.044        0.084      345.835       23.648      865.487
04/26/2013  16:26:00       62.066      203.289      -12.730       78.232      109.699       71.642     6120.280    12033.948     5132.527        3.431        1.164      212.552       66.150        0.097      345.786       23.564      865.478
04/26/2013  16:27:00       22.223      252.815      -49.484       55.611       59.083       26.356     3092.608     3490.824      694.618        3.707        0.364      253.790       25.290        0.010      345.799       23.584      865.480
04/26/2013  16:28:00       59.642       92.526        4.468       96.424       66.525       40.911     9297.543     4425.559     1673.686        1.376        0.770      110.083       33.668        0.094      345.894       23.750      865.477
04/26/2013  16:29:00       50.044       37.255       49.345       98.744       78.369       60.181     9750.455     6141.705     3621.767        1.292        0.976       62.389       58.597        0.882      345.920       23.794      865.492
04/26/2013  16:30:00       70.914      130.252      117.234       79.649       62.709       52.195     6344.025     3932.383     2724.310        2.437        0.650      148.305       46.077        0.097      345.895       23.751      865.498
04/26/2013  16:31:00       88.720       68.833       82.086       88.080       78.630       69.191     7758.022     6182.668     4787.441        1.903        0.936      112.291       50.898        0.205      345.831       23.641      865.520
04/26/2013  16:32:00      109.894       48.155        0.795       71.243       68.080       36.024     5075.583     4634.870     1297.746        1.270        0.550      119.982       43.760        0.133      345.774       23.544      865.537
04/26/2013  16:33:00       51.362      -43.614       -6.399       32.418       28.076       32.285     1050.898      788.243     1042.316        0.373        0.144       67.381       14.282        0.045      345.734       23.476      865.521
04/26/2013  16:34:00      -44.023      -53.171       11.992       60.035       35.642       27.602     3604.177     1270.368      761.850        0.527        0.282       69.031       20.321        0.087      345.896       23.754      865.495
04/26/2013  16:35:00      -23.305       -1.270       27.486       74.450       50.781       27.655     5542.869     2578.718      764.817        0.509        0.444       23.340       38.241        2.685      346.007       23.946      865.489
04/26/2013  16:36:00      -34.543       81.314       -1.273       27.999       38.951       30.164      783.961     1517.153      909.890        0.551        0.161       88.347       26.685        0.091      346.105       24.113      865.499
04/26/2013  16:37:00      -37.688      156.880      -19.956       44.971       73.930       23.692     2022.425     5465.582      561.295        1.724        0.402      161.344       24.861        0.024      345.961       23.864      865.506
04/26/2013  16:38:00      -58.621      151.720      -25.510       40.545       41.667       22.237     1643.934     1736.130      494.464        1.549        0.194      162.651       13.858        0.007      345.897       23.756      865.496
04/26/2013  16:39:00     -106.283       76.828      -18.685       52.666       45.269       30.429     2773.746     2049.291      925.950        1.165        0.287      131.143       31.764        0.059      346.210       24.292      865.485
04/26/2013  16:40:00     -166.163      143.514      -40.885       49.003       53.992       33.204     2401.326     2915.111     1102.496        2.815        0.321      219.560       27.198        0.015      346.017       23.959      865.486
04/26/2013  16:41:00     -123.457      153.140      -36.614       53.120       56.167       32.701     2821.710     3154.728     1069.357        2.354        0.352      196.707       30.692        0.024      345.918       23.790      865.486
04/26/2013  16:42:00     -125.511      -21.358      -28.142       76.212       39.311       22.921     5808.218     1545.377      525.370        1.244        0.394      127.316       21.183        0.028      345.867       23.703      865.473
04/26/2013  16:43:00      -46.442        1.688       12.776       49.273       54.084       26.481     2427.787     2925.093      701.238        0.419        0.303       46.473       15.130        0.106      346.378       24.582      865.450
04/26/2013  16:44:00     -143.033      115.866      -22.733       88.287       65.520       44.653     7794.650     4292.890     1993.868        2.424        0.704      184.074       49.408        0.072      346.151       24.190      865.456
04/26/2013  16:45:00     -226.221      -40.908      -16.436       72.664       67.445       33.909     5280.050     4548.817     1149.848        3.205        0.549      229.891       33.873        0.022      345.925       23.801      865.432
04/26/2013  16:46:00     -231.081      -52.571       -7.900       93.708       61.020       42.032     8781.225     3723.444     1766.672        3.525        0.714      236.986       47.682        0.040      346.123       24.139      865.420
04/26/2013  16:47:00     -220.118      -27.852      -16.305       76.207       81.373       42.370     5807.463     6621.535     1795.240        3.186        0.711      221.874       37.710        0.029      346.393       24.606      865.420
04/26/2013  16:48:00     -237.451      -74.557      -27.067       64.008       70.513       33.223     4096.968     4972.119     1103.770        3.642        0.509      248.880       23.407        0.009      346.158       24.201      865.411
04/26/2013  16:49:00     -156.851      -74.171       -6.917       69.557       55.801       30.454     4838.112     3113.756      927.469        1.951        0.444      173.504       22.557        0.017      346.258       24.375      865.405
04/26/2013  16:50:00     -170.377      -22.488      -13.853      115.777       77.311       40.108    13404.325     5976.949     1608.663        2.535        1.049      171.855       45.388        0.070      346.273       24.400      865.405
04/26/2013  16:51:00     -229.593        0.426      -22.671       70.200       59.440       36.112     4928.045     3533.065     1304.070        3.149        0.488      229.594       37.237        0.026      346.189       24.254      865.397
04/26/2013  16:52:00     -280.297      -52.186      -33.485       70.660       64.981       38.569     4992.875     4222.585     1487.548        4.656        0.535      285.114       37.734        0.018      346.178       24.235      865.383
04/26/2013  16:53:00     -210.581      -73.203      -10.984      104.060       55.335       35.005    10828.397     3062.001     1225.341        3.247        0.756      222.942       36.412        0.027      346.254       24.366      865.372
04/26/2013  16:54:00     -142.258      -20.455       10.967      127.804       73.125       45.636    16333.753     5347.296     2082.637        2.227        1.188      143.721       54.373        0.143      346.230       24.327      865.361
04/26/2013  16:55:00      -84.496       -4.143        0.390       97.787       54.894       41.935     9562.261     3013.389     1758.545        1.074        0.717       84.598       41.907        0.245      346.333       24.504      865.362
04/26/2013  16:56:00      -73.739       34.413       19.046       92.678       43.661       44.414     8589.263     1906.317     1972.598        0.972        0.623       81.374       48.705        0.358      346.536       24.854      865.379
04/26/2013  16:57:00     -119.075       -7.760        1.140       87.424       51.625       41.788     7642.939     2665.147     1746.218        1.314        0.603      119.327       38.155        0.102      346.663       25.072      865.377
04/26/2013  16:58:00     -119.020      -64.609        4.590       81.457       62.474       42.751     6635.197     3902.998     1827.682        1.536        0.618      135.426       40.684        0.090      346.315       24.472      865.358
04/26/2013  16:59:00      -38.110        1.781        9.882       91.563       65.789       35.498     8383.772     4328.227     1260.079        0.776        0.699       38.152       38.654        1.026      346.150       24.190      865.362
04/26/2013  17:00:00      -38.699      131.170       -1.352       46.951       47.947       37.999     2204.407     2298.958     1443.914        1.232        0.297      136.760       33.896        0.061      346.217       24.305      865.365
04/26/2013  17:01:00      -31.291      262.172      -36.645       56.889       76.329       34.150     3236.413     5826.130     1166.229        4.064        0.511      264.032       22.018        0.007      346.276       24.403      865.370
04/26/2013  17:02:00       92.986      196.902      -25.292       70.040       96.397       52.756     4905.639     9292.429     2783.181        3.252        0.849      217.754       52.541        0.058      346.145       24.178      865.369
04/26/2013  17:03:00       25.042      226.402      -14.191       66.035      121.890       68.915     4360.573    14857.132     4749.248        3.802        1.198      227.783       67.003        0.087      346.191       24.258      865.357
04/26/2013  17:04:00     -117.449       77.513      -18.108      128.393       97.664       60.388    16484.795     9538.170     3646.733        2.489        1.483      140.722       58.102        0.170      346.367       24.561      865.348
04/26/2013  17:05:00       77.277       62.227        7.316      101.630       58.410       51.381    10328.750     3411.676     2640.024        1.314        0.819       99.216       33.910        0.117      346.353       24.539      865.377
04/26/2013  17:06:00       35.485       37.917       13.288       60.238       63.064       35.024     3628.620     3977.074     1226.704        0.585        0.442       51.931       32.542        0.393      346.430       24.671      865.386
04/26/2013  17:07:00       14.432      128.827      -24.535       41.824       52.406       29.365     1749.266     2746.343      862.292        1.138        0.268      129.633       23.278        0.032      346.352       24.538      865.384
04/26/2013  17:08:00       69.952       70.809        1.121       71.720       64.005       48.968     5143.740     4096.655     2397.830        1.077        0.582       99.535       37.099        0.139      346.277       24.409      865.371
04/26/2013  17:09:00       12.326       92.151      -18.673       51.325       75.807       30.957     2634.292     5746.640      958.347        0.916        0.467       92.971       24.320        0.068      346.221       24.311      865.375
04/26/2013  17:10:00       46.645       60.791       -1.603       32.773       41.861       26.270     1074.037     1752.307      690.121        0.469        0.176       76.625       22.286        0.085      346.137       24.168      865.360
04/26/2013  17:11:00       58.973       80.367       -0.486       38.991       36.162       35.755     1520.289     1307.694     1278.431        0.702        0.205       99.682       26.404        0.070      346.079       24.068      865.350
04/26/2013  17:12:00       70.348       41.388        5.959       22.574       23.454       22.330      509.563      550.068      498.644        0.413        0.078       81.619        3.568        0.002      345.902       23.764      865.356
04/26/2013  17:13:00       22.921       43.427        6.100       21.474       39.312       20.574      461.112     1545.424      423.273        0.244        0.121       49.105       15.230        0.096      345.815       23.616      865.358
04/26/2013  17:14:00        3.180       73.478      -13.072       13.933       23.143       17.617      194.142      535.603      310.362        0.331        0.052       73.547       12.552        0.029      346.225       24.318      865.366
04/26/2013  17:15:00       22.715       56.201       10.269       28.000       35.420       27.198      784.012     1254.558      739.729        0.328        0.139       60.618       24.673        0.166      346.150       24.191      865.358
04/26/2013  17:16:00       31.773       37.468       -7.599       29.883       33.317       22.243      892.965     1110.020      494.743        0.248        0.125       49.126       13.831        0.079      345.862       23.695      865.358
04/26/2013  17:17:00       14.594       -9.994       29.940       32.851       39.802       25.027     1079.158     1584.226      626.345        0.225        0.164       17.688        7.174        0.165      345.708       23.432      865.348
04/26/2013  17:18:00       39.998      -25.684       32.512       41.315       46.424       32.397     1706.970     2155.156     1049.559        0.411        0.246       47.534       30.571        0.414      346.035       23.993      865.345
04/26/2013  17:19:00       53.362       44.505       58.162       59.690       67.404       49.547     3562.863     4543.290     2454.945        0.938        0.528       69.486       45.665        0.432      345.475       23.032      865.333
04/26/2013  17:20:00      156.643       53.361       40.888       91.224       81.284       56.525     8321.823     6607.065     3195.035        2.359        0.906      165.483       29.871        0.033      345.802       23.589      865.333
04/26/2013  17:21:00      114.934       44.677       40.738       65.527       92.390       48.489     4293.826     8535.914     2351.189        1.602        0.759      123.312       48.240        0.153      345.939       23.828      865.323
04/26/2013  17:22:00       95.372       86.039      132.267      101.792       84.992       58.015    10361.644     7223.625     3365.766        2.747        1.048      128.447       52.577        0.168      345.827       23.636      865.295
04/26/2013  17:23:00       62.563      100.471      117.368       85.395       60.074       49.421     7292.266     3608.857     2442.458        2.056        0.667      118.358       33.034        0.078      345.722       23.456      865.309
04/26/2013  17:24:00        4.513       37.425       61.647       54.579       64.416       54.623     2978.845     4149.416     2983.670        0.766        0.506       37.697       50.672        1.807      345.754       23.509      865.285
04/26/2013  17:25:00       45.386       22.793       55.753       62.996       47.756       42.270     3968.536     2280.632     1786.756        0.686        0.402       50.787       32.408        0.407      345.532       23.132      865.290
04/26/2013  17:26:00        8.050       16.822       21.080       59.706       33.407       28.998     3564.761     1116.048      840.913        0.316        0.276       18.649       20.615        1.222      345.777       23.551      865.295
04/26/2013  17:27:00       47.102       57.995       16.733       63.300       43.793       36.231     4006.942     1917.795     1312.688        0.655        0.362       74.713       22.138        0.088      345.800       23.588      865.293
04/26/2013  17:28:00      184.428       81.723       39.567      136.928       85.148       62.856    18749.231     7250.127     3950.882        3.610        1.498      201.723       43.782        0.047      346.357       24.545      865.286
04/26/2013  17:29:00      185.492       91.971        3.725       83.787       54.870       54.178     7020.268     3010.691     2935.306        2.792        0.648      207.041        8.302        0.002      346.305       24.455      865.302
04/26/2013  17:30:00      151.513       98.055       12.031      117.478       84.728       49.515    13801.070     7178.908     2451.710        2.807        1.172      180.474       15.843        0.008      346.300       24.445      865.301
04/26/2013  17:31:00      158.134      120.475       13.112       75.310       59.927       47.910     5671.609     3591.243     2295.368        2.562        0.578      198.798       28.241        0.020      346.122       24.139      865.303
04/26/2013  17:32:00      241.193      132.348       21.538      111.574       73.648       58.106    12448.868     5424.038     3376.291        4.870        1.062      275.119       39.061        0.020      346.155       24.195      865.297
04/26/2013  17:33:00      279.572      130.237       17.155      127.802      112.117       74.518    16333.458    12570.282     5552.875        6.493        1.723      308.419       64.786        0.044      346.100       24.102      865.272
04/26/2013  17:34:00       60.643      111.097      109.435       97.564       80.774       51.377     9518.803     6524.468     2639.564        2.334        0.934      126.571       49.214        0.151      345.723       23.456      865.282
04/26/2013  17:35:00      105.619       76.531        6.781       52.448       34.873       31.628     2750.742     1216.129     1000.317        1.101        0.248      130.431       27.601        0.045      346.090       24.086      865.277
04/26/2013  17:36:00       26.793       92.315      -13.131       65.812       44.317       26.671     4331.160     1963.994      711.363        0.821        0.350       96.125       32.087        0.111      346.155       24.197      865.287
04/26/2013  17:37:00      -15.694      109.446       -8.551       55.072       50.031       29.936     3032.906     2503.074      896.176        0.936        0.322      110.565       37.654        0.116      346.226       24.319      865.310
04/26/2013  17:38:00       -0.510       91.380        3.054       54.908       58.187       34.444     3014.896     3385.670     1186.392        0.797        0.379       91.382       34.206        0.140      346.297       24.444      865.307
04/26/2013  17:39:00      -60.565       32.586       -5.279       53.861       73.101       40.020     2900.966     5343.730     1601.567        0.730        0.492       68.774       26.341        0.147      346.845       25.384      865.309
04/26/2013  17:40:00      -78.011       -5.412       28.311       93.090       74.321       37.312     8665.721     5523.566     1392.205        1.125        0.779       78.198       42.142        0.290      346.561       24.895      865.313
04/26/2013  17:41:00     -118.852       22.172       -6.738       79.642       91.878       50.660     6342.910     8441.610     2566.469        1.600        0.868      120.903       33.225        0.076      346.596       24.956      865.319
04/26/2013  17:42:00      -90.081      -48.355        2.616       92.029       67.832       52.331     8469.405     4601.127     2738.584        1.313        0.790      102.239       47.284        0.214      346.595       24.954      865.314
04/26/2013  17:43:00     -100.313      -26.357        3.208      110.202       77.121       54.254    12144.371     5947.596     2943.471        1.590        1.052      103.718       47.928        0.214      346.735       25.195      865.311
04/26/2013  17:44:00      -82.980       21.669       20.624       72.409       72.549       52.915     5242.991     5263.403     2800.008        1.054        0.665       85.763       48.551        0.320      346.685       25.110      865.314
04/26/2013  17:45:00     -190.511      -47.160      -15.041       53.503       66.542       45.087     2862.531     4427.896     2032.826        2.403        0.466      196.262       30.046        0.023      346.557       24.888      865.321
04/26/2013  17:46:00     -252.626      -84.103      -23.038       67.115       70.272       40.809     4504.475     4938.128     1665.374        4.126        0.555      266.258       28.037        0.011      346.294       24.433      865.322
04/26/2013  17:47:00     -173.028      -70.791        5.592      128.548       90.550       42.466    16524.499     8199.311     1803.323        3.075        1.326      186.950       59.948        0.103      346.372       24.569      865.297
04/26/2013  17:48:00     -154.222      -36.384       15.887      115.169       77.896       47.980    13263.847     6067.760     2302.034        2.349        1.082      158.455       52.600        0.110      346.276       24.405      865.300
04/26/2013  17:49:00     -101.276      -15.696       22.850      107.265      109.927       48.034    11505.803    12083.990     2307.251        1.846        1.295      102.485       53.331        0.271      346.227       24.321      865.321
04/26/2013  17:50:00      -33.155       34.352        4.640       28.765       60.660       22.228      827.445     3679.659      494.062        0.365        0.250       47.742        9.096        0.036      346.119       24.138      865.311
04/26/2013  17:51:00      -46.700       -0.697       11.063       44.047       25.089       21.619     1940.138      629.469      467.390        0.267        0.152       46.705       22.715        0.237      346.486       24.767      865.295
04/26/2013  17:52:00       -2.597      -10.755       22.274       29.308       33.401       23.435      858.951     1115.605      549.198        0.157        0.126       11.064       18.399        2.766      346.278       24.411      865.269
04/26/2013  17:53:00      -68.722        5.747       -1.310       49.367       55.561       31.067     2437.100     3087.067      965.146        0.562        0.324       68.962       26.241        0.145      346.367       24.562      865.259
04/26/2013  17:54:00     -138.690       23.407       -4.514      100.242       36.311       31.976    10048.444     1318.468     1022.444        1.609        0.619      140.651       45.505        0.105      346.339       24.514      865.254
04/26/2013  17:55:00     -224.718       36.808      -17.815       62.779       49.647       35.686     3941.182     2464.818     1273.503        2.992        0.384      227.713       27.221        0.014      346.307       24.458      865.236
04/26/2013  17:56:00     -201.621        0.464      -11.952       88.696       61.327       45.190     7866.916     3761.047     2042.099        2.723        0.684      201.622       47.072        0.055      346.453       24.708      865.242
04/26/2013  17:57:00     -293.811     -105.888      -17.056      138.075      115.991       61.298    19064.726    13453.815     3757.454        6.705        1.814      312.310       66.469        0.045      346.429       24.666      865.227
04/26/2013  17:58:00      -77.888      134.316      -25.165      127.179       97.217       51.779    16174.567     9451.201     2681.038        2.652        1.415      155.266       47.982        0.096      346.370       24.567      865.243
04/26/2013  17:59:00     -228.146      -50.587      -27.659       87.959      132.411       60.859     7736.834    17532.688     3703.840        4.217        1.449      233.687       40.371        0.030      346.528       24.836      865.278
04/26/2013  18:00:00     -210.139       93.146      -25.520      146.166       99.220       63.692    21364.388     9844.604     4056.684        4.437        1.763      229.858       72.108        0.098      346.336       24.506      865.280
04/26/2013  18:01:00     -230.867       -6.742      -16.263      125.857      103.519       54.621    15839.873    10716.209     2983.452        4.157        1.477      230.966       36.101        0.024      346.378       24.580      865.306
04/26/2013  18:02:00     -221.212      -60.013        3.562      129.648       80.867       45.270    16808.559     6539.499     2049.362        3.897        1.270      229.208       46.754        0.042      346.290       24.427      865.315
04/26/2013  18:03:00     -171.710       -3.865      -30.626      102.407      118.688       39.929    10487.173    14086.918     1594.320        2.830        1.308      171.753       39.416        0.053      346.381       24.586      865.334
04/26/2013  18:04:00     -187.831       51.148      -25.395       98.201       59.113       49.346     9643.489     3494.345     2435.067        2.705        0.779      194.671       50.440        0.067      346.381       24.586      865.335
04/26/2013  18:05:00     -144.857      -19.836       15.891      123.917      104.406       60.787    15355.518    10900.603     3695.020        2.578        1.498      146.209       69.427        0.225      346.340       24.515      865.336
04/26/2013  18:06:00     -124.304      160.422      -22.517       61.007       77.643       46.124     3721.834     6028.481     2127.421        2.678        0.594      202.945       44.605        0.048      346.205       24.284      865.346
04/26/2013  18:07:00     -111.418      208.346      -39.502       89.952       55.299       41.369     8091.304     3057.954     1711.417        3.512        0.643      236.267       36.966        0.024      346.160       24.202      865.351
04/26/2013  18:08:00      -85.965      156.600      -19.821       62.924       64.298       36.478     3959.481     4134.286     1330.669        2.086        0.471      178.644       30.566        0.029      346.243       24.349      865.358
04/26/2013  18:09:00      -88.961       64.625      -23.622       50.580       66.560       29.705     2558.357     4430.213      882.369        1.026        0.394      109.957       19.081        0.030      346.335       24.507      865.357
04/26/2013  18:10:00      -72.418       61.897       -6.369       61.686       56.078       35.907     3805.151     3144.696     1289.288        0.868        0.412       95.266       40.850        0.184      346.421       24.655      865.360
04/26/2013  18:11:00      -93.590      150.462      -18.629       59.900       76.229       39.562     3587.959     5810.858     1565.166        2.135        0.548      177.195       36.832        0.043      346.359       24.548      865.372
04/26/2013  18:12:00     -113.980      171.513      -21.321       68.220       75.832       39.560     4653.921     5750.520     1565.011        2.741        0.598      205.933       38.861        0.036      346.294       24.433      865.385
04/26/2013  18:13:00      -45.966       90.597       -7.440       63.555       45.513       28.645     4039.280     2071.403      820.531        0.865        0.347      101.591       31.673        0.097      346.113       24.127      865.395
04/26/2013  18:14:00      -65.734       74.062      -13.165       42.331       43.971       28.133     1791.953     1933.482      791.490        0.725        0.226       99.026       19.742        0.040      346.261       24.382      865.398
04/26/2013  18:15:00      -92.264      -11.247        6.730       61.871       66.948       36.902     3828.010     4481.976     1361.776        0.918        0.484       92.947       22.137        0.057      346.484       24.763      865.393
04/26/2013  18:16:00      -50.253       42.288       16.731       92.016       53.358       41.084     8466.985     2847.060     1687.904        0.880        0.650       65.679       44.669        0.463      346.207       24.289      865.385
04/26/2013  18:17:00        2.665       57.449       -0.971       45.433       34.116       23.834     2064.137     1163.931      568.045        0.355        0.190       57.511       19.967        0.121      346.115       24.130      865.379
04/26/2013  18:18:00      -11.631      104.466        7.079       65.440       60.295       38.766     4282.374     3635.521     1502.824        1.026        0.471      105.112       35.516        0.114      346.139       24.171      865.379
04/26/2013  18:19:00      -18.020       91.327       -3.619       51.998       57.910       31.832     2703.820     3353.524     1013.279        0.787        0.354       93.088       28.582        0.094      346.165       24.215      865.383
04/26/2013  18:20:00      -80.497       35.053        1.823       67.252       55.499       28.044     4522.879     3080.146      786.442        0.805        0.419       87.798       15.405        0.031      346.387       24.596      865.374
04/26/2013  18:21:00      -89.596      158.456      -22.358       65.190       59.805       45.840     4249.751     3576.667     2101.312        2.178        0.496      182.032       32.869        0.033      346.249       24.358      865.360
04/26/2013  18:22:00      -50.782       85.586        0.912       44.104       62.458       35.824     1945.200     3900.978     1283.345        0.852        0.356       99.518       24.276        0.060      346.329       24.497      865.349
04/26/2013  18:23:00     -106.134        7.699       -7.593       51.134       39.074       24.728     2614.681     1526.772      611.490        0.807        0.238      106.412       24.073        0.051      346.528       24.840      865.361
04/26/2013  18:24:00      -75.479      145.071      -26.615       51.591       58.065       27.081     2661.678     3371.571      733.360        1.711        0.338      163.532       26.431        0.026      346.371       24.569      865.364
04/26/2013  18:25:00     -134.684      290.459      -46.806       66.498       60.132       34.111     4422.047     3615.890     1163.573        5.695        0.460      320.165       19.039        0.004      346.226       24.318      865.361
04/26/2013  18:26:00     -152.609      295.182      -45.914       92.248      104.398       58.407     8509.772    10898.957     3411.348        6.767        1.141      332.299       54.802        0.027      346.159       24.201      865.353
04/26/2013  18:27:00      -94.335      195.606      -34.310       78.301       73.221       28.810     6131.104     5361.358      830.017        3.033        0.616      217.166       31.161        0.021      346.229       24.322      865.363
04/26/2013  18:28:00     -105.226      331.013      -31.298       80.659      126.185       56.455     6505.906    15922.717     3187.167        7.361        1.281      347.336       51.014        0.022      346.236       24.333      865.360
04/26/2013  18:29:00     -209.705      147.791      -37.439       97.401       71.575       47.960     9486.966     5122.958     2300.155        4.206        0.846      256.551       58.579        0.052      346.258       24.374      865.388
04/26/2013  18:30:00     -113.740      131.647      -24.702       60.739       96.221       43.289     3689.245     9258.432     1873.936        2.285        0.741      173.976       48.378        0.077      346.286       24.423      865.386
04/26/2013  18:31:00     -188.306      151.275      -34.523      113.228      122.822       59.548    12820.684    15085.313     3545.913        4.549        1.573      241.544       60.639        0.063      346.304       24.452      865.386
04/26/2013  18:32:00     -181.194      184.327      -40.994      109.202      102.778       65.300    11925.069    10563.284     4264.124        4.762        1.338      258.472       75.748        0.086      346.190       24.255      865.396
04/26/2013  18:33:00     -133.828      110.611      -28.607       55.997       93.041       36.548     3135.626     8656.651     1335.742        2.204        0.656      173.622       26.264        0.023      346.292       24.434      865.397
04/26/2013  18:34:00     -133.473      146.538      -20.741       55.739       60.260       45.534     3106.862     3631.305     2073.357        2.426        0.441      198.213       34.830        0.031      346.258       24.373      865.404
04/26/2013  18:35:00      -82.277      106.616        2.633       84.267      129.437       59.286     7100.918    16753.991     3514.793        2.275        1.368      134.672       41.845        0.097      346.296       24.441      865.410
04/26/2013  18:36:00      -86.539      123.840       -7.766       63.282       99.343       40.115     4004.553     9869.058     1609.217        1.918        0.774      151.081       36.346        0.058      346.181       24.241      865.421
04/26/2013  18:37:00     -100.881      106.820        0.143       69.450       77.857       45.570     4823.278     6061.763     2076.601        1.727        0.648      146.927       42.512        0.084      346.278       24.408      865.423
04/26/2013  18:38:00      -31.614      193.103      -18.587       34.060       78.256       27.706     1160.102     6124.000      767.613        2.334        0.403      195.674       34.490        0.031      346.174       24.229      865.428
04/26/2013  18:39:00      -17.847      283.930      -33.236       62.353       88.757       39.642     3887.858     7877.814     1571.484        4.769        0.667      284.490       41.077        0.021      346.092       24.087      865.434
04/26/2013  18:40:00      -62.579      162.271      -14.451       76.762       95.156       40.630     5892.420     9054.661     1650.771        2.352        0.830      173.920       42.008        0.058      346.107       24.115      865.441
04/26/2013  18:41:00      -30.323      176.028      -24.924       50.640       65.584       31.600     2564.376     4301.200      998.574        2.019        0.393      178.620       33.817        0.036      346.037       23.996      865.441
04/26/2013  18:42:00      -15.697      216.249      -33.610       51.485       58.510       32.467     2650.656     3423.368     1054.084        2.763        0.356      216.818       23.781        0.012      346.037       23.994      865.436
04/26/2013  18:43:00      -38.541      198.552      -30.528       59.313       53.840       31.094     3518.027     2898.798      966.859        2.461        0.369      202.258       29.210        0.021      346.047       24.011      865.438
04/26/2013  18:44:00      -42.998      235.019      -34.303       61.286       65.948       29.513     3756.017     4349.146      871.042        3.362        0.449      238.919       28.062        0.014      346.053       24.020      865.442
04/26/2013  18:45:00      -45.707      157.608      -14.110       49.616       75.212       30.739     2461.747     5656.890      944.881        1.809        0.453      164.102       31.109        0.036      346.061       24.036      865.455
04/26/2013  18:46:00      -68.308      120.850      -16.759       32.620       41.643       25.292     1064.049     1734.153      639.695        1.149        0.172      138.819       10.299        0.006      346.129       24.155      865.454
04/26/2013  18:47:00     -113.164       19.168      -10.304       50.873       33.129       25.009     2588.034     1097.507      625.466        0.879        0.216      114.775       21.581        0.035      346.276       24.407      865.454
04/26/2013  18:48:00     -147.349        5.333      -11.866       65.740       62.381       42.909     4321.776     3891.406     1841.192        1.597        0.503      147.445       44.552        0.091      346.262       24.381      865.444
04/26/2013  18:49:00     -163.885        8.351      -16.567       36.947       60.071       30.811     1365.053     3608.514      949.301        1.656        0.296      164.098       18.934        0.013      346.281       24.415      865.446
04/26/2013  18:50:00     -122.759       20.865      -14.642       52.679       43.144       38.016     2775.127     1861.379     1445.204        1.090        0.304      124.519       28.882        0.054      346.196       24.269      865.434
04/26/2013  18:51:00     -170.135      -27.056      -15.746       53.121       68.170       36.137     2821.877     4647.204     1305.896        1.935        0.439      172.273       29.855        0.030      346.127       24.149      865.428
04/26/2013  18:52:00     -109.876      -34.568      -16.434       62.795       36.070       32.277     3943.258     1301.062     1041.832        0.991        0.314      115.185       24.273        0.044      346.152       24.191      865.416
04/26/2013  18:53:00     -125.704        8.168       -6.966       50.809       37.345       34.213     2581.550     1394.617     1170.527        1.053        0.257      125.969       26.018        0.043      346.168       24.221      865.420
04/26/2013  18:54:00     -139.984       96.517      -16.057       95.095       43.256       45.517     9043.144     1871.086     2071.809        2.107        0.649      170.033       42.419        0.062      346.096       24.095      865.426
04/26/2013  18:55:00      -96.211      130.510      -23.734       61.995       39.476       31.763     3843.348     1558.391     1008.869        1.663        0.321      162.140       29.741        0.034      346.079       24.066      865.433
04/26/2013  18:56:00     -148.937      153.063      -45.693       57.174       49.916       32.188     3268.917     2491.575     1036.056        2.725        0.340      213.566       26.996        0.016      346.075       24.058      865.430
04/26/2013  18:57:00      -90.277       72.736      -20.152       57.943       53.395       31.834     3357.440     2851.014     1013.400        1.053        0.361      115.933       33.581        0.084      346.159       24.205      865.427
04/26/2013  18:58:00      -36.366       62.990        1.058       46.180       50.603       35.624     2132.569     2560.685     1269.088        0.563        0.298       72.734       34.066        0.219      346.051       24.021      865.428
04/26/2013  18:59:00      -16.427      184.350       -4.387       49.305       87.762       35.959     2431.028     7702.133     1293.040        2.285        0.571      185.081       40.767        0.049      345.999       23.928      865.424
04/26/2013  19:00:00      -91.442      155.399      -23.396       59.143       73.153       32.872     3497.930     5351.314     1080.585        2.149        0.496      180.306       25.397        0.020      346.099       24.101      865.433
04/26/2013  19:01:00      -45.077      134.083      -19.037       31.684       50.616       20.741     1003.903     2561.997      430.190        1.218        0.200      141.457       23.884        0.029      346.024       23.974      865.449
04/26/2013  19:02:00      -18.277       84.023      -12.379       33.139       59.691       19.534     1098.194     3563.030      381.594        0.629        0.252       85.988       27.372        0.101      346.006       23.943      865.447
04/26/2013  19:03:00      -21.770      199.879      -25.055       29.679       49.266       17.181      880.836     2427.090      295.197        2.233        0.180      201.061       15.298        0.006      346.012       23.950      865.458
04/26/2013  19:04:00      -75.125      104.471      -10.463       41.849       47.545       27.923     1751.340     2260.546      779.708        1.073        0.240      128.678       27.511        0.046      345.987       23.911      865.464
04/26/2013  19:05:00      -22.962       96.253       -9.715       30.965       50.631       20.974      958.803     2563.487      439.906        0.692        0.198       98.954       19.255        0.038      345.996       23.926      865.475
04/26/2013  19:06:00      -69.713      146.498      -18.255       52.159       53.900       28.636     2720.556     2905.170      820.029        1.655        0.322      162.239       30.835        0.036      345.966       23.873      865.466
04/26/2013  19:07:00      -53.331      103.201       -4.072       36.560       50.557       27.463     1336.652     2556.034      754.193        0.908        0.232      116.166       28.790        0.061      345.918       23.792      865.473
04/26/2013  19:08:00       10.064       76.780       -5.615       32.046       28.071       19.237     1026.933      787.992      370.078        0.411        0.109       77.437       16.889        0.048      345.922       23.800      865.465
04/26/2013  19:09:00       32.929       48.194        4.430       41.169       29.509       22.463     1694.860      870.776      504.579        0.325        0.154       58.369       14.582        0.062      345.860       23.694      865.474
04/26/2013  19:10:00       27.905       64.378        7.482       31.388       43.266       26.677      985.212     1871.969      711.671        0.427        0.178       70.165       24.272        0.120      345.843       23.665      865.472
04/26/2013  19:11:00      -10.804      143.322      -24.351       27.206       25.312       14.821      740.153      640.699      219.671        1.143        0.080      143.728        9.350        0.004      345.883       23.733      865.487
04/26/2013  19:12:00      -10.979      123.439       -1.017       26.702       50.164       32.831      712.999     2516.399     1077.845        0.983        0.215      123.927       29.061        0.055      345.837       23.653      865.494
04/26/2013  19:13:00      -76.368      225.022      -33.167       54.993       37.020       27.828     3024.180     1370.454      774.376        3.137        0.258      237.628       18.197        0.006      345.908       23.772      865.511
04/26/2013  19:14:00       18.001      256.661      -39.628       47.672       60.021       31.736     2272.592     3602.516     1007.182        3.732        0.344      257.291       27.648        0.012      345.773       23.539      865.532
04/26/2013  19:15:00       23.075      294.576      -36.196       65.140      100.089       51.772     4243.157    10017.729     2680.331        5.278        0.847      295.478       57.556        0.038      345.705       23.424      865.533
04/26/2013  19:16:00      -20.651      208.073      -25.051       52.465       60.235       33.411     2752.611     3628.261     1116.328        2.592        0.375      209.095       30.314        0.021      345.664       23.354      865.544
04/26/2013  19:17:00       36.820      120.117       -6.292       53.955       94.500       45.844     2911.158     8930.232     2101.696        1.488        0.697      125.634       50.042        0.159      345.642       23.318      865.549
04/26/2013  19:18:00        4.341      186.991      -25.868       54.632       68.164       34.076     2984.645     4646.356     1161.143        2.222        0.440      187.041       38.204        0.042      345.618       23.273      865.567
04/26/2013  19:19:00      -13.319      216.089      -16.948       64.689       91.009       40.735     4184.658     8282.576     1659.320        3.064        0.706      216.499       42.329        0.038      345.624       23.283      865.563
04/26/2013  19:20:00      -16.162      127.801      -16.137       44.473       71.409       34.121     1977.817     5099.291     1164.214        1.255        0.412      128.819       39.012        0.092      345.572       23.198      865.571
04/26/2013  19:21:00      -10.413      246.984      -32.767       58.589       95.277       35.642     3432.699     9077.756     1270.374        3.798        0.689      247.204       35.760        0.021      345.580       23.208      865.575
04/26/2013  19:22:00       -1.843      264.581      -38.531       56.965       48.641       24.929     3244.973     2365.927      621.435        3.886        0.312      264.587       18.970        0.005      345.587       23.219      865.576
04/26/2013  19:23:00        6.387      212.970      -17.423       78.377       89.950       43.712     6142.893     8090.915     1910.745        3.092        0.807      213.065       48.115        0.051      345.519       23.104      865.595
04/26/2013  19:24:00       14.611      262.927      -28.887       63.203      109.461       51.332     3994.678    11981.720     2634.998        4.439        0.931      263.333       55.847        0.045      345.480       23.036      865.600
04/26/2013  19:25:00       27.459      229.491      -26.483       62.471       80.140       45.631     3902.673     6422.352     2082.222        3.326        0.620      231.128       41.823        0.033      345.458       22.999      865.609
04/26/2013  19:26:00       22.937      158.358      -14.568       49.928       68.322       43.783     2492.827     4667.934     1916.916        1.744        0.454      160.010       44.802        0.078      345.389       22.883      865.618
04/26/2013  19:27:00       13.608      216.724      -22.854       70.007       90.772       53.525     4900.919     8239.511     2864.873        3.184        0.800      217.151       47.551        0.048      345.380       22.866      865.627
04/26/2013  19:28:00       22.112      235.767      -25.935       71.861       64.479       52.062     5164.038     4157.515     2710.446        3.439        0.602      236.802       41.494        0.031      345.378       22.861      865.627
04/26/2013  19:29:00       22.034      126.997        2.513       62.496       92.327       53.035     3905.715     8524.217     2812.730        1.593        0.762      128.894       56.611        0.193      345.328       22.779      865.639
04/26/2013  19:30:00       12.659      256.794      -30.969       60.554       87.563       37.581     3666.747     7667.292     1412.312        3.990        0.637      257.106       41.935        0.027      345.370       22.847      865.645
04/26/2013  19:31:00       24.799      129.555       -2.739       58.383       54.127       44.142     3408.570     2929.752     1948.504        1.285        0.414      131.907       34.171        0.067      345.279       22.694      865.655
04/26/2013  19:32:00       60.522      204.246      -19.866       69.544       98.859       58.940     4836.432     9773.078     3473.921        3.193        0.904      213.024       61.200        0.083      345.295       22.718      865.668
04/26/2013  19:33:00       54.484       97.936       36.390       88.670       95.824       58.366     7862.296     9182.176     3406.535        1.716        1.023      112.071       48.307        0.186      345.230       22.612      865.669
04/26/2013  19:34:00       69.111      165.432       -2.985       68.241       92.438       68.525     4656.854     8544.711     4695.686        2.502        0.895      179.287       63.377        0.125      345.231       22.611      865.674
04/26/2013  19:35:00       66.945      102.086       10.642       91.855       75.607       63.653     8437.346     5716.404     4051.729        1.661        0.910      122.079       46.630        0.146      345.188       22.538      865.677
04/26/2013  19:36:00       73.310      175.036       -3.676       85.044      105.967       70.084     7232.553    11228.992     4911.828        2.969        1.169      189.769       63.060        0.110      345.177       22.520      865.677
04/26/2013  19:37:00       38.301      118.481        2.209       65.463       80.234       54.453     4285.346     6437.548     2965.083        1.460        0.684      124.518       46.553        0.140      345.148       22.470      865.697
04/26/2013  19:38:00       84.697      150.137        0.838       78.557       71.961       58.830     6171.279     5178.332     3460.943        2.226        0.741      172.379       46.987        0.074      345.156       22.484      865.707
04/26/2013  19:39:00       61.358      185.788       -3.766       79.916      107.384       67.291     6386.610    11531.268     4528.068        3.037        1.122      195.658       63.500        0.105      345.145       22.463      865.715
04/26/2013  19:40:00      103.122      148.505       -4.903       90.875       95.502       61.464     8258.319     9120.661     3777.884        2.693        1.058      180.797       60.204        0.111      345.149       22.470      865.728
04/26/2013  19:41:00       63.825      145.920      -19.440       73.464      107.758       52.088     5396.974    11611.734     2713.123        2.273        0.986      159.268       61.908        0.151      345.112       22.408      865.744
04/26/2013  19:42:00       40.558      264.900      -25.704       61.001      114.377       55.263     3721.067    13082.150     3053.995        4.616        0.993      267.987       62.093        0.054      345.073       22.341      865.761
04/26/2013  19:43:00       55.580      129.519       11.892       62.274       80.686       66.099     3878.097     6510.228     4369.139        1.738        0.738      140.941       55.857        0.157      345.003       22.223      865.775
04/26/2013  19:44:00       37.104      187.002      -18.762       75.598      128.322       56.133     5715.067    16466.545     3150.929        3.101        1.267      190.647       61.652        0.105      344.986       22.191      865.785
04/26/2013  19:45:00       45.402      193.930      -23.166       48.453       70.228       34.276     2347.725     4931.966     1174.873        2.433        0.423      199.174       29.540        0.022      344.971       22.166      865.799
04/26/2013  19:46:00       34.765      202.923      -26.092       52.820       75.798       44.537     2789.988     5745.397     1983.586        2.679        0.526      205.880       45.529        0.049      344.959       22.147      865.809
04/26/2013  19:47:00       30.748      176.691      -20.340       48.909       80.473       30.314     2392.070     6475.845      918.967        2.118        0.489      179.346       40.144        0.050      344.930       22.095      865.819
04/26/2013  19:48:00      -21.669      193.980      -11.223       55.001       81.669       52.766     3025.131     6669.842     2784.224        2.535        0.624      195.186       47.417        0.059      344.935       22.104      865.825
04/26/2013  19:49:00      -13.494      151.251      -12.880       47.671       76.095       37.734     2272.547     5790.468     1423.861        1.635        0.474      151.851       42.616        0.079      344.900       22.044      865.841
04/26/2013  19:50:00      -16.339      196.758      -26.337       34.613       51.427       20.683     1198.031     2644.708      427.803        2.197        0.214      197.436       20.649        0.011      344.949       22.129      865.856
04/26/2013  19:51:00      -53.542      142.707      -17.756       51.899       56.582       23.568     2693.514     3201.513      555.472        1.500        0.323      152.421       21.840        0.021      344.963       22.155      865.868
04/26/2013  19:52:00      -60.213      140.848       -8.764       46.326       53.390       33.890     2146.137     2850.514     1148.542        1.484        0.307      153.179       24.872        0.026      344.897       22.041      865.886
04/26/2013  19:53:00      -70.843      226.180      -31.252       40.922       70.774       32.923     1674.569     5009.016     1083.949        3.246        0.388      237.015       27.344        0.013      344.971       22.166      865.905
04/26/2013  19:54:00      -46.768      210.055      -29.642       44.457       63.981       30.896     1976.400     4093.545      954.581        2.711        0.351      215.199       26.772        0.015      344.984       22.188      865.915
04/26/2013  19:55:00     -104.724      134.178      -21.883       53.831       55.006       30.379     2897.782     3025.689      922.876        1.815        0.342      170.209       26.489        0.024      344.961       22.151      865.930
04/26/2013  19:56:00     -110.703      129.968      -26.390       43.323       78.974       30.291     1876.918     6236.874      917.550        1.944        0.452      170.725       39.267        0.053      344.991       22.202      865.949
04/26/2013  19:57:00     -134.847      129.723      -31.702       40.354       57.832       33.559     1628.435     3344.533     1126.229        2.106        0.305      187.114       34.052        0.033      344.998       22.213      865.954
04/26/2013  19:58:00      -85.049       50.480      -16.222       38.699       30.638       24.087     1497.603      938.673      580.166        0.653        0.151       98.902       20.532        0.043      344.890       22.030      865.972
04/26/2013  19:59:00      -88.331       42.306      -11.846       39.237       57.262       20.931     1539.581     3278.940      438.091        0.749        0.263       97.940       15.430        0.025      344.811       21.895      865.984
04/26/2013  20:00:00      -72.194       34.913      -17.302       49.986       59.392       35.010     2498.561     3527.421     1225.733        0.699        0.363       80.193       35.515        0.196      344.652       21.623      865.993
04/26/2013  20:01:00      -93.664       -2.344      -24.057       43.914       43.043       29.363     1928.458     1852.719      862.169        0.700        0.232       93.693       25.525        0.074      344.603       21.540      865.967
04/26/2013  20:02:00      -57.347       12.180       -5.313       36.623       34.364       25.617     1341.241     1180.873      656.232        0.332        0.159       58.626       11.144        0.036      344.535       21.423      865.980
04/26/2013  20:03:00      -84.159       57.621       -9.177       47.291       77.879       28.982     2236.459     6065.127      839.948        0.981        0.457      101.995       19.579        0.037      344.540       21.432      865.987
04/26/2013  20:04:00     -139.328       95.321      -29.907       64.211       60.492       38.142     4123.039     3659.298     1454.785        1.931        0.462      168.815       39.410        0.055      344.538       21.425      866.014
04/26/2013  20:05:00     -133.580      110.254      -29.250       64.823       70.201       38.751     4202.085     4928.171     1501.662        2.074        0.532      173.204       44.637        0.066      344.510       21.378      866.046
04/26/2013  20:06:00     -151.152      116.185      -29.672       43.381       59.606       32.321     1881.921     3552.847     1044.617        2.185        0.324      190.646       34.576        0.033      344.501       21.364      866.066
04/26/2013  20:07:00      -72.848       99.949       -7.925       47.119       40.335       26.210     2220.197     1626.944      686.952        0.995        0.227      123.679       24.893        0.041      344.412       21.212      866.087
04/26/2013  20:08:00     -149.193      151.082      -36.417       45.769       85.246       35.781     2094.779     7266.860     1280.296        2.852        0.532      212.331       39.185        0.034      344.489       21.342      866.107
04/26/2013  20:09:00     -212.132      146.585      -48.189       61.872       70.243       39.071     3828.197     4934.147     1526.535        3.955        0.514      257.851       32.066        0.015      344.555       21.453      866.135
04/26/2013  20:10:00     -143.392      125.107      -18.788       72.152       67.486       48.873     5205.863     4554.405     2388.605        2.436        0.607      190.297       40.515        0.045      344.564       21.470      866.149
04/26/2013  20:11:00     -131.090      105.389      -24.904       52.064       65.782       41.860     2710.666     4327.327     1752.243        1.885        0.440      168.201       37.424        0.050      344.555       21.454      866.165
04/26/2013  20:12:00     -147.332       89.048      -30.286       42.785       62.636       30.487     1830.594     3923.245      929.464        1.862        0.334      172.152       31.773        0.034      344.576       21.491      866.193
04/26/2013  20:13:00      -85.997       85.051      -19.046       49.390       79.263       28.576     2439.334     6282.663      816.587        1.226        0.477      120.951       26.724        0.049      344.543       21.435      866.216
04/26/2013  20:14:00     -117.896       59.820      -17.639       50.380       50.278       35.766     2538.134     2527.836     1279.215        1.207        0.317      132.204       34.270        0.067      344.537       21.426      866.236
04/26/2013  20:15:00     -157.175       52.801      -27.818       62.961       51.563       27.635     3964.129     2658.718      763.696        1.782        0.369      165.807       25.544        0.024      344.526       21.404      866.261
04/26/2013  20:16:00     -105.853       99.236      -15.367       50.210       45.541       35.503     2521.079     2073.947     1260.472        1.357        0.293      145.095       20.532        0.020      344.365       21.133      866.292
04/26/2013  20:17:00     -129.511       99.237      -17.605       44.922       66.905       43.342     2017.998     4476.322     1878.500        1.765        0.419      163.159       33.550        0.042      344.438       21.255      866.311
04/26/2013  20:18:00     -108.879      156.223      -21.224       52.491       87.054       42.892     2755.295     7578.397     1839.689        2.444        0.609      190.421       41.446        0.047      344.359       21.120      866.322
04/26/2013  20:19:00      -70.872       20.520        8.840       46.400       76.480       35.155     2152.993     5849.235     1235.847        0.738        0.462       73.783       29.372        0.158      344.377       21.153      866.332
04/26/2013  20:20:00      -89.756       55.502       -6.671       48.270       58.227       29.804     2330.032     3390.422      888.278        0.889        0.330      105.530       25.194        0.057      344.343       21.094      866.335
04/26/2013  20:21:00      -83.948       89.163       -1.653       61.274       89.882       41.829     3754.545     8078.691     1749.659        1.429        0.679      122.464       49.746        0.165      344.373       21.143      866.346
04/26/2013  20:22:00     -156.401       69.263      -17.616       70.394       72.592       42.309     4955.377     5269.578     1790.061        2.079        0.601      171.052       30.943        0.033      344.413       21.214      866.349
04/26/2013  20:23:00     -115.534      138.351      -18.814       51.564       62.407       40.413     2658.878     3894.598     1633.171        2.051        0.409      180.247       32.301        0.032      344.351       21.106      866.361
04/26/2013  20:24:00     -106.207       64.644      -19.277       58.793       45.417       29.286     3456.587     2062.664      857.668        1.110        0.319      124.333       24.860        0.040      344.404       21.199      866.377
04/26/2013  20:25:00     -143.970      118.691      -34.442       75.979       72.911       39.608     5772.746     5316.087     1568.772        2.433        0.633      186.588       39.807        0.046      344.351       21.105      866.398
04/26/2013  20:26:00      -90.108      140.296      -13.248       65.880       80.721       49.012     4340.189     6515.849     2402.152        2.062        0.663      166.740       43.839        0.069      344.302       21.024      866.414
04/26/2013  20:27:00     -169.764      175.536      -38.594       83.489       88.764       42.854     6970.470     7879.087     1836.443        3.890        0.834      244.198       44.309        0.033      344.372       21.142      866.429
04/26/2013  20:28:00     -175.877      166.620      -30.408       69.655       78.894       45.356     4851.799     6224.196     2057.138        3.637        0.657      242.271       38.321        0.025      344.352       21.105      866.451
04/26/2013  20:29:00     -196.203      134.856      -38.206       74.872       98.819       41.394     5605.761     9765.123     1713.472        3.761        0.854      238.079       37.158        0.024      344.303       21.023      866.476
04/26/2013  20:30:00     -138.193      162.119      -25.937       61.121       88.508       37.623     3735.725     7833.710     1415.474        2.952        0.649      213.026       28.203        0.018      344.228       20.897      866.490
04/26/2013  20:31:00     -155.938       90.783      -21.177       63.949       45.223       44.783     4089.501     2045.121     2005.508        2.057        0.407      180.439       33.049        0.034      344.271       20.971      866.502
04/26/2013  20:32:00      -71.642      144.085      -19.488       46.508       48.519       36.322     2162.976     2354.067     1319.254        1.605        0.292      160.913       32.144        0.040      344.158       20.778      866.521
04/26/2013  20:33:00     -109.720      102.638      -20.366       44.164       53.221       31.457     1950.503     2832.455      989.573        1.438        0.289      150.243       30.346        0.041      344.167       20.793      866.542
04/26/2013  20:34:00     -115.349       87.258      -14.441       57.232       54.329       33.759     3275.475     2951.629     1139.703        1.425        0.368      144.636       34.775        0.058      344.158       20.778      866.553
04/26/2013  20:35:00      -71.832       76.363      -13.955       57.881       50.159       29.219     3350.191     2515.969      853.743        0.895        0.336      104.839       37.409        0.127      344.114       20.703      866.570
04/26/2013  20:36:00     -112.828       84.480      -22.801       33.172       41.977       22.137     1100.350     1762.081      490.026        1.187        0.168      140.951       21.370        0.023      344.159       20.780      866.588
04/26/2013  20:37:00      -88.786       48.818      -17.953       36.513       57.497       24.823     1333.173     3305.944      616.171        0.792        0.263      101.322       19.759        0.038      344.126       20.723      866.612
04/26/2013  20:38:00      -75.072       -1.595      -13.533       64.830       51.408       31.591     4202.926     2642.799      997.972        0.683        0.392       75.089       31.182        0.172      344.186       20.825      866.630
04/26/2013  20:39:00      -93.892       19.133       -8.669       51.444       43.395       25.756     2646.476     1883.117      663.378        0.722        0.260       95.821       23.914        0.062      344.130       20.731      866.649
04/26/2013  20:40:00     -109.508        3.703      -15.076       48.342       34.772       18.742     2336.905     1209.093      351.247        0.806        0.195      109.570       12.786        0.014      344.107       20.692      866.671
04/26/2013  20:41:00      -72.363       33.872      -10.166       45.965       55.086       29.977     2112.807     3034.430      898.631        0.627        0.302       79.898       22.900        0.082      343.995       20.501      866.689
04/26/2013  20:42:00      -59.061        2.601       -3.210       31.803       29.596       18.758     1011.410      875.920      351.872        0.287        0.112       59.119       17.990        0.093      343.967       20.453      866.699
04/26/2013  20:43:00     -135.373      -26.650      -14.460       40.021       25.979       20.428     1601.706      674.896      417.322        1.097        0.135      137.971       12.985        0.009      343.925       20.377      866.717
04/26/2013  20:44:00     -116.338      -22.278      -25.314       44.631       25.617       22.459     1991.931      656.217      504.418        0.891        0.158      118.452       13.557        0.013      343.976       20.468      866.739
04/26/2013  20:45:00     -113.754      -26.388      -18.896       43.395       35.459       19.533     1883.166     1257.307      381.536        0.876        0.176      116.775       13.685        0.014      343.941       20.408      866.747
04/26/2013  20:46:00      -62.453      -41.600       12.158       94.283       60.963       31.903     8889.259     3716.452     1017.786        0.970        0.681       75.039       40.010        0.284      343.582       19.793      866.782
04/26/2013  20:47:00     -189.142      -40.410       -9.727       54.851       57.879       32.945     3008.678     3349.976     1085.394        2.247        0.372      193.411       25.531        0.017      343.836       20.226      866.822
04/26/2013  20:48:00     -204.233      -90.293      -12.238       59.611       50.955       34.408     3553.520     2596.387     1183.892        2.867        0.367      223.303       30.723        0.019      343.607       19.834      866.859
04/26/2013  20:49:00     -181.029     -141.217      -13.063       85.537       73.820       49.899     7316.641     5449.418     2489.869        3.407        0.763      229.595       37.475        0.027      343.499       19.648      866.888
04/26/2013  20:50:00     -177.837      -98.428       -7.171       82.279       83.039       38.664     6769.762     6895.481     1494.880        2.826        0.758      203.259       34.793        0.029      343.530       19.704      866.915
04/26/2013  20:51:00     -256.026      -98.622      -16.422       97.921       77.319       46.353     9588.478     5978.295     2148.599        4.663        0.886      274.364       45.119        0.027      343.632       19.878      866.946
04/26/2013  20:52:00     -196.086      -14.707       -7.829       80.340       70.740       39.384     6454.521     5004.194     1551.105        2.587        0.650      196.637       39.099        0.040      343.664       19.931      866.963
04/26/2013  20:53:00     -108.321       -6.763       -6.677       60.787       43.711       25.191     3695.088     1910.649      634.586        0.903        0.312      108.531       27.985        0.066      343.794       20.159      866.958
04/26/2013  20:54:00     -116.596       34.294      -14.495       49.600       28.773       19.541     2460.183      827.900      381.855        0.932        0.183      121.534       22.297        0.034      343.732       20.051      866.970
04/26/2013  20:55:00      -88.015      -13.463       -6.731       43.656       37.636       25.310     1905.811     1416.501      640.615        0.597        0.198       89.039       20.978        0.056      343.678       19.958      866.986
04/26/2013  20:56:00      -57.950       10.263       -1.253       41.149       33.496       20.648     1693.219     1121.952      426.330        0.335        0.162       58.852       14.557        0.061      343.707       20.009      866.998
04/26/2013  20:57:00     -177.186      -34.568      -17.170       51.478       37.746       24.764     2650.033     1424.744      613.267        1.879        0.234      180.527        9.531        0.003      343.700       19.995      867.013
04/26/2013  20:58:00     -220.459      -16.245      -16.000       42.844       46.357       27.592     1835.594     2148.973      761.299        2.693        0.237      221.056       23.629        0.011      343.778       20.125      867.015
04/26/2013  20:59:00     -160.569      -16.867      -20.786       43.856       45.797       22.961     1923.387     2097.375      527.223        1.552        0.227      161.452       18.780        0.014      343.751       20.083      867.026
04/26/2013  21:00:00     -100.609      -52.700       -5.541       40.407       29.326       23.605     1632.697      860.003      557.218        0.799        0.152      113.576       22.408        0.039      343.720       20.031      867.031
04/26/2013  21:01:00      -99.694      -25.995       -9.178       41.864       21.001       21.043     1752.589      441.040      442.829        0.667        0.132      103.027       16.848        0.027      343.785       20.141      867.043
04/26/2013  21:02:00      -66.283      -37.050       -4.027       47.344       22.106       15.936     2241.410      488.664      253.965        0.438        0.149       75.936        3.498        0.002      343.758       20.097      867.044
04/26/2013  21:03:00     -121.484      -20.192       -7.412       32.614       25.611       18.294     1063.664      655.942      334.674        0.864        0.103      123.151       18.142        0.022      343.759       20.095      867.051
04/26/2013  21:04:00     -118.815      -26.453      -10.740       22.770       16.322       13.363      518.492      266.394      178.570        0.795        0.048      121.724        7.332        0.004      343.673       19.949      867.057
04/26/2013  21:05:00      -99.233      -36.748        3.914       53.739       39.057       27.975     2887.850     1525.470      782.594        0.820        0.260      105.819       23.757        0.050      343.700       19.997      867.049
04/26/2013  21:06:00     -117.690      -64.057      -11.915       60.212       38.386       31.399     3625.483     1473.518      985.878        1.209        0.304      133.993       26.080        0.038      343.779       20.130      867.068
04/26/2013  21:07:00     -187.408      -58.023       -7.223       53.660       38.511       28.973     2879.394     1483.094      839.421        2.187        0.260      196.185       21.540        0.012      343.729       20.045      867.070
04/26/2013  21:08:00     -187.914      -53.813       -4.737       53.983       43.590       30.978     2914.158     1900.124      959.665        2.200        0.289      195.467       30.279        0.024      343.781       20.132      867.082
04/26/2013  21:09:00     -188.976      -65.417       -5.994       38.674       51.031       25.446     1495.677     2604.198      647.504        2.239        0.237      199.979       20.336        0.010      343.780       20.131      867.090
04/26/2013  21:10:00     -218.043      -69.381      -14.795       71.536       69.729       41.493     5117.451     4862.185     1721.660        3.214        0.585      228.815       41.796        0.033      343.811       20.181      867.097
04/26/2013  21:11:00     -251.049       -4.654      -15.811       87.284       55.606       36.966     7618.453     3092.000     1366.467        3.768        0.604      251.092       43.011        0.029      343.844       20.239      867.112
04/26/2013  21:12:00     -209.831      -69.812      -19.183       71.381       71.072       43.231     5095.194     5051.211     1868.919        3.064        0.601      221.140       39.547        0.032      343.841       20.233      867.118
04/26/2013  21:13:00     -185.784      -56.416       -6.589       94.953       73.111       45.316     9016.125     5345.197     2053.549        2.708        0.821      194.161       49.687        0.065      343.815       20.189      867.118
04/26/2013  21:14:00     -216.562      -64.480       -2.121       55.972       52.005       36.801     3132.910     2704.529     1354.321        2.913        0.360      225.957       26.817        0.014      343.838       20.228      867.116
04/26/2013  21:15:00     -244.780     -101.704      -13.665       70.023       85.358       37.791     4903.283     7286.006     1428.140        4.203        0.681      265.068       25.901        0.010      343.896       20.326      867.124
04/26/2013  21:16:00     -206.987      -81.865        4.295       88.078       61.148       43.725     7757.680     3739.134     1911.907        3.148        0.670      222.588       42.530        0.037      343.828       20.211      867.136
04/26/2013  21:17:00     -183.721      -85.199        5.708       98.166       74.812       49.537     9636.522     5596.879     2453.952        2.936        0.884      202.515       51.962        0.066      343.817       20.193      867.127
04/26/2013  21:18:00     -240.772      -86.191      -20.810       72.734       76.029       40.180     5290.194     5780.448     1614.442        3.926        0.634      255.734       33.988        0.018      344.008       20.518      867.117
04/26/2013  21:19:00     -179.805      -44.958       14.510      114.669       81.834       54.062    13148.954     6696.817     2922.689        2.866        1.138      185.340       61.198        0.109      343.944       20.409      867.124
04/26/2013  21:20:00     -195.029      -99.304       -9.934      107.295       92.254       55.810    11512.273     8510.839     3114.802        3.556        1.157      218.855       63.053        0.083      343.995       20.497      867.123
04/26/2013  21:21:00     -289.199     -114.103      -14.998      166.779       97.314       55.908    27815.073     9470.090     3125.654        6.864        2.021      310.895       77.420        0.062      344.030       20.557      867.139
04/26/2013  21:22:00     -210.928      -33.970      -13.522       81.227       64.305       41.170     6597.812     4135.124     1694.976        2.913        0.621      213.646       39.398        0.034      344.012       20.527      867.142
04/26/2013  21:23:00     -185.958      -43.150        6.636      111.675       78.809       49.693    12471.336     6210.782     2469.394        2.881        1.058      190.899       56.132        0.086      343.934       20.394      867.162
04/26/2013  21:24:00     -215.563       -5.623      -10.153       99.972       96.122       44.394     9994.496     9239.516     1970.867        3.390        1.060      215.636       48.063        0.050      343.959       20.436      867.178
04/26/2013  21:25:00     -299.691      -45.359       -7.282      104.340      106.618       55.607    10886.824    11367.390     3092.107        5.863        1.267      303.104       55.017        0.033      343.939       20.401      867.191
04/26/2013  21:26:00     -322.745      -64.161       -6.323      143.008      104.861       63.160    20451.171    10995.902     3989.215        7.187        1.772      329.061       75.690        0.053      343.936       20.396      867.199
04/26/2013  21:27:00     -310.557      -74.436       -2.530      136.977       98.572       61.806    18762.769     9716.425     3819.933        6.714        1.615      319.353       69.686        0.048      343.927       20.380      867.204
04/26/2013  21:28:00     -269.290      -53.938        2.677      107.902       97.008       57.909    11642.892     9410.559     3353.429        4.992        1.220      274.639       62.119        0.051      343.910       20.350      867.208
04/26/2013  21:29:00     -305.587      -65.146      -13.325       85.336       67.485       47.419     7282.269     4554.222     2248.515        5.594        0.704      312.454       44.526        0.020      343.910       20.352      867.213
04/26/2013  21:30:00     -249.458      -99.838       -7.677       79.336       76.503       45.411     6294.252     5852.724     2062.171        4.323        0.710      268.695       44.933        0.028      343.853       20.253      867.225
04/26/2013  21:31:00     -308.739       -7.912      -18.272      102.876      111.312       43.573    10583.369    12390.404     1898.629        6.029        1.244      308.840       53.897        0.030      343.821       20.200      867.237
04/26/2013  21:32:00     -265.344      -20.549      -24.142       61.586       86.105       44.642     3792.819     7414.040     1992.950        4.230        0.660      266.139       32.159        0.015      343.798       20.161      867.232
04/26/2013  21:33:00     -251.384       -8.234      -26.245       57.633       45.730       34.054     3321.517     2091.226     1159.648        3.526        0.329      251.519       31.503        0.016      343.742       20.064      867.235
04/26/2013  21:34:00     -319.678      -78.731      -19.769       70.765       72.816       42.628     5007.621     5302.221     1817.167        6.045        0.606      329.230       38.053        0.013      343.797       20.159      867.244
04/26/2013  21:35:00     -195.776      -62.386       -1.690       79.574       89.249       39.312     6332.059     7965.362     1545.435        2.903        0.792      205.475       35.546        0.030      343.739       20.060      867.228
04/26/2013  21:36:00     -131.159      -75.688        7.722       93.403       66.930       34.214     8724.154     4479.589     1170.568        1.868        0.719      151.431       46.158        0.093      343.677       19.955      867.234
04/26/2013  21:37:00     -168.703      -46.621        4.973      115.779       87.346       55.683    13404.716     7629.246     3100.561        2.739        1.207      175.026       64.612        0.136      343.682       19.963      867.244
04/26/2013  21:38:00     -227.517      -32.706       -7.331       84.175       76.113       43.019     7085.410     5793.228     1850.635        3.381        0.736      229.855       41.054        0.032      343.738       20.059      867.256
04/26/2013  21:39:00     -185.951      -63.069       -0.953       94.718       73.788       45.150     8971.572     5444.692     2038.478        2.750        0.823      196.355       47.751        0.059      343.694       19.983      867.264
04/26/2013  21:40:00     -313.743      -11.187      -24.596       89.549       75.744       42.557     8018.940     5737.217     1811.099        5.736        0.778      313.943       41.819        0.018      343.728       20.040      867.285
04/26/2013  21:41:00     -197.353      -19.731      -14.338       99.612       60.305       40.018     9922.642     3636.647     1601.458        2.735        0.758      198.337       46.955        0.056      343.631       19.876      867.297
04/26/2013  21:42:00     -208.287      -36.233       -7.411      103.884       74.695       43.521    10791.805     5579.406     1894.042        3.150        0.913      211.414       50.446        0.057      343.670       19.939      867.295
04/26/2013  21:43:00     -232.123      -56.075      -18.548       63.635       73.462       36.682     4049.375     5396.719     1345.584        3.408        0.540      238.800       31.070        0.017      343.648       19.902      867.302
04/26/2013  21:44:00     -230.378      -38.733      -10.052       77.015       70.587       46.817     5931.246     4982.582     2191.798        3.389        0.655      233.611       43.895        0.035      343.638       19.887      867.309
04/26/2013  21:45:00     -245.513      -59.665        1.452       93.571       84.515       51.530     8755.495     7142.759     2655.356        4.119        0.928      252.659       46.790        0.034      343.645       19.899      867.298
04/26/2013  21:46:00     -199.906      -52.301       -1.637      131.186       98.696       52.839    17209.657     9740.959     2791.923        3.622        1.487      206.634       61.479        0.089      343.609       19.839      867.312
04/26/2013  21:47:00     -303.109      -80.164       -9.162      114.158       79.641       55.322    13031.967     6342.622     3060.470        6.041        1.122      313.530       58.490        0.035      343.633       19.878      867.319
04/26/2013  21:48:00     -293.482      -93.959      -17.324      114.646       99.063       49.467    13143.674     9813.450     2446.982        6.033        1.270      308.156       40.072        0.017      343.636       19.884      867.329
04/26/2013  21:49:00     -258.926      -86.028        6.443       96.253      102.799       50.068     9264.573    10567.612     2506.816        4.841        1.117      272.843       52.431        0.037      343.602       19.826      867.336
04/26/2013  21:50:00     -256.163      -37.738        4.215      156.078       97.219       57.878    24360.358     9451.530     3349.867        5.210        1.858      258.928       66.931        0.067      343.616       19.850      867.335
04/26/2013  21:51:00     -267.804      -85.452      -10.006      105.209       79.833       54.773    11068.984     6373.250     3000.091        4.978        1.022      281.107       57.114        0.041      343.649       19.905      867.336
04/26/2013  21:52:00     -279.065      -92.728      -13.344       83.787       93.896       44.193     7020.339     8816.544     1953.059        5.222        0.889      294.067       38.040        0.017      343.629       19.872      867.349
04/26/2013  21:53:00     -194.348      -56.596        7.444       96.070       86.024       48.051     9229.524     7400.059     2308.936        2.998        0.947      202.420       43.908        0.047      343.585       19.797      867.352
04/26/2013  21:54:00     -298.617     -117.595      -12.086      111.479       86.550       58.664    12427.618     7490.845     3441.406        6.325        1.168      320.938       54.760        0.029      343.626       19.866      867.366
04/26/2013  21:55:00     -348.503      -81.549      -11.401      120.491       99.497       52.617    14518.175     9899.606     2768.575        7.771        1.359      357.917       44.902        0.016      343.666       19.934      867.376
04/26/2013  21:56:00     -395.334     -100.371       -6.804      128.699      105.083       66.240    16563.462    11042.492     4387.683        9.920        1.600      407.877       66.467        0.027      343.661       19.926      867.383
04/26/2013  21:57:00     -363.266      -85.238      -10.183      128.289      108.756       63.942    16458.066    11827.760     4088.543        8.585        1.619      373.132       65.128        0.030      343.673       19.946      867.400
04/26/2013  21:58:00     -262.225      -78.338       -6.101      119.430       96.659       50.765    14263.448     9343.021     2577.104        5.055        1.309      273.676       40.832        0.022      343.661       19.926      867.403
04/26/2013  21:59:00     -218.526      -39.320       -2.775      127.235       85.357       49.846    16188.663     7285.868     2484.661        3.763        1.298      222.035       54.276        0.060      343.641       19.893      867.401
04/26/2013  22:00:00     -120.033      -58.726        9.616      134.440       89.034       58.261    18074.033     7927.000     3394.354        2.367        1.470      133.629       67.809        0.257      343.648       19.905      867.413
04/26/2013  22:01:00     -173.203      -73.091       -7.616      102.410       87.539       45.571    10487.804     7662.998     2076.683        2.781        1.011      187.994       54.490        0.084      343.630       19.874      867.424
04/26/2013  22:02:00     -276.404      -78.677       -5.423      160.221      102.655       59.618    25670.611    10538.091     3554.261        6.118        1.988      287.384       72.049        0.063      343.621       19.858      867.435
04/26/2013  22:03:00     -315.641      -69.778       -1.921      119.481      111.792       61.526    14275.749    12497.477     3785.489        6.752        1.528      323.262       66.091        0.042      343.670       19.940      867.440
04/26/2013  22:04:00     -330.382      -57.179       -1.807      143.700      102.711       54.431    20649.792    10549.566     2962.768        7.329        1.708      335.293       68.578        0.042      343.635       19.880      867.451
04/26/2013  22:05:00     -192.071      -62.984       -0.350      103.127       90.735       46.595    10635.218     8232.870     2171.052        3.094        1.052      202.135       48.315        0.057      343.613       19.844      867.469
04/26/2013  22:06:00     -340.913      -92.197      -17.789       51.775       55.078       37.116     2680.656     3033.622     1377.591        6.606        0.355      353.160       22.874        0.004      343.638       19.885      867.484
04/26/2013  22:07:00     -234.910      -62.873        0.173       99.344       80.560       47.198     9869.137     6489.848     2227.637        3.886        0.929      243.179       39.897        0.027      343.581       19.789      867.489
04/26/2013  22:08:00     -329.524      -82.816       -9.235      129.773      101.687       49.139    16840.937    10340.279     2414.624        7.256        1.480      339.771       50.120        0.022      343.608       19.835      867.497
04/26/2013  22:09:00     -173.991      -79.405        6.431      100.228       77.626       49.767    10045.659     6025.733     2476.727        2.758        0.927      191.254       52.210        0.075      343.577       19.785      867.514
04/26/2013  22:10:00     -320.332      -47.499      -13.965      131.660       78.064       60.720    17334.260     6093.978     3686.952        6.608        1.356      323.835       65.523        0.041      343.604       19.829      867.526
04/26/2013  22:11:00     -268.405      -94.715       -6.139       90.341       71.479       41.578     8161.507     5109.305     1728.755        4.802        0.750      284.626       41.143        0.021      343.589       19.803      867.529
04/26/2013  22:12:00     -202.275      -56.260      -20.583      111.575       70.783       42.217    12448.886     5010.267     1782.302        3.187        0.962      209.953       45.967        0.048      343.580       19.789      867.526
04/26/2013  22:13:00     -150.632      -70.356       -1.859       84.392       91.841       44.877     7121.929     8434.692     2013.971        2.260        0.879      166.253       43.998        0.070      343.549       19.737      867.531
04/26/2013  22:14:00     -118.722      -20.016       17.588      136.731       91.436       66.985    18695.258     8360.568     4486.966        2.317        1.577      120.398       83.073        0.476      343.532       19.708      867.545
04/26/2013  22:15:00     -169.524       54.210       -5.337       92.635       52.703       39.779     8581.171     2777.629     1582.401        2.232        0.647      177.980       37.028        0.043      343.529       19.703      867.573
04/26/2013  22:16:00     -123.584      -25.059       -6.336       73.683       76.234       40.600     5429.181     5811.611     1648.345        1.441        0.644      126.099       37.273        0.087      343.472       19.606      867.595
04/26/2013  22:17:00     -177.306      -45.171      -17.076       74.790       48.467       29.810     5593.476     2349.061      888.646        2.130        0.442      182.969       17.606        0.009      343.564       19.764      867.609
04/26/2013  22:18:00     -152.205      -72.271       -6.051       74.647       70.203       36.786     5572.167     4928.485     1353.209        2.014        0.593      168.491       23.318        0.019      343.483       19.626      867.625
04/26/2013  22:19:00     -223.007      -42.146      -11.159       77.339       68.355       41.092     5981.355     4672.391     1688.563        3.199        0.617      226.954       38.575        0.029      343.490       19.636      867.624
04/26/2013  22:20:00     -158.759      -49.201       -9.465       45.744       55.761       25.585     2092.549     3109.307      654.592        1.678        0.293      166.209       22.115        0.018      343.469       19.601      867.635
04/26/2013  22:21:00     -134.804      -17.219       -1.582       58.148       60.780       37.426     3381.154     3694.150     1400.726        1.347        0.424      135.899       28.759        0.045      343.465       19.594      867.654
04/26/2013  22:22:00     -228.872      -48.175      -15.591       76.822       53.784       39.493     5901.634     2892.720     1559.694        3.265        0.518      233.887       43.558        0.035      343.470       19.600      867.655
04/26/2013  22:23:00     -190.979      -30.055       -0.840       90.193       73.335       43.699     8134.813     5378.033     1909.600        2.640        0.771      193.329       45.149        0.055      343.428       19.529      867.683
04/26/2013  22:24:00     -216.152        4.193       -8.536       56.309       52.435       35.702     3170.728     2749.413     1274.604        2.700        0.360      216.192       28.339        0.017      343.434       19.540      867.702
04/26/2013  22:25:00     -103.767      -14.976        3.016       76.751       45.115       40.257     5890.744     2035.370     1620.664        1.027        0.477      104.842       38.288        0.133      343.354       19.405      867.692
04/26/2013  22:26:00     -232.960      -37.335      -24.281       69.707       46.115       29.262     4859.084     2126.618      856.292        3.205        0.392      235.933       23.488        0.010      343.437       19.545      867.697
04/26/2013  22:27:00     -137.732       43.757       -8.911       57.457       31.390       28.272     3301.355      985.361      799.307        1.302        0.254      144.516       25.177        0.030      343.331       19.367      867.730
04/26/2013  22:28:00     -133.362        4.990      -13.129       30.738       66.821       24.431      944.802     4465.105      596.887        1.199        0.300      133.456       19.109        0.021      343.264       19.253      867.757
04/26/2013  22:29:00     -137.553      -40.659      -23.539       42.273       38.010       29.483     1787.014     1444.756      869.274        1.261        0.205      143.436       20.448        0.020      343.244       19.218      867.761
04/26/2013  22:30:00     -129.108      -54.131      -10.489       69.777       47.182       34.066     4868.802     2226.174     1160.473        1.398        0.413      139.996       27.733        0.039      343.213       19.166      867.763
04/26/2013  22:31:00     -131.211      -48.162        4.723       74.567       49.866       34.812     5560.302     2486.630     1211.849        1.441        0.463      139.771       30.680        0.048      343.267       19.258      867.763
04/26/2013  22:32:00     -153.828      -76.674        2.655       58.451       41.874       27.019     3416.478     1753.458      730.000        1.772        0.295      171.878       26.151        0.023      343.238       19.208      867.772
04/26/2013  22:33:00     -190.236      -42.169       -5.092       90.950       58.266       35.554     8271.814     3394.976     1264.055        2.546        0.647      194.853       34.679        0.032      343.299       19.310      867.771
04/26/2013  22:34:00      -90.718      -45.315       -0.888       70.922       45.571       29.334     5029.901     2076.746      860.500        0.912        0.398      101.406       31.164        0.094      343.280       19.280      867.759
04/26/2013  22:35:00     -140.364      -73.677      -10.555      134.120       81.452       54.281    17988.262     6634.424     2946.447        2.640        1.378      158.526       66.547        0.176      343.447       19.562      867.759
04/26/2013  22:36:00     -161.758      -19.718       -4.947       93.244       58.066       30.035     8694.417     3371.638      902.089        1.977        0.648      162.955       32.422        0.040      343.485       19.627      867.764
04/26/2013  22:37:00      -89.790      -30.291        2.321       62.923       41.415       26.887     3959.338     1715.180      722.910        0.769        0.320       94.762       29.378        0.096      343.417       19.513      867.779
04/26/2013  22:38:00      -97.377       28.311       -7.771       69.925       27.200       29.353     4889.565      739.830      861.600        0.842        0.325      101.409       33.936        0.112      343.261       19.248      867.803
04/26/2013  22:39:00      -92.677       68.462      -14.880       29.755       37.316       22.886      885.353     1392.510      523.766        0.815        0.140      115.222       22.294        0.037      343.224       19.185      867.819
04/26/2013  22:40:00      -41.078       90.759      -15.855       26.170       34.317       15.232      684.846     1177.640      231.999        0.613        0.105       99.622       11.819        0.014      343.240       19.214      867.819
04/26/2013  22:41:00      -57.425       30.653      -13.791       39.008       18.564       14.457     1521.641      344.619      208.996        0.325        0.104       65.094       19.364        0.088      343.290       19.300      867.811
04/26/2013  22:42:00      -27.749       -1.132       -8.101       19.452       19.757       12.700      378.388      390.341      161.292        0.088        0.047       27.772        9.386        0.114      343.366       19.426      867.805
04/26/2013  22:43:00      -39.325       19.978       -3.988       43.976       19.871       19.228     1933.922      394.869      369.715        0.233        0.135       44.109       18.531        0.177      343.324       19.356      867.783
04/26/2013  22:44:00      -62.686       -3.832      -11.291       29.173       18.071       11.383      851.091      326.557      129.574        0.269        0.065       62.804       12.530        0.040      343.341       19.383      867.788
04/26/2013  22:45:00       -7.891       11.263        5.966       16.798        8.002        9.720      282.186       64.034       94.472        0.033        0.022       13.752       10.054        0.535      343.256       19.243      867.802
04/26/2013  22:46:00        7.631       19.781       -2.172        9.615       15.034       14.721       92.440      226.017      216.706        0.049        0.027       21.202       11.973        0.319      343.165       19.085      867.822
04/26/2013  22:47:00       53.054       56.567        8.327       23.830       15.510       19.999      567.880      240.546      399.948        0.365        0.060       77.553       12.945        0.028      343.131       19.026      867.808
04/26/2013  22:48:00       13.031       51.770      -16.667       20.026       15.812       12.813      401.037      250.030      164.184        0.197        0.041       53.385       10.655        0.040      342.956       18.728      867.827
04/26/2013  22:49:00       -6.485       22.471       -9.616       14.225       12.511        5.159      202.351      156.529       26.611        0.051        0.019       23.388        6.876        0.086      343.168       19.092      867.831
04/26/2013  22:50:00      -14.898      -16.731       -1.941       24.876       13.421        8.890      618.836      180.126       79.035        0.069        0.044       22.403        8.532        0.145      343.295       19.305      867.823
04/26/2013  22:51:00      -36.960      -53.717        1.711       45.942       32.688       20.067     2110.710     1068.483      402.676        0.392        0.179       65.204       15.339        0.055      343.277       19.277      867.823
04/26/2013  22:52:00      -52.325     -103.123       -0.904       72.203       64.822       38.570     5213.342     4201.892     1487.607        1.214        0.545      115.638       38.611        0.111      343.322       19.351      867.807
04/26/2013  22:53:00     -158.257     -106.199       -7.363       85.093       52.692       38.372     7240.766     2776.444     1472.403        2.393        0.574      190.587       38.714        0.041      343.303       19.318      867.786
04/26/2013  22:54:00     -202.633     -133.653        6.658       90.606       83.874       52.297     8209.522     7034.778     2734.993        3.847        0.899      242.741       52.298        0.046      343.405       19.491      867.789
04/26/2013  22:55:00     -221.093     -124.837       -0.899      105.844       67.135       48.366    11202.919     4507.149     2339.314        4.125        0.902      253.902       53.036        0.044      343.382       19.449      867.792
04/26/2013  22:56:00     -223.266     -109.567       -6.039      100.293       81.301       38.328    10058.674     6609.806     1469.071        4.001        0.907      248.702       41.375        0.028      343.547       19.733      867.797
04/26/2013  22:57:00     -192.545      -98.231        8.282      120.677       98.099       50.034    14562.903     9623.420     2503.399        3.674        1.334      216.155       51.441        0.057      343.597       19.818      867.796
04/26/2013  22:58:00      -81.776       -7.174        8.350       74.506       46.210       34.580     5551.154     2135.387     1195.772        0.784        0.444       82.090       34.951        0.181      343.541       19.724      867.823
04/26/2013  22:59:00      -64.757      -19.401        0.839       31.566       44.829       19.965      996.388     2009.669      398.593        0.399        0.170       67.601       13.617        0.041      343.557       19.752      867.836
04/26/2013  23:00:00      -33.554       24.639       -3.364       52.845       37.282       17.687     2792.630     1389.918      312.830        0.312        0.225       41.629       10.197        0.060      343.297       19.308      867.837
04/26/2013  23:01:00     -119.348       17.404      -10.885       52.354       36.957       20.872     2740.925     1365.825      435.636        0.960        0.227      120.610       21.815        0.033      343.342       19.387      867.869
04/26/2013  23:02:00     -110.114      103.841      -14.903       41.118       42.495       19.446     1690.694     1805.827      378.132        1.350        0.194      151.354       11.854        0.006      343.371       19.434      867.872
04/26/2013  23:03:00      -42.694       39.054       -6.233       50.049       58.397       22.931     2504.862     3410.254      525.844        0.491        0.322       57.862       17.658        0.093      343.411       19.504      867.861
04/26/2013  23:04:00      -21.755      127.308      -11.991       25.869       46.631       16.519      669.207     2174.446      272.868        0.997        0.156      129.153       13.944        0.012      343.437       19.547      867.860
04/26/2013  23:05:00      -36.304      116.077       -8.236       31.286       43.716       24.119      978.834     1911.126      581.726        0.916        0.174      121.622       20.795        0.029      343.374       19.441      867.867
04/26/2013  23:06:00      -52.600       30.266        6.514       47.547       35.086       23.207     2260.682     1230.998      538.545        0.388        0.202       60.686       20.511        0.114      343.236       19.206      867.871
04/26/2013  23:07:00      -44.654      -14.050       -1.273       17.332       18.745       15.089      300.389      351.363      227.686        0.154        0.044       46.812       12.336        0.069      343.357       19.413      867.881
04/26/2013  23:08:00      -26.659      -45.208       -0.877       29.771       25.618       17.296      886.324      656.295      299.159        0.230        0.092       52.483        6.815        0.017      343.297       19.310      867.911
04/26/2013  23:09:00      -81.944      -41.496       -9.623       17.227       18.012       10.440      296.785      324.441      108.994        0.463        0.037       91.852        9.173        0.010      343.341       19.386      867.928
04/26/2013  23:10:00      -71.556      -52.427      -11.836       38.325       32.859       19.681     1468.773     1079.694      387.332        0.547        0.147       88.707       16.866        0.036      343.449       19.569      867.931
04/26/2013  23:11:00      -82.815      -51.777       -2.517       43.855       30.855       24.659     1923.226      952.025      608.085        0.651        0.174       97.668       24.011        0.060      343.391       19.471      867.931
04/26/2013  23:12:00      -72.357      -15.914        7.175       52.926       46.048       26.601     2801.206     2120.413      707.592        0.558        0.281       74.086       31.720        0.183      343.364       19.424      867.941
04/26/2013  23:13:00     -118.801      -17.020       -4.936       60.117       35.788       24.053     3614.051     1280.769      578.561        0.995        0.274      120.014       30.157        0.063      343.445       19.562      867.933
04/26/2013  23:14:00     -111.686      -41.146       -2.325       32.765       24.354       16.152     1073.515      593.101      260.882        0.805        0.096      119.024       13.054        0.012      343.415       19.511      867.937
04/26/2013  23:15:00      -97.694      -44.203        2.881       45.477       34.502       23.561     2068.199     1190.414      555.117        0.766        0.191      107.229       24.358        0.052      343.453       19.575      867.941
04/26/2013  23:16:00     -102.533      -23.430       -3.745       24.886       44.086       20.402      619.322     1943.557      416.245        0.703        0.149      105.176       15.627        0.022      343.687       19.975      867.925
04/26/2013  23:17:00     -142.662     -104.280       -4.540      120.199       71.767       46.550    14447.700     5150.455     2166.900        2.650        1.088      176.711       49.775        0.079      343.514       19.677      867.955
04/26/2013  23:18:00     -254.181     -184.360      -13.503      107.666      101.539       58.188    11591.903    10310.258     3385.869        6.203        1.264      314.001       50.712        0.026      343.498       19.648      867.958
04/26/2013  23:19:00     -147.247      -77.001       -5.653       71.431       55.514       35.698     5102.341     3081.831     1274.325        1.855        0.473      166.165       38.971        0.055      343.487       19.632      867.966
04/26/2013  23:20:00     -191.445      -49.223       -4.319       63.136       47.724       33.622     3986.100     2277.555     1130.449        2.324        0.370      197.672       35.352        0.032      343.519       19.687      867.968
04/26/2013  23:21:00     -132.230      -37.186       -1.671       43.210       43.207       24.139     1867.145     1866.855      582.713        1.159        0.216      137.359       24.093        0.031      343.513       19.678      867.976
04/26/2013  23:22:00     -188.592      -25.490        1.099       84.474       73.519       38.319     7135.824     5405.065     1468.361        2.511        0.700      190.307       31.708        0.028      343.558       19.751      867.988
04/26/2013  23:23:00     -205.550      -52.547       -4.330       71.954       59.036       37.783     5177.379     3485.292     1427.553        2.756        0.505      212.160       37.621        0.031      343.552       19.741      867.999
04/26/2013  23:24:00     -203.884      -80.310       -0.301       49.966       52.981       32.289     2496.560     2806.969     1042.610        2.718        0.317      219.131       32.190        0.022      343.613       19.844      868.006
04/26/2013  23:25:00     -182.854      -50.438       -1.560       30.230       47.254       25.397      913.833     2232.953      645.029        1.989        0.190      189.682       20.119        0.011      343.494       19.643      868.011
04/26/2013  23:26:00     -126.983      -48.201       -2.811       57.563       44.507       27.038     3313.446     1980.880      731.076        1.224        0.301      135.823       28.205        0.043      343.410       19.502      868.012
04/26/2013  23:27:00      -89.320      -23.071       -0.151       34.525       26.767       24.628     1192.008      716.472      606.561        0.551        0.126       92.251       21.551        0.055      343.379       19.449      868.009
04/26/2013  23:28:00     -114.071      -22.977        7.249       58.145       29.968       21.408     3380.792      898.061      458.304        0.916        0.237      116.362       26.408        0.052      343.305       19.322      868.000
04/26/2013  23:29:00      -61.904      -23.996        4.655       48.956       30.704       20.323     2396.672      942.761      413.032        0.409        0.188       66.392       16.670        0.063      343.330       19.366      867.984
04/26/2013  23:30:00      -71.585      -43.951        2.363       38.015       25.526       14.807     1445.147      651.585      219.255        0.469        0.116       84.001       16.279        0.038      343.340       19.382      867.991
04/26/2013  23:31:00      -40.397      -63.035        1.360       34.503       36.441       23.540     1190.457     1327.925      554.135        0.434        0.154       74.868       20.528        0.075      343.365       19.425      868.001
04/26/2013  23:32:00      -74.055      -47.192       -7.129       20.786       35.294       16.211      432.050     1245.670      262.788        0.485        0.097       87.813        9.105        0.011      343.455       19.579      867.995
04/26/2013  23:33:00      -80.938        5.763      -10.486       19.451       22.511       15.516      378.326      506.767      240.749        0.391        0.056       81.143       12.296        0.023      343.469       19.605      867.988
04/26/2013  23:34:00      -44.682      -45.371        1.253       28.035       21.467       15.251      785.963      460.835      232.595        0.277        0.074       63.679        8.946        0.020      343.337       19.378      867.989
04/26/2013  23:35:00      -87.807      -46.583       -6.135       25.534       26.814       13.579      651.981      719.011      184.391        0.574        0.078       99.399        8.326        0.007      343.306       19.322      867.987
04/26/2013  23:36:00      -23.616      -68.918       -4.394       22.937       26.958       12.368      526.116      726.728      152.980        0.337        0.070       72.852       11.895        0.027      343.210       19.160      867.974
04/26/2013  23:37:00      -33.288      -83.560        1.410       22.283       35.271       17.911      496.527     1244.078      320.815        0.508        0.103       89.946       13.139        0.021      343.242       19.216      867.971
04/26/2013  23:38:00      -47.673      -70.643       -3.506       36.342       29.027       17.700     1320.758      842.538      313.302        0.488        0.124       85.224       20.910        0.060      343.233       19.200      867.973
04/26/2013  23:39:00      -74.779      -41.983        2.468       46.303       30.601       22.387     2143.983      936.443      501.156        0.547        0.179       85.758       19.118        0.050      343.173       19.100      868.004
04/26/2013  23:40:00      -37.576      -51.462        6.329       46.475       44.375       20.396     2159.893     1969.099      415.981        0.432        0.227       63.721       24.890        0.153      343.136       19.036      868.002
04/26/2013  23:41:00      -92.714      -77.547       -6.701       34.955       33.525       24.843     1221.830     1123.942      617.160        0.881        0.148      120.870       23.191        0.037      343.151       19.061      868.008
04/26/2013  23:42:00      -90.534      -59.081       -7.059       40.236       24.143       14.749     1618.902      582.898      217.540        0.708        0.121      108.107        7.757        0.005      343.157       19.071      868.011
04/26/2013  23:43:00      -13.581      -29.122       11.614       29.988       19.316       17.443      899.297      373.107      304.246        0.137        0.079       32.133       13.662        0.181      343.132       19.029      868.001
04/26/2013  23:44:00      -87.529      -60.105        1.488       57.572       39.366       23.112     3314.560     1549.681      534.144        0.834        0.270      106.179       23.274        0.048      343.182       19.114      867.994
04/26/2013  23:45:00      -80.210      -77.976        2.186       34.550       38.783       24.728     1193.671     1504.141      611.482        0.791        0.165      111.865       20.188        0.033      343.161       19.078      867.986
04/26/2013  23:46:00      -97.630      -75.363       -1.570       41.202       36.915       23.664     1697.627     1362.681      559.973        0.942        0.181      123.334       18.898        0.023      343.083       18.945      867.986
04/26/2013  23:47:00      -81.658      -65.506       -2.144       35.582       36.614       18.725     1266.075     1340.575      350.631        0.696        0.148      104.685       15.829        0.023      343.040       18.872      867.991
04/26/2013  23:48:00     -105.868      -28.530       -9.680       23.287       21.096       14.610      542.300      445.043      213.456        0.666        0.060      109.645       11.972        0.012      343.000       18.803      868.001
04/26/2013  23:49:00      -69.087      -35.484        0.487       23.241       22.754       13.147      540.133      517.753      172.838        0.363        0.062       77.667        8.723        0.013      342.976       18.761      867.999
04/26/2013  23:50:00      -92.298      -28.941       -1.885       53.767       32.688       33.313     2890.861     1068.517     1109.754        0.721        0.253       96.729       32.020        0.110      343.349       19.398      867.992
04/26/2013  23:51:00     -178.024      -46.105      -13.699       62.352       44.414       30.883     3887.786     1972.593      953.743        2.041        0.341      183.898       30.878        0.028      343.139       19.038      867.989
04/26/2013  23:52:00     -105.855      -39.317        0.805       55.632       57.219       25.306     3094.971     3274.062      640.400        0.988        0.350      112.921       31.269        0.077      342.987       18.781      868.021
04/26/2013  23:53:00     -152.014      -70.980        2.976       40.713       37.398       26.307     1657.550     1398.624      692.058        1.595        0.187      167.769       22.504        0.018      342.994       18.795      868.041
04/26/2013  23:54:00     -123.183      -28.879        1.335       65.973       45.484       29.722     4352.371     2068.782      883.372        1.166        0.365      126.523       33.302        0.069      343.022       18.841      868.039
04/26/2013  23:55:00     -135.000      -24.580        1.715       45.543       42.675       32.164     2074.193     1821.161     1034.513        1.188        0.246      137.220       24.412        0.032      343.010       18.821      868.025
04/26/2013  23:56:00     -163.711      -68.934       -4.469       51.221       39.483       23.944     2623.618     1558.923      573.318        1.816        0.238      177.632       18.913        0.011      342.835       18.521      868.021
04/26/2013  23:57:00     -152.930      -70.201        3.506       81.231       58.468       34.005     6598.456     3418.559     1156.327        1.975        0.559      168.272       36.782        0.048      343.006       18.811      868.016
04/26/2013  23:58:00     -195.852      -42.425       -6.966       89.958       41.834       36.700     8092.473     1750.106     1346.868        2.570        0.559      200.394       41.468        0.043      342.960       18.733      868.008
04/26/2013  23:59:00     -212.716      -40.539        1.949       79.577       52.606       39.908     6332.452     2767.389     1592.677        2.879        0.535      216.544       41.482        0.037      342.946       18.709      868.009
